[[{"header":{"parameterUnit":"m.s-1","parameterCategory":1,"la1":31.0,"la2":29.5877,"lo1":-88.7671,"lo2":-86.6584,"dy":0.0162,"dx":0.0185,"nx":115,"ny":88,"refTime":"2024-02-19T06:00:00:Z","depth":0,"parameterNumber":2,"parameterNumberName":"U-component_of_WINDS"},"data":[0.0,0.0,0.0,0.0,0.0,0.0,0.0,0.0,0.0,0.0,0.0,0.0,0.0,0.0,0.0,0.0,0.0,0.0,0.0,0.0,0.0,0.0,0.0,0.0,0.0,0.0,0.0,0.0,0.0,0.0,0.0,0.0,0.0,0.0,0.0,0.0,0.0,0.0,0.0,0.0,0.0,0.0,0.0,0.0,0.0,0.0,0.0,0.0,0.0,0.0,0.0,0.0,0.0,0.0,0.0,0.0,0.0,0.0,0.0,0.0,0.0,0.0,0.0,0.0,0.0,0.0,0.0,0.0,0.0,0.0,0.0,0.0,0.0,0.0,0.0,0.0,0.0,0.0,0.0,0.0,0.0,0.0,0.0,0.0,0.0,0.0,0.0,0.0,0.0,0.0,0.0,0.0,0.0,0.0,0.0,0.0,0.0,0.0,0.0,0.0,0.0,0.0,0.0,0.0,0.0,0.0,0.0,0.0,0.0,0.0,0.0,0.0,0.0,0.0,0.0,0.0,0.0,0.0,0.0,0.0,0.0,0.0,0.0,0.0,0.0,0.0,0.0,0.0,0.0,0.0,0.0,0.0,0.0,0.0,0.0,0.0,0.0,0.0,0.0,0.0,0.0,0.0,0.0,0.0,0.0,0.0,0.0,0.0,0.0,0.0,0.0,0.0,0.0,0.0,0.0,0.0,0.0,0.0,0.0,0.0,0.0,0.0,0.0,0.0,0.0,0.0,0.0,0.0,0.0,0.0,0.0,0.0,0.0,0.0,0.0,0.0,0.0,0.0,0.0,0.0,0.0,0.0,0.0,0.0,0.0,0.0,0.0,0.0,0.0,0.0,0.0,0.0,0.0,0.0,0.0,0.0,0.0,0.0,0.0,0.0,0.0,0.0,0.0,0.0,0.0,0.0,0.0,0.0,0.0,0.0,0.0,0.0,0.0,0.0,0.0,0.0,0.0,0.0,0.0,0.0,0.0,0.0,0.0,0.0,0.0,0.0,0.0,0.0,0.0,0.0,0.0,0.0,0.0,0.0,0.0,0.0,0.0,0.0,0.0,0.0,0.0,0.0,0.0,0.0,0.0,0.0,0.0,0.0,0.0,0.0,0.0,0.0,0.0,0.0,0.0,0.0,0.0,0.0,0.0,0.0,0.0,0.0,0.0,0.0,0.0,0.0,0.0,0.0,0.0,0.0,0.0,0.0,0.0,0.0,0.0,0.0,0.0,0.0,0.0,0.0,0.0,0.0,0.0,0.0,0.0,0.0,0.0,0.0,0.0,0.0,0.0,0.0,0.0,0.0,0.0,0.0,0.0,0.0,0.0,0.0,0.0,0.0,0.0,0.0,0.0,0.0,0.0,0.0,0.0,0.0,0.0,0.0,0.0,0.0,0.0,0.0,0.0,0.0,0.0,0.0,0.0,0.0,0.0,0.0,0.0,0.0,0.0,0.0,0.0,0.0,0.0,0.0,0.0,0.0,0.0,0.0,0.0,0.0,0.0,0.0,0.0,0.0,0.0,0.0,0.0,0.0,0.0,0.0,0.0,0.0,0.0,0.0,0.0,0.0,0.0,0.0,0.0,0.0,0.0,0.0,0.0,0.0,0.0,0.0,0.0,0.0,0.0,0.0,0.0,0.0,0.0,0.0,0.0,0.0,0.0,0.0,0.0,0.0,0.0,0.0,0.0,0.0,0.0,0.0,0.0,0.0,0.0,0.0,0.0,0.0,0.0,0.0,0.0,0.0,0.0,0.0,0.0,0.0,0.0,0.0,0.0,0.0,0.0,0.0,0.0,0.0,0.0,0.0,0.0,0.0,0.0,0.0,0.0,0.0,0.0,0.0,0.0,0.0,0.0,0.0,0.0,0.0,0.0,0.0,0.0,0.0,0.0,0.0,0.0,0.0,0.0,0.0,0.0,0.0,0.0,0.0,0.0,0.0,0.0,0.0,0.0,0.0,0.0,0.0,0.0,0.0,0.0,0.0,0.0,0.0,0.0,0.0,0.0,0.0,0.0,0.0,0.0,0.0,0.0,0.0,0.0,0.0,0.0,0.0,0.0,0.0,0.0,0.0,0.0,0.0,0.0,0.0,0.0,0.0,0.0,0.0,0.0,0.0,0.0,0.0,0.0,0.0,0.0,0.0,0.0,0.0,0.0,0.0,0.0,0.0,0.0,0.0,0.0,0.0,0.0,0.0,0.0,0.0,0.0,0.0,0.0,0.0,0.0,0.0,0.0,0.0,0.0,0.0,0.0,0.0,0.0,0.0,0.0,0.0,0.0,0.0,0.0,0.0,0.0,0.0,0.0,0.0,0.0,0.0,0.0,0.0,0.0,0.0,0.0,0.0,0.0,0.0,0.0,0.0,0.0,0.0,0.0,0.0,0.0,0.0,0.0,0.0,0.0,0.0,0.0,0.0,0.0,0.0,0.0,0.0,0.0,0.0,0.0,0.0,0.0,0.0,0.0,0.0,0.0,0.0,0.0,0.0,0.0,0.0,0.0,0.0,0.0,0.0,0.0,0.0,0.0,0.0,0.0,0.0,0.0,0.0,0.0,0.0,0.0,0.0,0.0,0.0,0.0,0.0,0.0,0.0,0.0,0.0,0.0,0.0,0.0,0.0,0.0,0.0,0.0,0.0,0.0,0.0,0.0,0.0,0.0,0.0,0.0,0.0,0.0,0.0,0.0,0.0,0.0,0.0,0.0,0.0,0.0,0.0,0.0,0.0,0.0,0.0,0.0,0.0,0.0,0.0,0.0,0.0,0.0,0.0,0.0,0.0,0.0,0.0,0.0,0.0,0.0,0.0,0.0,0.0,0.0,0.0,0.0,0.0,0.0,0.0,0.0,0.0,0.0,0.0,0.0,0.0,0.0,0.0,0.0,0.0,0.0,0.0,0.0,0.0,0.0,0.0,0.0,0.0,0.0,0.0,0.0,0.0,0.0,0.0,0.0,0.0,0.0,0.0,0.0,0.0,0.0,0.0,0.0,0.0,0.0,0.0,0.0,0.0,0.0,0.0,0.0,0.0,0.0,0.0,0.0,0.0,0.0,0.0,0.0,0.0,0.0,0.0,0.0,0.0,0.0,0.0,0.0,0.0,0.0,0.0,0.0,0.0,0.0,0.0,0.0,0.0,0.0,0.0,0.0,0.0,0.0,0.0,0.0,0.0,0.0,0.0,0.0,0.0,0.0,0.0,0.0,0.0,0.0,0.0,0.0,0.0,0.0,0.0,0.0,0.0,0.0,0.0,0.0,0.0,0.0,0.0,0.0,0.0,0.0,0.0,0.0,0.0,0.0,0.0,0.0,0.0,0.0,0.0,0.0,0.0,0.0,0.0,0.0,0.0,0.0,0.0,0.0,0.0,0.0,0.0,0.0,0.0,0.0,0.0,0.0,0.0,0.0,0.0,0.0,0.0,0.0,0.0,0.0,0.0,0.0,0.0,0.0,0.0,0.0,0.0,0.0,0.0,0.0,0.0,0.0,0.0,0.0,0.0,0.0,0.0,0.0,0.0,0.0,0.0,0.0,0.0,0.0,0.0,0.0,0.0,0.0,0.0,0.0,0.0,0.0,0.0,0.0,0.0,0.0,0.0,0.0,0.0,0.0,0.0,0.0,0.0,0.0,0.0,0.0,0.0,0.0,0.0,0.0,0.0,0.0,0.0,0.0,0.0,0.0,0.0,0.0,0.0,0.0,0.0,0.0,0.0,0.0,0.0,0.0,0.0,0.0,0.0,0.0,0.0,0.0,0.0,0.0,0.0,0.0,0.0,0.0,0.0,0.0,0.0,0.0,0.0,0.0,0.0,0.0,0.0,0.0,0.0,0.0,0.0,0.0,0.0,0.0,0.0,0.0,0.0,0.0,0.0,0.0,0.0,0.0,0.0,0.0,0.0,0.0,0.0,0.0,0.0,0.0,0.0,0.0,0.0,0.0,0.0,0.0,0.0,0.0,0.0,0.0,0.0,0.0,0.0,0.0,0.0,0.0,0.0,0.0,0.0,0.0,0.0,0.0,0.0,0.0,0.0,0.0,0.0,0.0,0.0,0.0,0.0,0.0,0.0,0.0,0.0,0.0,0.0,0.0,0.0,0.0,0.0,0.0,0.0,0.0,0.0,0.0,0.0,0.0,0.0,0.0,0.0,0.0,0.0,0.0,0.0,0.0,0.0,0.0,0.0,0.0,0.0,0.0,0.0,0.0,0.0,0.0,0.0,0.0,0.0,0.0,0.0,0.0,0.0,0.0,0.0,0.0,0.0,0.0,0.0,0.0,0.0,-0.9456,0.0,0.0,0.0,0.0,0.0,0.0,0.0,0.0,0.0,0.0,0.0,0.0,0.0,0.0,0.0,0.0,0.0,0.0,0.0,0.0,0.0,0.0,0.0,0.0,0.0,0.0,0.0,0.0,0.0,0.0,0.0,0.0,0.0,0.0,0.0,0.0,0.0,0.0,0.0,0.0,0.0,0.0,0.0,0.0,0.0,0.0,0.0,0.0,0.0,0.0,0.0,0.0,0.0,0.0,0.0,0.0,0.0,0.0,0.0,0.0,0.0,0.0,0.0,0.0,0.0,0.0,0.0,0.0,0.0,0.0,0.0,0.0,0.0,0.0,0.0,0.0,0.0,0.0,0.0,0.0,0.0,0.0,0.0,0.0,0.0,0.0,0.0,0.0,0.0,0.0,0.0,0.0,0.0,0.0,0.0,0.0,0.0,0.0,0.0,0.0,0.0,0.0,0.0,0.0,0.0,0.0,0.0,0.0,0.0,0.0,-0.9795,-0.9136,-1.0596,-1.0689,-0.9237,0.0,0.0,0.0,0.0,0.0,0.0,0.0,0.0,0.0,0.0,0.0,0.0,0.0,0.0,0.0,0.0,0.0,0.0,0.0,0.0,0.0,0.0,0.0,0.0,0.0,0.0,0.0,0.0,0.0,0.0,0.0,0.0,0.0,0.0,0.0,0.0,0.0,0.0,0.0,0.0,0.0,0.0,0.0,0.0,0.0,0.0,0.0,0.0,0.0,0.0,0.0,0.0,0.0,0.0,0.0,0.0,0.0,0.0,0.0,0.0,0.0,0.0,0.0,0.0,0.0,0.0,0.0,0.0,0.0,0.0,0.0,0.0,0.0,0.0,0.0,0.0,0.0,0.0,0.0,0.0,0.0,0.0,0.0,0.0,0.0,0.0,0.0,0.0,0.0,0.0,0.0,0.0,0.0,0.0,0.0,0.0,0.0,0.0,0.0,0.0,0.0,0.0,0.0,0.0,0.0,0.0,0.0,0.0,0.0,0.0,0.0,0.0,-1.0448,-1.0554,-0.9388,0.0,0.0,0.0,0.0,0.0,0.0,0.0,0.0,0.0,0.0,0.0,0.0,0.0,0.0,0.0,0.0,0.0,0.0,0.0,0.0,0.0,0.0,0.0,0.0,0.0,0.0,0.0,0.0,0.0,0.0,0.0,0.0,0.0,0.0,0.0,0.0,0.0,0.0,0.0,0.0,0.0,0.0,0.0,0.0,0.0,0.0,0.0,0.0,0.0,0.0,0.0,0.0,0.0,0.0,0.0,0.0,0.0,0.0,0.0,0.0,0.0,0.0,0.0,0.0,0.0,0.0,0.0,0.0,0.0,0.0,0.0,0.0,0.0,0.0,0.0,0.0,0.0,0.0,0.0,0.0,0.0,0.0,0.0,0.0,0.0,0.0,0.0,0.0,0.0,0.0,0.0,0.0,0.0,0.0,0.0,0.0,0.0,0.0,0.0,0.0,0.0,0.0,0.0,0.0,0.0,0.0,0.0,0.0,0.0,0.0,-0.9343,-0.9895,-1.0122,0.0,-0.9988,0.0,0.0,0.0,0.0,0.0,0.0,0.0,0.0,0.0,0.0,0.0,0.0,0.0,0.0,0.0,0.0,0.0,0.0,0.0,0.0,0.0,0.0,0.0,0.0,0.0,0.0,0.0,0.0,0.0,0.0,0.0,0.0,0.0,0.0,0.0,0.0,0.0,0.0,0.0,0.0,0.0,0.0,0.0,0.0,0.0,0.0,0.0,0.0,0.0,0.0,0.0,0.0,0.0,0.0,0.0,0.0,0.0,0.0,0.0,0.0,0.0,0.0,0.0,0.0,0.0,0.0,0.0,0.0,0.0,0.0,0.0,0.0,0.0,0.0,0.0,0.0,0.0,0.0,0.0,0.0,0.0,0.0,0.0,0.0,0.0,0.0,0.0,0.0,0.0,0.0,0.0,0.0,0.0,0.0,0.0,0.0,0.0,0.0,0.0,0.0,0.0,0.0,0.0,0.0,0.0,0.0,0.0,0.0,0.0,0.0,-0.9281,-0.9992,-1.0068,-0.9884,0.0,0.0,0.0,0.0,0.0,0.0,0.0,0.0,0.0,0.0,0.0,0.0,0.0,0.0,0.0,0.0,0.0,0.0,0.0,0.0,0.0,0.0,0.0,0.0,0.0,0.0,0.0,0.0,0.0,0.0,0.0,0.0,0.0,0.0,0.0,0.0,0.0,0.0,0.0,0.0,0.0,0.0,0.0,0.0,0.0,0.0,0.0,0.0,0.0,0.0,0.0,0.0,0.0,0.0,0.0,0.0,0.0,0.0,0.0,0.0,0.0,0.0,0.0,0.0,0.0,0.0,0.0,0.0,0.0,0.0,0.0,0.0,0.0,0.0,0.0,0.0,0.0,0.0,0.0,0.0,0.0,0.0,0.0,0.0,0.0,0.0,0.0,0.0,0.0,0.0,0.0,0.0,0.0,0.0,0.0,0.0,0.0,0.0,0.0,0.0,0.0,0.0,0.0,0.0,0.0,0.0,0.0,0.0,0.0,0.0,-0.9083,-0.9496,-1.0175,-0.9933,-0.9598,-0.9264,0.0,0.0,0.0,0.0,0.0,0.0,0.0,0.0,0.0,0.0,0.0,0.0,0.0,0.0,0.0,0.0,0.0,0.0,0.0,0.0,0.0,0.0,0.0,0.0,0.0,0.0,0.0,0.0,0.0,0.0,0.0,0.0,0.0,0.0,0.0,0.0,0.0,0.0,0.0,0.0,0.0,0.0,0.0,0.0,0.0,0.0,0.0,0.0,0.0,0.0,0.0,0.0,0.0,0.0,0.0,0.0,0.0,0.0,0.0,0.0,0.0,0.0,0.0,0.0,0.0,0.0,0.0,0.0,0.0,0.0,0.0,0.0,0.0,0.0,0.0,0.0,0.0,0.0,0.0,0.0,0.0,0.0,0.0,0.0,0.0,0.0,0.0,0.0,0.0,0.0,0.0,0.0,0.0,0.0,0.0,0.0,0.0,0.0,0.0,0.0,0.0,0.0,0.0,0.0,0.0,0.0,0.0,0.0,-0.9607,-0.9642,-1.004,-1.0758,-0.9635,-0.9234,0.0,0.0,0.0,0.0,0.0,0.0,0.0,0.0,0.0,0.0,0.0,0.0,0.0,0.0,0.0,0.0,0.0,0.0,0.0,0.0,0.0,0.0,0.0,0.0,0.0,0.0,0.0,0.0,0.0,0.0,0.0,0.0,0.0,0.0,0.0,0.0,0.0,0.0,0.0,0.0,0.0,0.0,0.0,0.0,0.0,0.0,0.0,0.0,0.0,0.0,0.0,0.0,0.0,0.0,0.0,0.0,0.0,0.0,0.0,0.0,0.0,0.0,0.0,0.0,0.0,0.0,0.0,0.0,0.0,0.0,0.0,0.0,0.0,0.0,0.0,0.0,0.0,0.0,0.0,0.0,0.0,0.0,0.0,0.0,0.0,0.0,0.0,0.0,0.0,0.0,0.0,0.0,0.0,0.0,0.0,0.0,0.0,0.0,0.0,0.0,0.0,0.0,0.0,0.0,0.0,0.0,0.0,0.0,0.0,-0.8858,-0.9408,-0.963,-0.95,-0.9476,-0.9384,0.0,0.0,0.0,0.0,0.0,0.0,0.0,0.0,0.0,0.0,0.0,0.0,0.0,0.0,0.0,0.0,0.0,0.0,0.0,0.0,0.0,0.0,0.0,0.0,0.0,0.0,0.0,0.0,0.0,0.0,0.0,0.0,0.0,0.0,0.0,0.0,0.0,0.0,0.0,0.0,0.0,0.0,0.0,0.0,0.0,0.0,0.0,0.0,0.0,0.0,0.0,0.0,0.0,0.0,0.0,0.0,0.0,0.0,0.0,0.0,0.0,0.0,0.0,0.0,0.0,0.0,0.0,0.0,0.0,0.0,0.0,0.0,0.0,0.0,0.0,0.0,0.0,0.0,0.0,0.0,0.0,0.0,0.0,0.0,0.0,0.0,0.0,0.0,0.0,0.0,0.0,0.0,0.0,0.0,0.0,0.0,0.0,0.0,0.0,0.0,0.0,0.0,0.0,0.0,0.0,0.0,0.0,0.0,0.0,-0.9007,0.0,-0.952,-0.9343,-0.9603,-0.9461,0.0,0.0,0.0,0.0,0.0,0.0,0.0,0.0,0.0,0.0,0.0,0.0,0.0,0.0,0.0,0.0,0.0,0.0,0.0,0.0,0.0,0.0,0.0,0.0,0.0,0.0,0.0,0.0,0.0,0.0,0.0,0.0,0.0,0.0,0.0,0.0,0.0,0.0,0.0,0.0,0.0,0.0,0.0,0.0,0.0,0.0,0.0,0.0,0.0,0.0,0.0,0.0,0.0,0.0,0.0,0.0,0.0,0.0,0.0,0.0,0.0,0.0,0.0,0.0,0.0,0.0,0.0,0.0,0.0,0.0,0.0,0.0,0.0,0.0,0.0,0.0,0.0,0.0,0.0,0.0,0.0,0.0,0.0,0.0,0.0,0.0,0.0,0.0,0.0,0.0,0.0,0.0,0.0,0.0,0.0,0.0,0.0,0.0,0.0,0.0,0.0,0.0,0.0,0.0,0.0,0.0,0.0,0.0,-0.8682,-1.0156,-0.9779,-0.9852,-1.0542,-0.9987,-0.9349,0.0,0.0,0.0,0.0,0.0,0.0,0.0,0.0,0.0,0.0,0.0,0.0,0.0,0.0,0.0,0.0,0.0,0.0,0.0,0.0,0.0,0.0,0.0,0.0,0.0,0.0,0.0,0.0,0.0,0.0,0.0,0.0,0.0,0.0,0.0,0.0,0.0,0.0,0.0,0.0,0.0,0.0,0.0,0.0,0.0,0.0,0.0,0.0,0.0,0.0,0.0,0.0,0.0,0.0,0.0,0.0,0.0,0.0,0.0,0.0,0.0,0.0,0.0,0.0,0.0,0.0,0.0,0.0,0.0,0.0,0.0,0.0,0.0,0.0,0.0,0.0,0.0,0.0,0.0,0.0,0.0,0.0,0.0,0.0,0.0,0.0,0.0,0.0,0.0,0.0,0.0,0.0,0.0,0.0,0.0,0.0,0.0,0.0,0.0,0.0,0.0,0.0,0.0,0.0,0.0,0.0,0.0,0.0,0.0,-0.9337,-0.9715,-1.0063,-1.0366,-0.9763,-0.9345,0.0,0.0,0.0,0.0,0.0,0.0,0.0,0.0,0.0,0.0,0.0,0.0,0.0,0.0,0.0,0.0,0.0,0.0,0.0,0.0,0.0,0.0,0.0,0.0,0.0,0.0,0.0,0.0,0.0,0.0,0.0,0.0,0.0,0.0,0.0,0.0,0.0,0.0,0.0,0.0,0.0,0.0,0.0,0.0,0.0,0.0,0.0,0.0,0.0,0.0,0.0,0.0,0.0,0.0,0.0,0.0,0.0,0.0,0.0,0.0,0.0,0.0,0.0,0.0,0.0,0.0,0.0,0.0,0.0,0.0,0.0,0.0,0.0,0.0,0.0,0.0,0.0,0.0,0.0,0.0,0.0,0.0,0.0,0.0,0.0,0.0,0.0,0.0,0.0,0.0,0.0,0.0,0.0,0.0,0.0,0.0,0.0,0.0,0.0,0.0,0.0,0.0,0.0,0.0,0.0,0.0,0.0,0.0,0.0,-1.0479,-1.1127,-1.1414,-1.132,-1.0893,-1.034,-0.9687,0.0,0.0,0.0,0.0,0.0,0.0,0.0,0.0,0.0,0.0,0.0,0.0,0.0,0.0,0.0,0.0,0.0,0.0,0.0,0.0,0.0,0.0,0.0,0.0,0.0,0.0,0.0,0.0,0.0,0.0,0.0,0.0,0.0,0.0,0.0,0.0,0.0,0.0,0.0,0.0,0.0,0.0,0.0,0.0,0.0,0.0,0.0,0.0,0.0,0.0,0.0,0.0,0.0,0.0,0.0,0.0,0.0,0.0,0.0,0.0,0.0,0.0,0.0,0.0,0.0,0.0,0.0,0.0,0.0,0.0,0.0,0.0,0.0,0.0,0.0,0.0,0.0,0.0,0.0,0.0,0.0,0.0,0.0,0.0,0.0,0.0,0.0,0.0,0.0,0.0,0.0,0.0,0.0,0.0,0.0,0.0,0.0,0.0,0.0,0.0,0.0,0.0,0.0,0.0,0.0,0.0,0.0,0.0,-1.3216,-1.3774,-1.373,-1.3091,-1.2985,-1.2085,0.0,0.0,0.0,0.0,0.0,0.0,0.0,0.0,0.0,0.0,0.0,0.0,0.0,0.0,0.0,0.0,0.0,0.0,0.0,0.0,0.0,0.0,0.0,0.0,0.0,0.0,0.0,0.0,0.0,0.0,0.0,0.0,0.0,0.0,0.0,0.0,0.0,0.0,0.0,0.0,0.0,0.0,0.0,0.0,0.0,0.0,0.0,0.0,0.0,0.0,0.0,0.0,0.0,0.0,0.0,0.0,0.0,0.0,0.0,0.0,0.0,0.0,0.0,0.0,0.0,0.0,0.0,0.0,0.0,0.0,0.0,0.0,0.0,0.0,0.0,0.0,0.0,0.0,0.0,0.0,0.0,0.0,0.0,0.0,0.0,0.0,0.0,0.0,0.0,0.0,0.0,0.0,0.0,0.0,0.0,0.0,0.0,0.0,0.0,0.0,0.0,0.0,0.0,0.0,0.0,0.0,0.0,0.0,0.0,-1.5029,-1.6207,-1.5954,-1.4107,-1.3164,-1.2052,0.0,0.0,0.0,0.0,0.0,0.0,0.0,0.0,0.0,0.0,0.0,0.0,0.0,0.0,0.0,0.0,0.0,0.0,0.0,0.0,0.0,0.0,0.0,0.0,0.0,0.0,0.0,0.0,0.0,0.0,0.0,0.0,0.0,0.0,0.0,0.0,0.0,0.0,0.0,0.0,0.0,0.0,0.0,0.0,0.0,0.0,0.0,0.0,0.0,0.0,0.0,0.0,0.0,0.0,0.0,0.0,0.0,0.0,0.0,0.0,0.0,0.0,0.0,0.0,0.0,0.0,0.0,0.0,0.0,0.0,0.0,0.0,0.0,0.0,0.0,0.0,0.0,0.0,0.0,0.0,0.0,0.0,0.0,0.0,0.0,0.0,0.0,0.0,0.0,0.0,0.0,0.0,0.0,0.0,0.0,0.0,0.0,0.0,0.0,0.0,0.0,0.0,0.0,0.0,0.0,0.0,0.0,0.0,-1.4296,-1.6397,-1.7319,-1.7228,-1.6117,-1.4805,-1.3304,0.0,0.0,0.0,0.0,0.0,0.0,0.0,0.0,0.0,0.0,0.0,0.0,0.0,0.0,0.0,0.0,0.0,0.0,0.0,0.0,0.0,0.0,0.0,0.0,0.0,0.0,0.0,0.0,0.0,0.0,0.0,0.0,0.0,0.0,0.0,0.0,0.0,0.0,0.0,0.0,0.0,0.0,0.0,0.0,0.0,0.0,0.0,0.0,0.0,0.0,0.0,0.0,0.0,0.0,0.0,0.0,0.0,0.0,0.0,0.0,0.0,0.0,0.0,0.0,0.0,0.0,0.0,0.0,0.0,0.0,0.0,0.0,0.0,0.0,0.0,0.0,0.0,0.0,0.0,0.0,0.0,0.0,0.0,0.0,0.0,0.0,0.0,0.0,0.0,0.0,0.0,0.0,0.0,0.0,0.0,0.0,0.0,0.0,0.0,0.0,0.0,0.0,0.0,0.0,0.0,0.0,0.0,0.0,-1.4897,-1.7332,-1.7539,-1.7903,-1.8352,-1.6941,-1.5022,0.0,0.0,0.0,0.0,0.0,0.0,0.0,0.0,0.0,0.0,0.0,0.0,0.0,0.0,0.0,0.0,0.0,0.0,0.0,0.0,0.0,0.0,0.0,0.0,0.0,0.0,0.0,0.0,0.0,0.0,0.0,0.0,0.0,0.0,0.0,0.0,0.0,0.0,0.0,0.0,0.0,0.0,0.0,0.0,0.0,0.0,0.0,0.0,0.0,0.0,0.0,0.0,0.0,0.0,0.0,0.0,0.0,0.0,0.0,0.0,0.0,0.0,0.0,0.0,0.0,0.0,0.0,0.0,0.0,0.0,0.0,0.0,0.0,0.0,0.0,0.0,0.0,0.0,0.0,0.0,0.0,0.0,0.0,0.0,0.0,0.0,0.0,0.0,0.0,0.0,0.0,0.0,0.0,0.0,0.0,0.0,0.0,0.0,0.0,0.0,0.0,0.0,0.0,0.0,0.0,0.0,0.0,0.0,-1.5414,-1.7926,-1.7942,-1.8076,-1.845,-1.69,-1.5088,0.0,0.0,0.0,0.0,0.0,0.0,0.0,0.0,0.0,0.0,0.0,0.0,0.0,0.0,0.0,0.0,0.0,0.0,0.0,0.0,0.0,0.0,0.0,0.0,0.0,0.0,0.0,0.0,0.0,0.0,0.0,0.0,0.0,0.0,0.0,0.0,0.0,0.0,0.0,0.0,0.0,0.0,0.0,0.0,0.0,0.0,0.0,0.0,-0.181,0.0,0.0,0.0,0.0,0.0,0.0,0.0,0.0,0.0,0.0,0.0,0.0,0.0,0.0,0.0,0.0,0.0,0.0,0.0,0.0,0.0,0.0,0.0,0.0,0.0,0.0,0.0,0.0,0.0,0.0,0.0,0.0,0.0,0.0,0.0,0.0,0.0,0.0,0.0,0.0,0.0,0.0,0.0,0.0,0.0,0.0,0.0,0.0,0.0,0.0,0.0,0.0,0.0,0.0,0.0,0.0,0.0,0.0,0.0,-1.5425,-1.7341,-1.7625,-1.7855,-1.8028,-1.6828,-1.5304,0.0,0.0,0.0,0.0,0.0,0.0,0.0,0.0,0.0,0.0,0.0,0.0,0.0,0.0,0.0,0.0,0.0,0.0,0.0,0.0,0.0,0.0,0.0,0.0,0.0,0.0,0.0,0.0,0.0,0.0,0.0,0.0,0.0,0.0,0.0,0.0,0.0,0.0,0.0,0.0,0.0,0.0,0.0,0.0,0.0,0.0,0.0,0.0,0.0,0.0,0.0,0.0,0.0,0.0,0.0,0.0,0.0,0.0,0.0,0.0,0.0,0.0,0.0,0.0,0.0,0.0,0.0,0.0,0.0,0.0,0.0,0.0,0.0,0.0,0.0,0.0,0.0,0.0,0.0,0.0,0.0,0.0,0.0,0.0,0.0,0.0,0.0,0.0,0.0,0.0,0.0,0.0,0.0,0.0,0.0,0.0,0.0,0.0,0.0,0.0,0.0,0.0,0.0,0.0,0.0,0.0,0.0,-1.3822,-1.5131,-1.6415,-1.7102,-1.7407,-1.741,-1.661,-1.5414,-1.3819,0.0,0.0,0.0,0.0,0.0,0.0,0.0,0.0,0.0,0.0,0.0,0.0,0.0,0.0,0.0,0.0,0.0,0.0,0.0,0.0,0.0,0.0,0.0,0.0,0.0,0.0,0.0,0.0,0.0,0.0,0.0,0.0,0.0,0.0,0.0,0.0,0.0,0.0,-0.2407,-0.2363,0.0,0.0,0.0,0.0,0.0,0.0,0.0,0.0,-0.1419,0.0,0.0,0.0,0.0,0.0,0.0,0.0,0.0,0.0,0.0,0.0,0.0,0.0,0.0,0.0,0.0,0.0,0.0,0.0,0.0,0.0,0.0,0.0,0.0,0.0,0.0,0.0,0.0,0.0,0.0,0.0,0.0,0.0,0.0,0.0,0.0,0.0,0.0,0.0,0.0,0.0,0.0,0.0,0.0,0.0,0.0,0.0,0.0,0.0,0.0,0.0,0.0,0.0,0.0,0.0,0.0,-1.2747,-1.3382,-1.4511,-1.6191,-1.6747,-1.6853,-1.6573,-1.603,-1.4924,-1.3218,0.0,0.0,0.0,0.0,0.0,0.0,0.0,0.0,0.0,0.0,0.0,0.0,0.0,0.0,0.0,0.0,0.0,0.0,0.0,0.0,0.0,0.0,0.0,0.0,0.0,0.0,0.0,0.0,0.0,0.0,0.0,0.0,0.0,0.0,0.0,0.0,0.0,0.0,0.0,-0.2617,-0.2432,0.0,0.0,0.0,0.0,0.0,0.0,0.0,0.0,-0.1446,0.0,0.0,0.0,0.0,0.0,0.0,0.0,0.0,0.0,0.0,0.0,0.0,0.0,0.0,0.0,0.0,0.0,0.0,0.0,0.0,0.0,0.0,0.0,0.0,0.0,0.0,0.0,0.0,0.0,0.0,0.0,0.0,0.0,0.0,0.0,0.0,0.0,0.0,0.0,0.0,0.0,0.0,0.0,0.0,0.0,0.0,0.0,0.0,0.0,0.0,0.0,0.0,0.0,0.0,0.0,-1.2224,-1.3462,-1.455,-1.5424,-1.6233,-1.6439,-1.5949,-1.5235,-1.4033,0.0,0.0,0.0,0.0,0.0,0.0,0.0,0.0,0.0,0.0,0.0,0.0,0.0,0.0,0.0,0.0,0.0,0.0,0.0,0.0,0.0,0.0,0.0,0.0,0.0,0.0,0.0,0.0,0.0,0.0,0.0,0.0,0.0,0.0,0.0,0.0,0.0,0.0,0.0,0.0,-0.2641,-0.2584,-0.2482,0.0,0.0,0.0,0.0,0.0,0.0,-0.1623,-0.152,0.0,0.0,0.0,0.0,0.0,0.0,0.0,0.0,0.0,0.0,0.0,0.0,0.0,0.0,0.0,0.0,0.0,0.0,0.0,0.0,0.0,0.0,0.0,0.0,0.0,0.0,0.0,0.0,0.0,0.0,0.0,0.0,0.0,0.0,0.0,0.0,0.0,0.0,0.0,0.0,0.0,0.0,0.0,0.0,0.0,0.0,0.0,0.0,0.0,0.0,0.0,0.0,0.0,0.0,0.0,-1.1709,-1.353,-1.4555,-1.4802,-1.5756,-1.5996,-1.5311,-1.4525,-1.3207,0.0,0.0,0.0,0.0,0.0,0.0,0.0,0.0,0.0,0.0,0.0,0.0,0.0,0.0,0.0,0.0,0.0,0.0,0.0,0.0,0.0,0.0,0.0,0.0,0.0,0.0,0.0,0.0,0.0,0.0,0.0,0.0,0.0,0.0,0.0,0.0,0.0,0.0,0.0,0.0,0.0,-0.2679,-0.2529,-0.2514,0.0,0.0,0.0,0.0,-0.2019,-0.1819,0.0,0.0,0.0,0.0,0.0,0.0,0.0,0.0,0.0,0.0,0.0,0.0,0.0,0.0,0.0,0.0,0.0,0.0,0.0,0.0,0.0,0.0,0.0,0.0,0.0,0.0,0.0,0.0,0.0,0.0,0.0,0.0,0.0,0.0,0.0,0.0,0.0,0.0,0.0,0.0,0.0,0.0,0.0,0.0,0.0,0.0,0.0,0.0,0.0,0.0,0.0,0.0,0.0,0.0,0.0,0.0,-1.1805,-1.3083,-1.4126,-1.4923,-1.5697,-1.5569,-1.4557,-1.4011,-1.2758,0.0,0.0,0.0,0.0,0.0,0.0,0.0,0.0,0.0,0.0,0.0,0.0,0.0,0.0,0.0,0.0,0.0,0.0,0.0,0.0,0.0,0.0,0.0,0.0,0.0,0.0,0.0,0.0,0.0,0.0,0.0,0.0,0.0,0.0,0.0,0.0,0.0,0.0,0.0,0.0,0.0,-0.2802,-0.2605,-0.254,-0.2466,0.0,0.0,-0.231,-0.2481,-0.2368,0.0,0.0,0.0,0.0,0.0,0.0,0.0,0.0,0.0,0.0,0.0,0.0,0.0,0.0,0.0,0.0,0.0,0.0,0.0,0.0,0.0,0.0,0.0,0.0,0.0,0.0,0.0,0.0,0.0,0.0,0.0,0.0,0.0,0.0,0.0,0.0,0.0,0.0,0.0,0.0,0.0,0.0,0.0,0.0,0.0,0.0,0.0,0.0,0.0,0.0,0.0,0.0,0.0,0.0,0.0,-1.1017,-1.1714,-1.3141,-1.4205,-1.482,-1.5473,-1.542,-1.4583,-1.3562,-1.2123,0.0,0.0,0.0,0.0,0.0,0.0,0.0,0.0,0.0,0.0,0.0,0.0,0.0,0.0,0.0,0.0,0.0,0.0,0.0,0.0,0.0,0.0,0.0,0.0,0.0,0.0,0.0,0.0,0.0,0.0,0.0,0.0,0.0,0.0,0.0,0.0,0.0,0.0,0.0,0.0,0.0,0.0,-0.2991,-0.2985,0.0,0.0,0.0,-0.2598,-0.2452,0.0,0.0,0.0,0.0,0.0,0.0,0.0,0.0,0.0,0.0,0.0,0.0,0.0,0.0,0.0,0.0,0.0,0.0,0.0,0.0,0.0,0.0,0.0,0.0,0.0,0.0,0.0,0.0,0.0,0.0,0.0,0.0,0.0,0.0,0.0,0.0,0.0,0.0,0.0,0.0,0.0,0.0,0.0,0.0,0.0,0.0,0.0,0.0,0.0,0.0,0.0,0.0,0.0,0.0,0.0,0.0,0.0,-1.1779,-1.338,-1.4458,-1.4924,-1.5413,-1.5306,-1.4558,-1.3167,0.0,0.0,0.0,0.0,0.0,0.0,0.0,0.0,0.0,0.0,0.0,0.0,0.0,0.0,0.0,0.0,0.0,0.0,0.0,0.0,0.0,0.0,0.0,0.0,0.0,0.0,0.0,-0.4143,0.0,0.0,0.0,0.0,0.0,0.0,0.0,0.0,0.0,0.0,0.0,0.0,0.0,0.0,-0.327,-0.3356,-0.3334,-0.3266,0.0,0.0,-0.2816,-0.2566,-0.2492,-0.2399,0.0,0.0,0.0,0.0,0.0,0.0,0.0,0.0,0.0,0.0,0.0,0.0,0.0,0.0,0.0,0.0,0.0,0.0,0.0,0.0,0.0,0.0,0.0,0.0,0.0,0.0,0.0,0.0,0.0,0.0,0.0,0.0,0.0,0.0,0.0,0.0,0.0,0.0,0.0,0.0,0.0,0.0,0.0,0.0,0.0,0.0,0.0,0.0,0.0,0.0,0.0,0.0,0.0,0.0,-1.1652,-1.2294,-1.3726,-1.4838,-1.5588,-1.5546,-1.5085,-1.4185,-1.3016,-1.1648,0.0,0.0,0.0,0.0,0.0,0.0,0.0,0.0,0.0,0.0,0.0,0.0,0.0,0.0,0.0,0.0,0.0,0.0,0.0,0.0,0.0,0.0,0.0,0.0,0.0,0.0,0.0,0.0,0.0,0.0,0.0,0.0,0.0,0.0,0.0,0.0,0.0,0.0,0.0,0.0,0.0,-0.343,-0.3574,-0.3466,-0.3517,0.0,-0.3366,-0.3005,-0.3126,-0.2771,-0.2409,-0.2154,0.0,0.0,0.0,0.0,0.0,0.0,0.0,0.0,0.0,0.0,0.0,0.0,0.0,0.0,0.0,0.0,0.0,0.0,0.0,0.0,0.0,0.0,0.0,0.0,0.0,0.0,0.0,0.0,0.0,0.0,0.0,0.0,0.0,0.0,0.0,0.0,0.0,0.0,0.0,0.0,0.0,0.0,0.0,0.0,0.0,0.0,0.0,0.0,0.0,0.0,0.0,0.0,0.0,-1.1885,-1.2721,-1.407,-1.5006,-1.5546,-1.5513,-1.4987,-1.3923,-1.2794,-1.1467,0.0,0.0,0.0,0.0,0.0,0.0,0.0,0.0,0.0,0.0,0.0,0.0,0.0,0.0,0.0,0.0,0.0,0.0,0.0,0.0,0.0,0.0,0.0,0.0,0.0,0.0,0.0,0.0,-0.3181,-0.291,-0.2611,0.0,0.0,0.0,0.0,0.0,0.0,0.0,0.0,0.0,0.0,-0.3716,-0.3736,-0.3741,0.0,0.0,-0.329,-0.3019,-0.2911,-0.2582,-0.2286,-0.2028,-0.1822,0.0,0.0,0.0,0.0,0.0,0.0,0.0,0.0,0.0,0.0,0.0,0.0,0.0,0.0,0.0,0.0,0.0,0.0,0.0,0.0,0.0,0.0,0.0,0.0,0.0,0.0,0.0,0.0,0.0,0.0,0.0,0.0,0.0,0.0,0.0,0.0,0.0,0.0,0.0,0.0,0.0,0.0,0.0,0.0,0.0,0.0,0.0,0.0,0.0,0.0,0.0,0.0,-1.2176,-1.305,-1.4493,-1.5357,-1.557,-1.5588,-1.5008,-1.3854,-1.2842,-1.1595,0.0,0.0,0.0,0.0,0.0,0.0,0.0,0.0,0.0,0.0,0.0,0.0,0.0,0.0,0.0,0.0,0.0,0.0,0.0,0.0,0.0,0.0,0.0,0.0,0.0,0.0,0.0,0.0,-0.329,-0.3015,-0.2685,0.0,0.0,0.0,0.0,0.0,0.0,0.0,0.0,0.0,0.0,-0.3802,-0.3852,-0.387,-0.3745,-0.3428,-0.3184,-0.2958,-0.2664,-0.2414,-0.2111,-0.1768,0.0,0.0,0.0,0.0,0.0,0.0,0.0,0.0,0.0,0.0,0.0,0.0,0.0,0.0,0.0,0.0,0.0,0.0,0.0,0.0,0.0,0.0,0.0,0.0,0.0,0.0,0.0,0.0,0.0,0.0,-1.4433,0.0,0.0,0.0,0.0,0.0,0.0,0.0,0.0,0.0,0.0,0.0,0.0,0.0,0.0,0.0,0.0,0.0,0.0,0.0,0.0,0.0,0.0,-1.2587,-1.3215,-1.5087,-1.5974,-1.5718,-1.5812,-1.5199,-1.3848,-1.32,-1.2135,-1.0544,0.0,0.0,0.0,0.0,0.0,0.0,0.0,0.0,0.0,0.0,0.0,0.0,0.0,0.0,0.0,0.0,0.0,0.0,0.0,0.0,0.0,0.0,0.0,0.0,0.0,0.0,-0.3879,-0.3628,-0.3356,0.0,0.0,0.0,0.0,0.0,0.0,0.0,0.0,0.0,0.0,-0.3654,-0.3614,-0.3926,-0.3655,-0.3436,-0.3385,-0.3123,-0.276,-0.2462,-0.2189,-0.1858,0.0,0.0,0.0,0.0,0.0,0.0,0.0,0.0,0.0,0.0,0.0,0.0,0.0,0.0,0.0,0.0,0.0,0.0,0.0,0.0,0.0,0.0,0.0,0.0,0.0,0.0,0.0,-1.6661,-1.637,0.0,0.0,0.0,0.0,0.0,0.0,0.0,0.0,0.0,0.0,0.0,-1.7479,-1.7691,0.0,0.0,0.0,0.0,0.0,0.0,0.0,0.0,0.0,0.0,0.0,0.0,-1.2988,-1.4082,-1.5527,-1.6209,-1.6055,-1.6033,-1.5452,-1.4301,-1.3656,-1.2526,-1.0968,0.0,0.0,0.0,0.0,0.0,0.0,0.0,0.0,0.0,0.0,0.0,0.0,0.0,0.0,0.0,0.0,0.0,0.0,0.0,0.0,0.0,0.0,0.0,0.0,0.0,-0.4051,0.0,0.0,0.0,0.0,0.0,0.0,0.0,0.0,0.0,0.0,0.0,-0.3679,-0.3658,-0.3642,-0.3613,-0.3437,-0.3415,-0.3314,0.0,0.0,0.0,0.0,0.0,0.0,0.0,0.0,0.0,0.0,0.0,0.0,0.0,0.0,0.0156,0.0242,0.0578,0.0829,0.0889,0.0,0.0,0.0,0.0,0.0,0.0,0.0,0.0,0.0,0.0,0.0,0.0,0.0,0.0,-1.8313,0.0,-1.7239,0.0,0.0,0.0,0.0,0.0,0.0,0.0,0.0,-1.7984,-1.877,-1.8961,-1.9154,-1.8613,0.0,-1.7112,-1.616,0.0,0.0,0.0,0.0,0.0,0.0,0.0,0.0,-1.3184,-1.4754,-1.5939,-1.6421,-1.6173,-1.6241,-1.5707,-1.4525,-1.3655,-1.2764,-1.1797,-1.0895,-1.0256,0.0,0.0,0.0,0.0,0.0,0.0,0.0,0.0,0.0,0.0,0.0,0.0,0.0,0.0,0.0,0.0,0.0,0.0,0.0,0.0,0.0,0.0,0.0,-0.4046,0.0,0.0,0.0,0.0,0.0,0.0,0.0,0.0,0.0,-0.3791,-0.3686,-0.3586,-0.3538,-0.3454,-0.3305,-0.3074,0.0,0.0,0.0,0.0,0.0,0.0,0.0,-0.137,-0.137,-0.121,-0.1103,-0.1045,-0.1045,-0.0929,-0.0639,0.0,0.0,-0.0,0.027,0.0598,0.0815,0.0815,0.0815,0.087,0.0761,0.0706,0.0,0.0,0.0,0.0,0.0,0.0,0.0,0.0,-2.0863,-2.0623,0.0,-1.9481,0.0,0.0,0.0,0.0,0.0,-1.6227,0.0,0.0,-1.9654,-2.037,-2.0311,-2.0062,-1.9665,-1.9127,-1.8626,-1.8106,-1.7601,-1.5139,0.0,0.0,0.0,0.0,0.0,0.0,-1.322,-1.5267,-1.6346,-1.6625,-1.6172,-1.6431,-1.5911,-1.4465,-1.3374,-1.2849,-1.2985,-1.1915,-1.1331,-1.1399,-0.9826,0.0,0.0,0.0,0.0,0.0,0.0,0.0,0.0,0.0,0.0,0.0,0.0,0.0,0.0,0.0,0.0,0.0,0.0,0.0,0.0,-0.3929,0.0,0.0,0.0,0.0,0.0,0.0,0.0,0.0,0.0,0.0,-0.3776,-0.3586,-0.3532,-0.358,0.0,0.0,0.0,0.0,-0.2188,-0.202,-0.1912,-0.1804,-0.1804,-0.1564,-0.1417,-0.1419,0.0,0.0,-0.099,-0.0991,-0.0991,-0.0991,-0.0496,-0.0,-0.0,-0.0,0.0184,0.0737,0.0857,0.0924,0.0986,0.0731,0.055,-2.4879,0.0,0.0,0.0,0.0,-2.1746,-2.2295,-2.3114,-2.2636,-2.2188,-2.1717,-2.0936,0.0,0.0,0.0,0.0,0.0,0.0,-1.9421,-2.0387,-2.1229,-2.1988,-2.2616,-2.2247,-2.1465,-2.0227,-1.9808,-1.8945,-1.7798,-1.691,-1.6021,-1.5012,0.0,0.0,0.0,0.0,-1.4685,-1.5823,-1.6956,-1.735,-1.7046,-1.6738,-1.6084,-1.4936,-1.425,-1.3895,-1.3842,-1.3254,-1.2701,-1.2174,-1.1313,0.0,0.0,0.0,0.0,0.0,0.0,0.0,0.0,0.0,0.0,0.0,0.0,0.0,0.0,0.0,0.0,0.0,0.0,0.0,-0.4294,-0.3835,-0.3732,0.0,0.0,0.0,0.0,0.0,0.0,0.0,0.0,0.0,-0.392,-0.3732,-0.343,0.0,0.0,-0.2771,-0.2627,-0.2571,-0.238,-0.2089,-0.2012,0.0,-0.1741,-0.1514,-0.1351,-0.1316,-0.1224,-0.1116,-0.1051,-0.105,-0.1051,-0.1052,-0.0921,-0.0721,-0.039,-0.0189,0.0062,0.0247,0.0432,0.0617,0.0864,0.0864,0.0865,-2.8135,-2.6318,-2.4288,-2.3543,-2.3789,-2.4527,-2.497,-2.5169,-2.5028,-2.4304,-2.3196,-2.2461,-2.124,-1.9645,-1.9493,0.0,0.0,0.0,-2.1237,-2.2108,-2.2538,-2.3061,-2.3575,-2.3162,-2.2431,-2.1355,-2.0912,-2.0137,-1.9025,-1.8675,-1.7991,-1.6979,0.0,0.0,-1.5207,-1.5683,-1.6149,-1.6599,-1.7275,-1.7577,-1.7369,-1.6692,-1.6049,-1.5441,-1.4936,-1.4628,-1.4484,-1.4039,-1.3599,-1.3018,-1.1987,-1.1093,0.0,0.0,0.0,0.0,0.0,0.0,0.0,0.0,0.0,0.0,0.0,-0.6251,-0.6635,0.0,0.0,0.0,-0.458,-0.4368,-0.4207,-0.3881,0.0,0.0,0.0,0.0,0.0,0.0,0.0,-0.4709,-0.4502,-0.4239,-0.3853,-0.365,-0.3419,-0.2943,-0.28,-0.2687,-0.2457,0.0,-0.2339,-0.2096,-0.1948,-0.1856,-0.1753,-0.1507,-0.1269,-0.1239,-0.1129,-0.1075,-0.1076,-0.1076,-0.1076,-0.1078,-0.1078,-0.1012,-0.0742,-0.059,-0.032,-0.0064,0.0128,0.032,0.0512,0.0832,0.1088,-3.1105,-3.0878,-2.8288,-2.6766,-2.6193,-2.7975,-2.8072,-2.6985,-2.7668,-2.6691,-2.4594,-2.4122,-2.2589,-2.0356,-2.0126,0.0,-2.1645,-2.2207,-2.2738,-2.3266,-2.371,-2.3885,-2.3754,-2.3324,-2.287,-2.2413,-2.1822,-2.1362,-2.0925,-2.0249,-1.96,-1.9095,-1.7787,-1.7069,-1.6973,-1.7276,-1.7388,-1.7404,-1.7399,-1.7433,-1.7358,-1.6463,-1.5946,-1.5889,-1.5383,-1.4983,-1.4835,-1.4428,-1.4071,-1.3652,-1.2141,-1.101,-1.0505,0.0,0.0,0.0,0.0,0.0,0.0,0.0,0.0,0.0,0.0,0.0,0.0,0.0,0.0,0.0,-0.463,0.0,-0.4005,-0.4098,0.0,0.0,0.0,-0.5173,-0.5111,-0.5307,-0.5278,-0.4874,0.0,0.0,-0.3643,-0.3511,-0.3379,-0.2949,-0.2727,-0.2539,-0.2361,-0.2305,-0.2166,-0.2041,-0.186,-0.1756,-0.1803,-0.1552,-0.1303,-0.1135,-0.1076,-0.1076,-0.1076,-0.1076,-0.1076,-0.1076,-0.108,-0.1083,-0.1082,-0.1084,-0.0882,-0.0203,-0.0067,-0.0,0.0067,0.0537,0.1005,-3.2736,-3.2514,-3.185,-3.083,-2.9669,-3.0019,-3.0266,-3.027,-2.9092,-2.8015,-2.7054,-2.5633,-2.4405,-2.3402,-2.315,-2.3223,-2.347,-2.3904,-2.4269,-2.4573,-2.4952,-2.5135,-2.5053,-2.4292,-2.3602,-2.2873,-2.2236,-2.1564,-2.0885,-2.0523,-2.0358,-2.0201,-1.9473,-1.8283,-1.6788,-1.7147,-1.7361,-1.722,-1.7545,-1.7589,-1.741,-1.6885,-1.6388,-1.5925,-1.5383,-1.4834,-1.4305,-1.435,-1.4045,-1.3418,-1.2424,-1.1686,-1.1242,-0.9874,0.0,0.0,0.0,0.0,0.0,0.0,0.0,0.0,0.0,-0.6798,-0.7223,0.0,-0.6263,0.0,-0.4745,-0.4416,-0.4915,-0.4867,0.0,0.0,-0.5465,-0.5477,-0.5312,-0.5408,-0.537,-0.5011,-0.4797,-0.446,-0.3889,-0.3608,-0.3375,-0.3004,-0.2909,-0.2804,-0.2504,-0.2504,-0.2426,-0.2173,-0.2078,-0.2114,-0.2059,-0.1798,-0.1401,-0.1141,-0.1076,-0.1076,-0.1076,-0.1076,-0.1076,-0.1077,-0.1096,-0.1109,-0.1111,-0.1129,-0.1063,-0.0836,-0.0615,-0.027,-0.0067,0.0135,0.0472,-3.4202,-3.3987,-3.368,-3.3064,-3.2288,-3.2192,-3.1919,-3.1486,-3.0539,-2.9515,-2.8343,-2.6322,-2.522,-2.4897,-2.4614,-2.4615,-2.4896,-2.511,-2.5264,-2.5416,-2.5536,-2.5536,-2.5439,-2.465,-2.4019,-2.3488,-2.2804,-2.2194,-2.1675,-2.1438,-2.1199,-2.0959,-2.0394,-1.9312,-1.7748,-1.7687,-1.7504,-1.7142,-1.7486,-1.7641,-1.7462,-1.7,-1.6443,-1.5841,-1.5268,-1.4801,-1.4227,-1.4277,-1.4021,-1.3386,-1.2624,-1.2001,-1.1494,-1.0546,-0.9976,0.0,0.0,0.0,0.0,0.0,0.0,0.0,0.0,0.0,0.0,0.0,-0.6367,-0.5867,-0.5253,-0.5093,-0.5577,-0.5507,-0.5545,-0.5889,-0.5901,-0.5878,-0.572,-0.569,-0.5513,-0.5091,-0.478,-0.44,-0.3887,-0.3583,-0.3329,-0.3072,-0.305,-0.2933,-0.2656,-0.2581,-0.2497,-0.2236,-0.2199,-0.2153,-0.1951,-0.1681,-0.1419,-0.1161,-0.1095,-0.1099,-0.1113,-0.1116,-0.1117,-0.1117,-0.1129,-0.1141,-0.1142,-0.1142,-0.1068,-0.1054,-0.096,-0.0742,-0.054,-0.0135,0.0404,-3.5486,-3.5283,-3.4635,-3.4327,-3.423,-3.4145,-3.3173,-3.1758,-3.1573,-3.0526,-2.8731,-2.6709,-2.5769,-2.5716,-2.5477,-2.568,-2.6118,-2.6104,-2.6062,-2.602,-2.58,-2.5661,-2.5494,-2.465,-2.4229,-2.4119,-2.3371,-2.2898,-2.2739,-2.2418,-2.2029,-2.15,-2.0947,-2.0141,-1.9119,-1.8474,-1.7772,-1.7044,-1.7506,-1.7722,-1.7589,-1.6938,-1.6333,-1.5756,-1.5187,-1.4652,-1.4286,-1.4143,-1.3815,-1.328,-1.2682,-1.2086,-1.1468,-1.1175,-1.084,0.0,-1.0351,0.0,0.0,0.0,0.0,0.0,0.0,0.0,0.0,-0.6753,-0.6579,-0.6268,-0.5979,-0.5863,-0.6089,-0.611,-0.616,-0.6349,-0.6353,-0.6308,-0.6116,-0.588,-0.5592,-0.5076,-0.4665,-0.418,-0.3712,-0.3486,-0.3286,-0.3174,-0.3166,-0.2985,-0.2678,-0.2644,-0.2547,-0.222,-0.2221,-0.2085,-0.1748,-0.1479,-0.1288,-0.1177,-0.111,-0.1124,-0.1144,-0.1221,-0.1225,-0.1157,-0.116,-0.1164,-0.1166,-0.1148,-0.1132,-0.1123,-0.1101,-0.1083,-0.0945,-0.0337,0.0472,-3.6166,-3.6092,-3.5946,-3.5542,-3.4991,-3.4975,-3.4014,-3.2382,-3.0738,-2.9358,-2.8275,-2.8053,-2.7851,-2.7669,-2.7499,-2.7399,-2.7411,-2.7041,-2.6776,-2.6638,-2.6425,-2.6062,-2.5466,-2.4549,-2.419,-2.4282,-2.3692,-2.3266,-2.2962,-2.2898,-2.2558,-2.2041,-2.1512,-2.0706,-1.966,0.0,0.0,0.0,-1.8001,-1.8219,-1.7744,-1.6989,-1.6382,-1.5877,-1.5047,0.0,-1.3568,-1.3554,-1.3199,-1.2457,-1.2136,0.0,0.0,0.0,0.0,0.0,0.0,0.0,0.0,0.0,0.0,0.0,-0.8282,-0.7782,-0.7245,-0.6937,-0.665,-0.6374,-0.6288,-0.6353,-0.6523,-0.655,-0.6634,-0.6859,-0.6702,-0.6463,-0.6155,-0.5823,-0.5423,-0.4783,-0.4366,-0.3977,-0.3629,-0.3403,-0.3249,-0.3185,-0.3082,-0.295,-0.2734,-0.2676,-0.2554,-0.2288,-0.2221,-0.2153,-0.1884,-0.1681,-0.1482,-0.1287,-0.1151,-0.1089,-0.1097,-0.1098,-0.1105,-0.1127,-0.1149,-0.1166,-0.1166,-0.1181,-0.1173,-0.113,-0.1116,-0.1106,-0.1084,-0.0472,0.0337,-3.6987,0.0,-3.6486,-3.5914,0.0,-3.4778,-3.403,-3.304,-3.1746,-3.0395,-2.9112,-2.9,-2.867,-2.8183,-2.7812,-2.7584,-2.7413,-2.7286,-2.7131,-2.6849,-2.6287,-2.6145,-2.6178,-2.5037,-2.4611,-2.4809,-2.419,-2.3753,-2.3494,-2.3429,-2.3099,-2.257,-2.2053,-2.138,-2.0598,-2.0045,-1.9119,-1.7721,-1.808,-1.8159,-1.7796,-1.7282,-1.6649,-1.5962,-1.535,0.0,0.0,0.0,0.0,0.0,0.0,0.0,0.0,0.0,0.0,-1.1415,-1.1208,-1.105,-1.091,-1.0334,-0.9784,-0.9344,-0.8424,-0.7622,-0.7241,-0.7043,-0.6907,-0.677,-0.6735,-0.6826,-0.7004,-0.7036,-0.707,-0.7102,-0.6983,-0.6712,-0.6284,-0.5887,-0.5359,-0.4804,-0.4304,-0.3885,-0.3547,-0.3357,-0.3241,-0.3218,-0.3092,-0.2956,-0.2753,-0.2621,-0.249,-0.2221,-0.2221,-0.2153,-0.1951,-0.1748,-0.1556,-0.1367,-0.1235,-0.1104,-0.1118,-0.1121,-0.1126,-0.1141,-0.1157,-0.1166,-0.1166,-0.1168,-0.1157,-0.1128,-0.111,-0.1029,-0.0811,-0.0269,0.0471,-3.7829,-3.7639,-3.6972,-3.6303,-3.5691,-3.4872,-3.4182,-3.3738,0.0,0.0,0.0,-2.9726,-2.9202,-2.8569,-2.7997,-2.7655,-2.7513,-2.768,-2.7582,-2.723,-2.647,-2.6436,-2.6909,-2.5728,-2.5195,-2.5371,-2.4751,-2.4291,-2.408,-2.396,-2.3592,-2.3003,-2.2546,-2.2017,-2.1404,-2.0851,-1.9937,-1.8698,-1.8398,-1.814,-1.7859,-1.7537,-1.6933,-1.6069,-1.565,-1.5047,-1.4246,-1.3851,-1.3328,-1.2717,-1.2473,-1.2364,-1.2337,-1.2447,-1.2337,-1.1966,-1.1804,-1.1696,-1.1597,-1.0903,-1.028,-0.9852,-0.8549,-0.758,-0.7251,-0.7229,-0.7231,-0.7247,-0.7209,-0.7295,-0.7437,-0.7458,-0.7433,-0.7355,-0.72,-0.6922,-0.6421,-0.5875,-0.5345,-0.4806,-0.4281,-0.3828,-0.3491,-0.3291,-0.3226,-0.3159,-0.3025,-0.2822,-0.2621,-0.2488,-0.2356,-0.2221,-0.2221,-0.2153,-0.1951,-0.1748,-0.1562,-0.1449,-0.1248,-0.1123,-0.1143,-0.1151,-0.1152,-0.1152,-0.1158,-0.1157,-0.1156,-0.114,-0.112,-0.1114,-0.1026,-0.0809,-0.0337,0.0135,0.0806,-3.8342,-3.8398,-3.8205,-3.763,-3.6761,-3.6706,-3.5808,-3.4281,-3.1982,-3.0668,-3.0087,-3.0323,-3.0259,-2.9992,-2.98,-2.9576,-2.9426,-2.9351,-2.9021,-2.8422,-2.8204,-2.7728,-2.6963,-2.6276,-2.5842,-2.5711,-2.5232,-2.4786,-2.449,-2.441,-2.3929,-2.3087,-2.2907,-2.2378,-2.144,-2.0875,-2.0502,-2.0273,-1.965,-1.8929,-1.7997,-1.7508,-1.6893,-1.6204,-1.5579,-1.4976,-1.4485,-1.3763,-1.3342,-1.3371,-1.2887,-1.2798,-1.3094,-1.3103,-1.295,-1.2508,-1.2336,-1.2041,-1.1559,-1.1038,-1.0277,-0.9259,-0.8732,-0.8338,-0.7812,-0.7683,-0.7615,-0.7724,-0.7672,-0.7709,-0.7752,-0.7752,-0.7665,-0.7572,-0.7298,-0.694,-0.6416,-0.5844,-0.5193,-0.4486,-0.4023,-0.3692,-0.3362,-0.3228,-0.3226,-0.3159,-0.2958,-0.2621,-0.2354,-0.2221,-0.2221,-0.2221,-0.2221,-0.2154,-0.2085,-0.1816,-0.1619,-0.1554,-0.1288,-0.1087,-0.1094,-0.1096,-0.1104,-0.1123,-0.1127,-0.1127,-0.1127,-0.1125,-0.111,-0.1025,-0.081,-0.0336,0.0202,0.0672,0.1277,-3.8616,-3.8655,-3.8504,-3.8156,-3.7708,-3.6781,-3.5685,-3.4395,-3.2881,-3.1826,-3.1161,-3.1081,-3.0765,-3.0297,-2.9921,-2.9628,-2.9419,-2.9047,-2.8813,-2.8796,-2.8278,-2.8019,-2.7767,-2.6983,-2.6375,-2.608,-2.5723,-2.5322,-2.4951,-2.4939,-2.4554,-2.3821,-2.3268,-2.2594,-2.1873,-2.1596,-2.1332,-2.1031,-2.0169,-1.94,-1.8785,-1.8063,-1.7359,-1.6644,-1.6006,-1.5334,-1.4602,-1.4035,-1.365,-1.3405,-1.3157,-1.304,-1.3104,-1.3113,-1.3048,-1.2737,-1.2527,-1.2266,-1.1957,-1.1285,-1.0289,-0.9048,-0.8609,-0.8346,-0.7982,-0.7918,-0.7852,-0.7844,-0.7801,-0.7855,-0.7973,-0.7989,-0.7963,-0.7815,-0.7511,-0.7035,-0.6465,-0.5822,-0.509,-0.4422,-0.4023,-0.3625,-0.3228,-0.3226,-0.3159,-0.3092,-0.2757,-0.2488,-0.2221,-0.2221,-0.2221,-0.2221,-0.2221,-0.2153,-0.2018,-0.1816,-0.1547,-0.1479,-0.1277,-0.1143,-0.1076,-0.1076,-0.1082,-0.1093,-0.1096,-0.1097,-0.1097,-0.1097,-0.1022,-0.0745,-0.0336,0.0202,0.0605,0.1277,0.195,-3.8655,-3.875,-3.8488,-3.8351,-3.8163,-3.6494,-3.5378,-3.4601,-3.3939,-3.3151,-3.2267,-3.1868,-3.1319,-3.0574,-3.0153,-2.9903,-2.9711,-2.9163,-2.9146,-2.9346,-2.8661,-2.8504,-2.8655,-2.7653,-2.6881,-2.6377,-2.6037,-2.5688,-2.5312,-2.5312,-2.5035,-2.4458,-2.3484,-2.2775,-2.2366,-2.2246,-2.1981,-2.1548,-2.0577,-1.9865,-1.9359,-1.8562,-1.7812,-1.6965,-1.6389,-1.5598,-1.4781,-1.4327,-1.396,-1.358,-1.3479,-1.3405,-1.332,-1.3273,-1.3173,-1.299,-1.2671,-1.231,-1.2012,-1.1254,-1.0174,-0.8899,-0.8634,-0.834,-0.8049,-0.8072,-0.8072,-0.7957,-0.7978,-0.8048,-0.8188,-0.8226,-0.8112,-0.7897,-0.7591,-0.7064,-0.635,-0.5693,-0.5027,-0.4356,-0.3959,-0.356,-0.3293,-0.3226,-0.3159,-0.2889,-0.2624,-0.2356,-0.2221,-0.2221,-0.2221,-0.2221,-0.2221,-0.2153,-0.1951,-0.1816,-0.1614,-0.1412,-0.1277,-0.1143,-0.1143,-0.1076,-0.1076,-0.1078,-0.1078,-0.108,-0.1078,-0.1011,-0.0809,-0.0404,0.0067,0.0672,0.1143,0.1883,0.2557,-3.8655,-3.875,-3.8488,-3.8205,-3.7831,-3.6447,-3.5642,-3.5308,-3.4633,-3.3758,-3.293,-3.2553,-3.2063,-3.1492,-3.1631,-3.1675,-3.1625,-3.1344,-3.1185,-3.1078,-3.0429,-2.9817,-2.9333,-2.8252,-2.7245,-2.644,-2.6037,-2.5688,-2.5312,-2.5312,-2.5047,-2.4458,-2.3496,-2.2979,-2.2859,-2.2438,-2.2173,-2.2113,-2.1355,-2.0346,-1.9157,-1.8646,-1.7853,-1.6874,-1.6218,-1.569,-1.5109,-1.4487,-1.4163,-1.4332,-1.402,-1.3935,-1.4087,-1.4013,-1.3725,-1.327,-1.2923,-1.2343,-1.131,-1.0661,-0.9904,-0.8967,-0.8939,-0.8737,-0.8104,-0.8251,-0.8447,-0.8425,-0.8431,-0.8361,-0.8264,-0.8189,-0.8006,-0.7642,-0.7204,-0.6683,-0.6024,-0.5296,-0.4628,-0.4092,-0.3761,-0.3431,-0.3228,-0.3159,-0.3025,-0.2755,-0.2557,-0.2356,-0.2221,-0.2221,-0.2221,-0.2221,-0.2221,-0.2221,-0.2085,-0.2018,-0.1748,-0.1547,-0.1412,-0.121,-0.1143,-0.1076,-0.1076,-0.1076,-0.1077,-0.1011,-0.0944,-0.0809,-0.0337,-0.0,0.0471,0.1076,0.1816,0.2488,0.2891,-3.8616,-3.8655,-3.8504,-3.8205,-3.7796,-3.7049,-3.6497,-3.6014,-3.5296,-3.4475,-3.3667,-3.3587,-3.3079,-3.2072,-3.2141,-3.2112,-3.1982,-3.1721,-3.1537,-3.1471,-3.1006,-3.0549,-2.993,-2.8838,-2.7816,-2.6892,-2.6268,-2.5688,-2.5382,-2.5312,-2.5035,-2.4542,-2.4073,-2.3592,-2.3015,-2.2763,-2.2447,-2.2011,-2.1525,-2.0726,-1.9613,-1.8697,-1.7704,-1.6612,-1.5931,-1.5362,-1.4942,-1.4508,-1.44,-1.4488,-1.4282,-1.4146,-1.413,-1.3881,-1.3519,-1.3094,-1.2359,-1.1553,-1.0688,-1.0104,-0.9419,-0.854,-0.8601,-0.8417,-0.799,-0.8231,-0.8517,-0.8517,-0.8517,-0.8441,-0.8236,-0.8231,-0.8042,-0.7521,-0.7068,-0.6544,-0.5954,-0.516,-0.4495,-0.4028,-0.3696,-0.3431,-0.3228,-0.3025,-0.2822,-0.2555,-0.2356,-0.2288,-0.2221,-0.2221,-0.2221,-0.2221,-0.2221,-0.2153,-0.2018,-0.1816,-0.1681,-0.1479,-0.1277,-0.1143,-0.1143,-0.1076,-0.1076,-0.1078,-0.0876,-0.0674,-0.0404,-0.0202,0.0135,0.0538,0.1144,0.1883,0.2554,0.2822,0.3023,-3.8616,-3.856,-3.8464,-3.8221,-3.786,-3.7535,-3.6964,-3.6183,-3.5661,-3.4847,-3.4065,-3.4257,-3.3906,-3.3071,-3.284,-3.2694,-3.2563,-3.2364,-3.2245,-3.203,-3.1688,-3.1171,-3.0527,-2.9438,-2.8399,-2.749,-2.6602,-2.5834,-2.5336,-2.5312,-2.5107,-2.4771,-2.459,-2.4145,-2.346,-2.3095,-2.2659,-2.2111,-2.1556,-2.0768,-1.98,-1.8769,-1.7562,-1.6454,-1.5702,-1.5128,-1.4715,-1.4547,-1.4455,-1.4455,-1.4327,-1.4207,-1.395,-1.364,-1.3208,-1.2674,-1.1809,-1.0989,-1.0308,-0.9779,-0.9199,-0.8523,-0.8321,-0.8186,-0.8054,-0.8274,-0.8495,-0.8511,-0.8447,-0.8306,-0.8172,-0.8107,-0.7847,-0.7326,-0.6806,-0.6284,-0.5624,-0.4891,-0.4295,-0.3894,-0.3563,-0.3362,-0.3159,-0.2822,-0.2555,-0.2423,-0.2288,-0.2221,-0.2221,-0.2221,-0.2221,-0.2221,-0.2221,-0.2153,-0.2018,-0.1816,-0.1614,-0.1412,-0.1277,-0.1143,-0.1143,-0.1076,-0.0942,-0.0808,-0.0605,-0.0269,0.0067,0.0403,0.0806,0.121,0.1816,0.2421,0.2822,0.3023,0.3092,-3.8694,-3.856,-3.8448,-3.8221,-3.786,-3.7535,-3.6698,-3.5707,-3.548,-3.4862,-3.4139,-3.4257,-3.437,-3.4254,-3.3994,-3.3998,-3.3945,-3.3765,-3.3559,-3.3295,-3.2498,-3.1764,-3.1165,-2.9839,-2.8769,-2.8009,-2.7088,-2.62,-2.5384,-2.5324,-2.53,-2.524,-2.4795,-2.4506,-2.4254,-2.3365,-2.271,-2.2462,-2.155,-2.0549,-1.9673,-1.8649,-1.7593,-1.6568,-1.5664,-1.5048,-1.4715,-1.4556,-1.4455,-1.4336,-1.4276,-1.4148,-1.3821,-1.3459,-1.2903,-1.1988,-1.1373,-1.087,-1.0301,-0.9779,-0.9208,-0.8703,-0.846,-0.8249,-0.8151,-0.8355,-0.8506,-0.8511,-0.8306,-0.8177,-0.7982,-0.7792,-0.7466,-0.6872,-0.628,-0.5693,-0.496,-0.4428,-0.3897,-0.3632,-0.3362,-0.3159,-0.3023,-0.2622,-0.2423,-0.2356,-0.2288,-0.2221,-0.2221,-0.2221,-0.2221,-0.2221,-0.2221,-0.2221,-0.2154,-0.1951,-0.1748,-0.1547,-0.1345,-0.1212,-0.1145,-0.1078,-0.0809,-0.0539,-0.0202,0.0202,0.0605,0.1076,0.1547,0.195,0.2284,0.2753,0.3023,0.3092,0.3228,-3.8616,-3.8464,-3.8408,-3.8278,-3.8049,-3.7759,-3.7068,-3.6276,-3.5773,-3.5245,-3.4655,-3.4447,-3.4414,-3.4414,-3.4346,-3.4196,-3.4128,-3.4074,-3.3868,-3.3577,-3.2989,-3.2372,-3.1748,-3.0421,-2.9421,-2.8623,-2.7705,-2.6724,-2.5889,-2.548,-2.5312,-2.53,-2.5131,-2.4867,-2.4438,-2.3966,-2.3333,-2.2409,-2.1578,-2.074,-1.962,-1.8526,-1.751,-1.6576,-1.5708,-1.5065,-1.4556,-1.4506,-1.4455,-1.4336,-1.4198,-1.401,-1.3769,-1.3285,-1.2613,-1.1747,-1.1185,-1.0618,-1.0053,-0.9466,-0.8977,-0.8584,-0.8499,-0.834,-0.8242,-0.8366,-0.8447,-0.8306,-0.8236,-0.8107,-0.7722,-0.7466,-0.7138,-0.6552,-0.5958,-0.5362,-0.4761,-0.4225,-0.3761,-0.3563,-0.3228,-0.3023,-0.2822,-0.2555,-0.2356,-0.2288,-0.2221,-0.2221,-0.2221,-0.2221,-0.2221,-0.2221,-0.2221,-0.2221,-0.2221,-0.1884,-0.1614,-0.148,-0.1279,-0.1146,-0.1079,-0.0607,-0.0269,-0.0067,0.0269,0.074,0.1277,0.168,0.2153,0.2487,0.2822,0.2889,0.3092,0.3226,0.3295,-3.8448,-3.8408,-3.8391,-3.848,-3.8486,-3.8152,-3.766,-3.7033,-3.6326,-3.5639,-3.503,-3.4549,-3.4414,-3.4414,-3.4414,-3.4278,-3.4128,-3.4196,-3.3991,-3.3689,-3.3283,-3.2704,-3.1915,-3.0824,-2.9828,-2.9101,-2.8024,-2.7051,-2.6202,-2.5733,-2.548,-2.5312,-2.5312,-2.5143,-2.4737,-2.435,-2.3532,-2.2393,-2.152,-2.0587,-1.9362,-1.837,-1.7409,-1.6577,-1.5954,-1.529,-1.4561,-1.4455,-1.4387,-1.4198,-1.401,-1.3769,-1.3476,-1.292,-1.2243,-1.1498,-1.0933,-1.0364,-0.9792,-0.9274,-0.889,-0.8554,-0.8478,-0.8436,-0.8296,-0.842,-0.8361,-0.8236,-0.8107,-0.7852,-0.7461,-0.7073,-0.6613,-0.6222,-0.5624,-0.5027,-0.4495,-0.4028,-0.3629,-0.3362,-0.3092,-0.2889,-0.2686,-0.2488,-0.2288,-0.2221,-0.2221,-0.2221,-0.2221,-0.2221,-0.2221,-0.2221,-0.2153,-0.2085,-0.1951,-0.1614,-0.1479,-0.1345,-0.0942,-0.0876,-0.0607,-0.0135,0.0269,0.0471,0.0875,0.1412,0.1883,0.2287,0.2622,0.2956,0.3025,0.3092,0.3226,0.3295,0.3429,-3.8391,-3.8408,-3.8408,-3.8682,-3.9049,-3.8727,-3.8428,-3.7904,-3.7029,-3.6139,-3.5429,-3.4733,-3.4632,-3.453,-3.4646,-3.438,-3.4369,-3.4423,-3.4214,-3.3827,-3.3437,-3.2704,-3.1836,-3.0944,-3.0075,-2.9307,-2.8232,-2.7152,-2.6214,-2.6045,-2.5793,-2.5396,-2.53,-2.5217,-2.5099,-2.4354,-2.3502,-2.2389,-2.1239,-2.0062,-1.8859,-1.8075,-1.7389,-1.6712,-1.6363,-1.5716,-1.4574,-1.445,-1.4303,-1.401,-1.3881,-1.3467,-1.2858,-1.2367,-1.1809,-1.1185,-1.0624,-1.0104,-0.9524,-0.921,-0.8952,-0.8731,-0.8635,-0.8506,-0.8479,-0.8431,-0.8376,-0.8112,-0.7857,-0.7531,-0.7134,-0.6482,-0.5954,-0.5826,-0.5226,-0.4628,-0.4095,-0.3696,-0.3431,-0.3228,-0.2889,-0.2686,-0.2621,-0.2421,-0.2221,-0.2221,-0.2221,-0.2221,-0.2221,-0.2154,-0.2154,-0.2153,-0.2018,-0.1884,-0.1614,-0.1344,-0.1277,-0.121,-0.0673,-0.0337,0.0067,0.0471,0.0942,0.1211,0.1547,0.2084,0.2285,0.269,0.2824,0.3092,0.3159,0.3159,0.3228,0.3295,0.3493,-3.8391,-3.8472,-3.8827,-3.9076,-3.9151,-3.8822,-3.8651,-3.8542,-3.7369,-3.6767,-3.652,-3.6,-3.572,-3.5706,-3.572,-3.5551,-3.5381,-3.5062,-3.4436,-3.3731,-3.3283,-3.2632,-3.1763,-3.0983,-3.0012,-2.9008,-2.8113,-2.738,-2.6743,-2.6298,-2.5841,-2.5408,-2.5182,-2.5111,-2.5016,-2.4179,-2.3167,-2.224,-2.1079,-1.9849,-1.8694,-1.7978,-1.7369,-1.6693,-1.6379,-1.5917,-1.5187,-1.504,-1.4644,-1.4045,-1.3761,-1.3277,-1.2552,-1.2243,-1.1747,-1.0996,-1.0555,-0.9983,-0.9466,-0.9151,-0.8894,-0.8641,-0.8517,-0.8517,-0.8511,-0.8376,-0.8177,-0.7852,-0.7531,-0.7138,-0.6474,-0.5954,-0.5491,-0.5355,-0.4827,-0.4233,-0.3763,-0.3426,-0.3226,-0.3092,-0.2822,-0.2619,-0.2488,-0.2288,-0.2221,-0.2221,-0.2221,-0.2221,-0.2154,-0.2085,-0.2018,-0.1951,-0.1816,-0.1547,-0.1143,-0.0672,-0.0403,-0.0202,0.0202,0.0404,0.074,0.1144,0.1614,0.1883,0.2285,0.2555,0.2757,0.2958,0.3092,0.3159,0.3159,0.3226,0.3228,0.336,0.3627,-3.8796,-3.8893,-3.9382,-3.979,-3.9923,-3.962,-3.9487,-3.9292,-3.8218,-3.7541,-3.7198,-3.6499,-3.6229,-3.6158,-3.6101,-3.5942,-3.5754,-3.5382,-3.474,-3.3818,-3.3142,-3.2489,-3.1603,-3.0545,-2.9639,-2.8755,-2.824,-2.7741,-2.7136,-2.6671,-2.6056,-2.5541,-2.5207,-2.4969,-2.4779,-2.3896,-2.2888,-2.1907,-2.0657,-1.9442,-1.8407,-1.7774,-1.725,-1.6773,-1.66,-1.6196,-1.5683,-1.5661,-1.5151,-1.4197,-1.3544,-1.2911,-1.2305,-1.1864,-1.1373,-1.0618,-1.0168,-0.9722,-0.9215,-0.8964,-0.8829,-0.8576,-0.8517,-0.8447,-0.8376,-0.8236,-0.8042,-0.7531,-0.7204,-0.6741,-0.6013,-0.5422,-0.5027,-0.4691,-0.4361,-0.3897,-0.3496,-0.3228,-0.3092,-0.2958,-0.2757,-0.2555,-0.2423,-0.2288,-0.2221,-0.2221,-0.2221,-0.2153,-0.2153,-0.2085,-0.1951,-0.1748,-0.1479,-0.1076,-0.0538,-0.0,0.0538,0.0941,0.1344,0.1345,0.1547,0.1952,0.2356,0.242,0.2688,0.2824,0.3025,0.3092,0.3159,0.3226,0.3228,0.3228,0.3226,0.3493,0.3694,-3.9525,-3.9622,-4.0123,-4.0614,-4.105,-4.0785,-4.0498,-4.0203,-3.9281,-3.8364,-3.755,-3.672,-3.623,-3.6115,-3.6127,-3.598,-3.5574,-3.5532,-3.5176,-3.4279,-3.3273,-3.2296,-3.1233,-2.9871,-2.904,-2.8566,-2.8462,-2.8174,-2.7621,-2.7103,-2.6509,-2.5777,-2.5302,-2.4921,-2.4446,-2.3589,-2.2562,-2.1431,-2.0132,-1.8881,-1.7784,-1.7432,-1.7088,-1.6872,-1.6853,-1.6551,-1.6116,-1.5932,-1.5459,-1.4395,-1.343,-1.2701,-1.2103,-1.1457,-1.08,-1.0117,-0.9716,-0.9338,-0.8958,-0.8835,-0.87,-0.8517,-0.8447,-0.8376,-0.8236,-0.8102,-0.7847,-0.7265,-0.6872,-0.6342,-0.5617,-0.4954,-0.4425,-0.4028,-0.3828,-0.356,-0.3226,-0.3092,-0.2956,-0.2891,-0.2624,-0.2423,-0.2356,-0.2288,-0.2221,-0.2153,-0.2153,-0.2085,-0.1951,-0.1884,-0.1884,-0.1547,-0.0941,-0.0403,0.0134,0.0739,0.121,0.1547,0.195,0.2017,0.2084,0.249,0.2827,0.2891,0.2956,0.3092,0.3159,0.3228,0.3295,0.3295,0.3295,0.3228,0.336,0.356,0.3761,-4.0178,-4.0172,-4.0665,-4.0926,-4.0896,-4.0721,-4.0779,-4.0712,-3.9504,-3.8922,-3.8594,-3.7856,-3.7264,-3.7336,-3.7157,-3.6973,-3.6665,-3.6325,-3.5888,-3.5161,-3.3716,-3.203,-3.0546,-2.9574,-2.8895,-2.851,-2.8498,-2.8246,-2.7717,-2.7136,-2.6521,-2.5825,-2.5313,-2.4741,-2.4241,-2.3219,-2.2232,-2.1124,-1.9555,-1.8486,-1.7842,-1.7392,-1.7107,-1.6908,-1.6908,-1.6645,-1.6225,-1.5711,-1.5102,-1.4368,-1.3644,-1.287,-1.2116,-1.1432,-1.0681,-0.9989,-0.9594,-0.9268,-0.8899,-0.877,-0.8705,-0.8511,-0.8376,-0.8236,-0.8166,-0.7842,-0.7456,-0.7007,-0.6486,-0.5822,-0.509,-0.4492,-0.3961,-0.3493,-0.3426,-0.3293,-0.3092,-0.3023,-0.2889,-0.2624,-0.2491,-0.2356,-0.2288,-0.2221,-0.2153,-0.2018,-0.2018,-0.1884,-0.1748,-0.1344,-0.1143,-0.0605,-0.0067,0.0403,0.0873,0.1479,0.1884,0.2153,0.2354,0.242,0.2487,0.269,0.296,0.3092,0.3092,0.3159,0.3295,0.3431,0.3431,0.3429,0.3493,0.356,0.3563,0.3696,0.383,-4.0784,-4.0788,-4.1261,-4.1358,-4.123,-4.1004,-4.0927,-4.0758,-3.9779,-3.9133,-3.8957,-3.8217,-3.7701,-3.761,-3.7443,-3.7289,-3.7092,-3.6858,-3.6332,-3.5516,-3.3642,-3.1648,-3.0138,-2.9341,-2.8895,-2.851,-2.851,-2.8354,-2.7969,-2.7232,-2.6542,-2.595,-2.5189,-2.4548,-2.3936,-2.3048,-2.2035,-2.0904,-1.9505,-1.8455,-1.8033,-1.7582,-1.7296,-1.711,-1.6948,-1.6621,-1.6149,-1.548,-1.4765,-1.3991,-1.3445,-1.2805,-1.1774,-1.1107,-1.0428,-0.967,-0.9344,-0.9017,-0.877,-0.8641,-0.8641,-0.8511,-0.8306,-0.7972,-0.7702,-0.7447,-0.7199,-0.6482,-0.5954,-0.5292,-0.4697,-0.4097,-0.3627,-0.3226,-0.3092,-0.3092,-0.2956,-0.2889,-0.2755,-0.249,-0.2356,-0.2288,-0.2221,-0.2153,-0.2018,-0.1951,-0.1884,-0.1681,-0.1344,-0.0806,-0.0269,0.0269,0.0806,0.1277,0.1547,0.2018,0.2285,0.2555,0.2691,0.2757,0.2824,0.2891,0.3025,0.3159,0.3226,0.3295,0.3429,0.3565,0.3565,0.3563,0.3761,0.3763,0.377,0.3876,0.4004,-4.1415,-4.1418,-4.1757,-4.1914,-4.1785,-4.1456,-4.1075,-4.0715,-3.999,-3.9349,-3.8797,-3.7991,-3.7534,-3.7303,-3.7148,-3.6978,-3.6978,-3.6782,-3.6088,-3.4898,-3.3171,-3.1293,-2.9754,-2.9275,-2.8907,-2.859,-2.851,-2.8347,-2.8023,-2.715,-2.6493,-2.5965,-2.5113,-2.4292,-2.3588,-2.2783,-2.1837,-2.0749,-1.9604,-1.8778,-1.8356,-1.7842,-1.7532,-1.7295,-1.6774,-1.6421,-1.5992,-1.5402,-1.4569,-1.3392,-1.3209,-1.2451,-1.1362,-1.0732,-1.0002,-0.9472,-0.9087,-0.8765,-0.8576,-0.8511,-0.8447,-0.8441,-0.8242,-0.7772,-0.7177,-0.706,-0.6741,-0.5954,-0.5355,-0.4824,-0.4236,-0.3773,-0.3374,-0.3102,-0.3029,-0.3038,-0.2891,-0.2753,-0.2621,-0.2423,-0.2288,-0.2221,-0.2153,-0.2018,-0.1884,-0.1681,-0.1547,-0.1143,-0.0739,-0.0202,0.0403,0.1008,0.1547,0.2153,0.2356,0.2491,0.269,0.2891,0.2958,0.3092,0.3025,0.3092,0.3161,0.3228,0.3228,0.3362,0.3563,0.3632,0.3701,0.3777,0.3919,0.3919,0.3859,0.4066,0.4229,-4.2029,-4.1756,-4.1851,-4.1817,-4.167,-4.139,-4.1122,-4.0715,-4.0036,-3.9307,-3.8723,-3.7901,-3.7457,-3.7303,-3.7056,-3.6978,-3.6922,-3.6389,-3.5079,-3.3208,-3.2725,-3.1201,-2.9761,-2.9197,-2.8895,-2.859,-2.851,-2.8215,-2.7639,-2.724,-2.6635,-2.5604,-2.5066,-2.4277,-2.3361,-2.2218,-2.124,-2.0464,-1.9521,-1.887,-1.8481,-1.8138,-1.7761,-1.7225,-1.6546,-1.6158,-1.585,-1.557,-1.4768,-1.3791,-1.3066,-1.2432,-1.171,-1.0725,-0.9943,-0.9409,-0.8975,-0.8716,-0.8517,-0.8408,-0.8247,-0.8283,-0.8043,-0.7521,-0.6915,-0.6626,-0.6296,-0.5557,-0.5027,-0.4439,-0.3768,-0.35,-0.3281,-0.3048,-0.3003,-0.2883,-0.2637,-0.2488,-0.2423,-0.2288,-0.2221,-0.2153,-0.2018,-0.1951,-0.1748,-0.1547,-0.1076,-0.0605,-0.0134,0.0403,0.1008,0.1614,0.2017,0.2488,0.2624,0.2758,0.2893,0.3025,0.3159,0.3226,0.3226,0.3228,0.3295,0.3295,0.3295,0.3496,0.3696,0.3782,0.3789,0.4004,0.4165,0.4135,0.4242,0.4364,0.4456,-4.2141,-4.1898,-4.1817,-4.167,-4.1588,-4.1323,-4.1003,-4.0593,-3.9879,-3.9147,-3.8501,-3.7839,-3.7471,-3.7134,-3.7056,-3.6978,-3.6844,-3.6345,-3.4758,-3.3028,-3.2398,-3.1289,-2.9683,-2.9118,-2.8803,-2.8486,-2.8234,-2.7801,-2.737,-2.6878,-2.6165,-2.5559,-2.4918,-2.422,-2.3403,-2.2009,-2.1033,-2.0546,-1.9868,-1.9212,-1.8889,-1.84,-1.7784,-1.698,-1.6288,-1.5867,-1.5655,-1.5101,-1.4465,-1.3706,-1.2844,-1.2116,-1.1478,-1.0558,-0.9874,-0.93,-0.9002,-0.8805,-0.8684,-0.8569,-0.843,-0.8198,-0.7947,-0.7481,-0.6924,-0.6535,-0.5955,-0.5286,-0.4675,-0.4094,-0.337,-0.3256,-0.3059,-0.2779,-0.2725,-0.2664,-0.2364,-0.2356,-0.2356,-0.2221,-0.2153,-0.2085,-0.2018,-0.1748,-0.1412,-0.1076,-0.0403,0.0067,0.0538,0.1076,0.1614,0.2085,0.242,0.2688,0.2891,0.3025,0.3092,0.3159,0.3159,0.3226,0.3226,0.3295,0.3362,0.3429,0.3429,0.3627,0.3832,0.3919,0.4034,0.4209,0.4391,0.445,0.4498,0.453,0.4613,-4.2012,-4.1833,-4.167,-4.1588,-4.1522,-4.1236,-4.0898,-4.0439,-3.9737,-3.9002,-3.8277,-3.7763,-3.7323,-3.6944,-3.695,-3.6922,-3.6543,-3.623,-3.4722,-3.2372,-3.2267,-3.1236,-2.9779,-2.8968,-2.865,-2.8467,-2.8119,-2.7717,-2.702,-2.6394,-2.6107,-2.5703,-2.5056,-2.4314,-2.3547,-2.2119,-2.105,-2.0604,-2.0062,-1.9584,-1.9173,-1.8692,-1.7975,-1.6928,-1.6091,-1.5664,-1.5313,-1.4725,-1.3995,-1.3643,-1.2483,-1.1604,-1.0874,-1.0212,-0.9641,-0.9153,-0.9007,-0.8945,-0.8867,-0.8817,-0.8669,-0.8277,-0.8056,-0.7635,-0.699,-0.6456,-0.5787,-0.5011,-0.4354,-0.3737,-0.3121,-0.3038,-0.2842,-0.2573,-0.2435,-0.2356,-0.2288,-0.2288,-0.2221,-0.2153,-0.2018,-0.1884,-0.1614,-0.1344,-0.1008,-0.0538,0.0202,0.0806,0.121,0.1614,0.2085,0.2421,0.269,0.2824,0.3025,0.3092,0.3159,0.3159,0.3226,0.3232,0.3297,0.3426,0.356,0.356,0.3694,0.3832,0.4001,0.412,0.4237,0.4496,0.4575,0.4656,0.4689,0.4697,0.4713,-4.1817,-4.167,-4.1588,-4.1588,-4.1538,-4.1236,-4.0966,-4.0578,-3.9778,-3.9017,-3.8441,-3.7825,-3.7039,-3.6549,-3.6796,-3.6277,-3.5447,-3.5259,-3.4041,-3.1893,-3.1746,-3.1166,-2.9843,-2.8802,-2.853,-2.8676,-2.8319,-2.753,-2.6971,-2.6866,-2.6225,-2.5295,-2.5219,-2.4846,-2.3437,-2.2095,-2.1094,-2.0547,-2.0089,-1.9548,-1.9116,-1.8768,-1.8184,-1.6971,-1.6058,-1.5396,-1.4999,-1.4514,-1.3932,-1.3105,-1.2325,-1.1598,-1.0809,-1.0179,-0.967,-0.9303,-0.9108,-0.9055,-0.8927,-0.8826,-0.8709,-0.8508,-0.8122,-0.7611,-0.6928,-0.6373,-0.5656,-0.4805,-0.4019,-0.3352,-0.3063,-0.2929,-0.2795,-0.254,-0.2387,-0.2357,-0.2221,-0.2085,-0.1951,-0.1816,-0.1748,-0.1547,-0.1143,-0.0672,-0.0202,0.0269,0.0873,0.1412,0.1883,0.2153,0.2421,0.269,0.2956,0.3025,0.3159,0.3159,0.3226,0.3226,0.323,0.3307,0.3439,0.3629,0.3763,0.3813,0.3876,0.3996,0.4112,0.4248,0.4398,0.4605,0.4703,0.48,0.4814,0.483,0.4887,-4.1752,-4.1588,-4.1588,-4.1588,-4.1522,-4.1221,-4.0898,-4.0462,-3.9531,-3.8778,-3.8251,-3.7569,-3.6817,-3.6344,-3.6332,-3.5675,-3.4588,-3.4617,-3.332,-3.157,-3.1306,-3.0804,-2.9598,-2.8607,-2.8426,-2.8348,-2.8066,-2.7481,-2.6632,-2.6624,-2.6265,-2.5699,-2.5597,-2.4926,-2.3659,-2.2392,-2.1248,-2.0557,-1.9863,-1.939,-1.893,-1.8512,-1.7602,-1.6833,-1.5861,-1.5048,-1.4561,-1.3985,-1.3324,-1.2526,-1.1855,-1.1186,-1.0599,-1.0075,-0.9625,-0.9417,-0.9217,-0.9097,-0.9011,-0.8857,-0.8727,-0.8621,-0.8171,-0.7465,-0.6849,-0.6279,-0.5541,-0.4575,-0.3786,-0.3153,-0.2936,-0.2805,-0.2581,-0.2388,-0.2307,-0.2227,-0.2087,-0.1951,-0.1683,-0.1481,-0.121,-0.0941,-0.047,0.0067,0.0605,0.1143,0.1614,0.2018,0.2423,0.2624,0.2758,0.2891,0.3025,0.3092,0.3159,0.3226,0.3244,0.3246,0.3318,0.3396,0.3557,0.3773,0.3956,0.4082,0.4189,0.4188,0.4306,0.4453,0.4547,0.4722,0.4825,0.4906,0.4934,0.4969,0.5076,-4.1752,-4.1588,-4.1588,-4.1588,-4.1522,-4.1236,-4.0898,-4.0385,-3.9267,-3.8582,-3.8206,-3.7341,-3.661,-3.6052,-3.5517,-3.4836,-3.3744,-3.4162,-3.2995,-3.1389,-3.1061,-3.0423,-2.9322,-2.8546,-2.8205,-2.8233,-2.7743,-2.7186,-2.679,-2.6595,-2.629,-2.5882,-2.5543,-2.4779,-2.361,-2.2415,-2.1352,-2.0361,-1.9706,-1.9231,-1.8734,-1.7802,-1.6985,-1.6531,-1.5527,-1.4721,-1.4274,-1.355,-1.282,-1.2077,-1.1409,-1.0812,-1.0265,-0.9824,-0.9579,-0.9531,-0.9235,-0.9153,-0.9001,-0.8817,-0.867,-0.8764,-0.8143,-0.7391,-0.6662,-0.598,-0.5172,-0.4302,-0.3599,-0.3077,-0.2788,-0.2564,-0.2399,-0.2266,-0.2192,-0.2101,-0.1961,-0.1757,-0.1421,-0.1149,-0.074,-0.0336,0.0135,0.0873,0.1479,0.168,0.2153,0.2353,0.2691,0.2891,0.3025,0.3025,0.3092,0.3159,0.3226,0.3226,0.3254,0.3287,0.3432,0.3515,0.3695,0.3946,0.4138,0.4388,0.4393,0.441,0.4534,0.4613,0.473,0.4841,0.4947,0.4993,0.5063,0.5143,0.5237,-4.1588,-4.1588,-4.1588,-4.1588,-4.1538,-4.1236,-4.0966,-4.0569,-3.9321,-3.871,-3.859,-3.7417,-3.6384,-3.5461,-3.4255,-3.3742,-3.3775,-3.3693,-3.2908,-3.1248,-3.0958,-3.039,-2.9455,-2.8381,-2.8104,-2.8046,-2.7521,-2.7117,-2.6931,-2.6898,-2.6519,-2.5992,-2.5502,-2.4788,-2.3363,-2.228,-2.1214,-2.0096,-1.9636,-1.925,-1.8647,-1.7561,-1.6928,-1.6346,-1.5528,-1.4593,-1.4072,-1.3258,-1.2526,-1.1781,-1.1105,-1.0663,-1.0212,-0.983,-0.9658,-0.9532,-0.9223,-0.8951,-0.8852,-0.8617,-0.8565,-0.859,-0.8021,-0.731,-0.6444,-0.5437,-0.4578,-0.3787,-0.3369,-0.3057,-0.2801,-0.2581,-0.242,-0.2338,-0.2186,-0.2075,-0.1981,-0.1802,-0.1385,-0.0548,-0.0068,0.0339,0.0743,0.1551,0.2288,0.2423,0.2555,0.2757,0.2958,0.3092,0.3159,0.3159,0.3234,0.3236,0.3334,0.3328,0.3363,0.3403,0.3563,0.3722,0.4001,0.42,0.4354,0.4584,0.4605,0.4704,0.4792,0.4875,0.4874,0.4928,0.5065,0.5162,0.524,0.5323,0.5401,-4.1588,-4.1588,-4.1588,-4.1588,-4.1522,-4.1236,-4.0898,-4.0454,-3.9405,-3.8766,-3.8355,-3.7128,-3.5927,-3.4766,-3.3677,-3.3449,-3.3491,-3.3216,-3.2441,-3.1174,-3.0571,-2.9829,-2.8923,-2.8137,-2.7801,-2.7743,-2.7416,-2.7196,-2.7105,-2.6966,-2.6744,-2.6237,-2.5458,-2.4416,-2.3113,-2.207,-2.0827,-1.9818,-1.9152,-1.8763,-1.8231,-1.7535,-1.6894,-1.6446,-1.542,-1.4529,-1.3696,-1.2966,-1.215,-1.1335,-1.0812,-1.0438,-1.0029,-0.9659,-0.9421,-0.9237,-0.8687,-0.8571,-0.8778,-0.8415,-0.8375,-0.8116,-0.7557,-0.6777,-0.5851,-0.4846,-0.4144,-0.3789,-0.3201,-0.288,-0.2715,-0.2492,-0.24,-0.2317,-0.2241,-0.2075,-0.1905,-0.1706,-0.1356,-0.0352,0.0556,0.0967,0.1372,0.1911,0.2512,0.269,0.2757,0.2891,0.3025,0.3159,0.3159,0.3159,0.3305,0.3383,0.343,0.3457,0.3653,0.3692,0.3864,0.4044,0.4269,0.4461,0.4694,0.4819,0.4847,0.4958,0.5002,0.498,0.4969,0.5024,0.5168,0.5323,0.5553,0.5705,0.586,-4.1588,-4.1588,-4.1588,-4.1588,-4.1588,-4.1236,-4.0898,-4.0378,-3.939,-3.8676,-3.7959,-3.6664,-3.5225,-3.4325,-3.3746,-3.3533,-3.328,-3.2641,-3.1929,-3.1034,-2.9942,-2.8973,-2.8443,-2.7846,-2.7441,-2.7441,-2.7336,-2.7196,-2.7126,-2.6974,-2.6715,-2.6456,-2.5485,-2.4302,-2.3012,-2.1846,-2.0609,-1.9277,-1.8674,-1.8353,-1.8043,-1.7505,-1.6957,-1.6341,-1.5475,-1.4419,-1.3539,-1.2668,-1.1821,-1.1157,-1.0547,-1.0143,-0.982,-0.9435,-0.9145,-0.8882,-0.8505,-0.8328,-0.837,-0.8169,-0.7868,-0.7411,-0.6623,-0.5693,-0.5007,-0.4075,-0.3604,-0.3517,-0.3095,-0.2758,-0.266,-0.2467,-0.2369,-0.2289,-0.2212,-0.2054,-0.183,-0.1468,-0.0949,-0.0,0.0925,0.1633,0.1971,0.2294,0.2609,0.2904,0.3025,0.3092,0.3163,0.3232,0.3324,0.34,0.3485,0.365,0.3716,0.3763,0.3884,0.3998,0.4174,0.4301,0.453,0.4725,0.4893,0.5038,0.509,0.5237,0.5277,0.516,0.4977,0.5271,0.5479,0.5634,0.5864,0.6093,0.6475,-4.1588,-4.1588,-4.1588,-4.1588,-4.1588,-4.1236,-4.0898,-4.0409,-3.9282,-3.8396,-3.7607,-3.5927,-3.474,-3.4226,-3.387,-3.3475,-3.2784,-3.2839,-3.1885,-3.0586,-2.9307,-2.856,-2.8131,-2.7777,-2.7371,-2.7219,-2.7231,-2.7231,-2.7067,-2.6809,-2.655,-2.608,-2.5322,-2.4189,-2.2942,-2.1578,-2.027,-1.9066,-1.8442,-1.8353,-1.8106,-1.7652,-1.71,-1.6575,-1.5677,-1.4694,-1.3967,-1.2852,-1.191,-1.1147,-1.0444,-0.9927,-0.969,-0.9271,-0.8939,-0.8764,-0.8369,-0.8161,-0.796,-0.7673,-0.7275,-0.6656,-0.5696,-0.4611,-0.4231,-0.3761,-0.337,-0.3059,-0.2804,-0.2728,-0.2556,-0.2456,-0.2345,-0.2342,-0.2187,-0.1876,-0.15,-0.0979,-0.0374,0.044,0.1165,0.1964,0.2456,0.2714,0.2856,0.3148,0.3299,0.3364,0.3377,0.3455,0.3571,0.3664,0.3753,0.3874,0.4039,0.4162,0.4267,0.4392,0.4587,0.4649,0.4796,0.4982,0.528,0.5295,0.5479,0.5559,0.5634,0.5668,0.5653,0.5613,0.5789,0.6096,0.656,0.6942,0.7403,-4.1588,-4.1588,-4.1588,-4.1588,-4.1588,-4.1236,-4.0898,-4.0439,-3.9622,-3.8299,-3.6721,-3.5254,-3.42,-3.3605,-3.3306,-3.3173,-3.275,-3.2085,-3.1491,-3.0612,-2.9436,-2.8554,-2.8018,-2.7626,-2.7219,-2.7231,-2.7231,-2.7149,-2.6974,-2.6727,-2.6124,-2.5557,-2.4882,-2.3949,-2.2661,-2.1127,-1.9652,-1.886,-1.8282,-1.8112,-1.7917,-1.7599,-1.7078,-1.6428,-1.573,-1.4697,-1.3745,-1.2851,-1.192,-1.1086,-1.0423,-0.9991,-0.9575,-0.9103,-0.8784,-0.8551,-0.8169,-0.7791,-0.7484,-0.719,-0.6812,-0.5752,-0.4771,-0.3995,-0.3763,-0.3292,-0.3059,-0.2824,-0.2668,-0.2588,-0.2503,-0.241,-0.232,-0.2321,-0.2082,-0.1687,-0.115,-0.0538,0.023,0.1132,0.1648,0.2314,0.2665,0.3079,0.3209,0.3401,0.3481,0.3578,0.361,0.3637,0.376,0.3954,0.405,0.419,0.4291,0.4479,0.4657,0.4866,0.5005,0.5118,0.5234,0.5467,0.5693,0.5702,0.586,0.6093,0.6247,0.6325,0.6247,0.6254,0.6405,0.6788,0.7249,0.7791,0.8174,-4.1588,-4.1588,-4.1588,-4.1588,-4.1538,-4.1221,-4.0659,-3.9964,-3.9405,-3.7866,-3.5583,-3.4569,-3.3845,-3.3308,-3.3021,-3.2969,-3.2732,-3.2027,-3.1252,-3.0289,-2.9332,-2.8431,-2.7869,-2.7476,-2.7231,-2.7231,-2.7138,-2.7138,-2.6891,-2.6633,-2.6041,-2.5262,-2.4303,-2.3513,-2.2425,-2.0587,-1.9032,-1.8394,-1.8031,-1.787,-1.77,-1.7359,-1.6976,-1.6244,-1.5486,-1.4667,-1.3676,-1.2749,-1.1968,-1.1158,-1.0442,-0.9958,-0.953,-0.9057,-0.8637,-0.8246,-0.7863,-0.7334,-0.703,-0.656,-0.6093,-0.4929,-0.4307,-0.3682,-0.3294,-0.2902,-0.2746,-0.2668,-0.2588,-0.251,-0.2431,-0.2345,-0.2266,-0.2264,-0.1562,-0.1089,-0.0545,-0.0,0.0937,0.1788,0.2239,0.2677,0.3183,0.3525,0.3659,0.3788,0.3745,0.3855,0.3867,0.3961,0.4053,0.4178,0.437,0.4456,0.4623,0.4801,0.5053,0.5304,0.5514,0.5678,0.586,0.6015,0.6247,0.6405,0.6556,0.6707,0.6861,0.7019,0.6945,0.6795,0.7099,0.748,0.7936,0.8475,0.8703,-4.1541,-4.1588,-4.1525,-4.1509,-4.1494,-4.1221,-4.0328,-3.9146,-3.8377,-3.6906,-3.4754,-3.3804,-3.3535,-3.3512,-3.3179,-3.2941,-3.2535,-3.1945,-3.11,-2.9945,-2.9034,-2.8351,-2.7869,-2.7464,-2.7231,-2.7231,-2.7149,-2.7056,-2.6798,-2.6373,-2.579,-2.4935,-2.3902,-2.3026,-2.2211,-2.0467,-1.9028,-1.8143,-1.7797,-1.77,-1.7456,-1.7057,-1.6601,-1.5996,-1.5223,-1.4324,-1.3509,-1.2622,-1.1834,-1.1139,-1.0333,-0.9843,-0.9594,-0.8789,-0.8336,-0.7936,-0.7484,-0.6876,-0.6338,-0.5709,-0.4929,-0.4231,-0.3684,-0.3294,-0.2902,-0.2668,-0.2588,-0.2588,-0.251,-0.2431,-0.2353,-0.2275,-0.2119,-0.1806,-0.11,-0.0393,0.0079,0.0629,0.1571,0.2198,0.2589,0.3051,0.3645,0.406,0.4199,0.4201,0.4087,0.4143,0.414,0.4267,0.4344,0.457,0.4699,0.49,0.5061,0.5195,0.5461,0.5709,0.6018,0.6251,0.6479,0.6707,0.6942,0.7099,0.7253,0.748,0.7633,0.7791,0.7791,0.7791,0.7868,0.8174,0.8703,0.9079,0.9311,-4.064,-4.0214,-4.0214,-4.0309,-4.0497,-4.0774,-4.0247,-3.9028,-3.7414,-3.5985,-3.482,-3.3575,-3.2858,-3.2849,-3.2581,-3.23,-3.1827,-3.102,-3.0126,-2.939,-2.8657,-2.8087,-2.7696,-2.7383,-2.7231,-2.7149,-2.7067,-2.6798,-2.6362,-2.5946,-2.5189,-2.4262,-2.2999,-2.1839,-2.0921,-1.9759,-1.8953,-1.8006,-1.77,-1.7538,-1.7049,-1.664,-1.6154,-1.5575,-1.4734,-1.3964,-1.3203,-1.2312,-1.1725,-1.1077,-1.0243,-0.9812,-0.9429,-0.8686,-0.8102,-0.771,-0.7176,-0.6251,-0.5318,-0.446,-0.3992,-0.3606,-0.3294,-0.2902,-0.2588,-0.251,-0.251,-0.251,-0.2431,-0.2353,-0.2431,-0.1648,-0.1335,-0.1021,-0.0393,0.0314,0.0864,0.1415,0.2123,0.2589,0.2981,0.3606,0.421,0.4431,0.4508,0.46,0.4553,0.4469,0.4538,0.4559,0.4689,0.4889,0.5118,0.5299,0.5499,0.5767,0.6093,0.6479,0.6791,0.7022,0.7253,0.7476,0.7633,0.7791,0.7944,0.8174,0.8327,0.8479,0.8784,0.8937,0.8861,0.8861,0.9236,0.9539,0.9765,-3.9945,-3.9518,-3.944,-3.9472,-3.9548,-3.9924,-3.9397,-3.7893,-3.5969,-3.4795,-3.4209,-3.3079,-3.2712,-3.2563,-3.2117,-3.1856,-3.151,-3.0522,-2.9767,-2.9052,-2.8486,-2.8007,-2.7603,-2.7301,-2.7231,-2.7149,-2.6891,-2.6528,-2.6113,-2.5432,-2.4413,-2.3222,-2.1891,-2.1119,-2.0321,-1.965,-1.8963,-1.811,-1.7688,-1.7212,-1.664,-1.6147,-1.5575,-1.4824,-1.4062,-1.3379,-1.2699,-1.2077,-1.1519,-1.0895,-1.0326,-0.9771,-0.917,-0.8572,-0.7893,-0.7403,-0.6402,-0.5395,-0.4307,-0.3761,-0.3372,-0.3215,-0.2902,-0.2746,-0.251,-0.251,-0.251,-0.2431,-0.2353,-0.2275,-0.2119,-0.1256,-0.0707,-0.0393,0.0314,0.1021,0.1493,0.2044,0.2514,0.2981,0.3526,0.4151,0.4621,0.4698,0.4825,0.4852,0.496,0.4952,0.4868,0.4972,0.5004,0.5182,0.5493,0.5739,0.5983,0.6311,0.671,0.7249,0.7484,0.7642,0.8016,0.8237,0.8399,0.8479,0.8632,0.8784,0.8937,0.9165,0.9392,0.9544,0.9539,0.9614,0.9771,0.9922,1.0073,-3.9455,-3.9439,-3.9267,-3.895,-3.8741,-3.8611,-3.7501,-3.5678,-3.4323,-3.3522,-3.3014,-3.2698,-3.255,-3.2859,-3.2031,-3.1686,-3.1635,-3.0548,-2.9727,-2.8973,-2.8339,-2.7926,-2.7534,-2.7301,-2.7138,-2.6974,-2.6715,-2.6279,-2.5768,-2.4659,-2.3464,-2.2344,-2.1463,-2.0669,-2.0096,-1.9428,-1.8795,-1.8129,-1.7368,-1.6754,-1.6154,-1.5492,-1.4817,-1.4062,-1.3379,-1.2699,-1.21,-1.1574,-1.1241,-1.0735,-1.0143,-0.9727,-0.911,-0.8373,-0.7622,-0.663,-0.5476,-0.4462,-0.3684,-0.3215,-0.2981,-0.2902,-0.2824,-0.2668,-0.2588,-0.2431,-0.2433,-0.2354,-0.2198,-0.2042,-0.1728,-0.1021,-0.0314,0.0314,0.1021,0.1571,0.2043,0.2514,0.2981,0.3448,0.3995,0.4543,0.4781,0.494,0.4937,0.5068,0.5104,0.5186,0.5257,0.534,0.5384,0.5552,0.5848,0.6163,0.6483,0.6865,0.7399,0.7936,0.8093,0.825,0.8703,0.8927,0.8932,0.9013,0.917,0.9397,0.9539,0.9614,0.9765,0.9916,0.9992,1.0067,1.0143,1.0218,1.038,-3.843,-3.7852,-3.7684,-3.7452,-3.7061,-3.6356,-3.5849,-3.5497,-3.4383,-3.367,-3.328,-3.255,-3.2364,-3.2239,-3.1649,-3.1254,-3.0712,-2.9997,-2.9221,-2.8566,-2.8099,-2.7626,-2.7301,-2.7138,-2.688,-2.6622,-2.6279,-2.5852,-2.5009,-2.3897,-2.2658,-2.1651,-2.0899,-2.0373,-1.9864,-1.9225,-1.8504,-1.7768,-1.6988,-1.6275,-1.5575,-1.4824,-1.4062,-1.3379,-1.2693,-1.2015,-1.1591,-1.1251,-1.0911,-1.0484,-0.9878,-0.9341,-0.881,-0.8007,-0.7173,-0.5783,-0.4696,-0.3841,-0.3294,-0.2902,-0.2668,-0.2668,-0.2592,-0.251,-0.2431,-0.2353,-0.2354,-0.2199,-0.1806,-0.1492,-0.1021,-0.0314,0.0314,0.1021,0.1649,0.2041,0.2512,0.2981,0.3448,0.3997,0.4543,0.4701,0.5018,0.5018,0.5093,0.5168,0.5321,0.5476,0.5631,0.5709,0.586,0.5941,0.6405,0.6791,0.7249,0.7633,0.8089,0.8546,0.8703,0.8861,0.9165,0.9316,0.9392,0.9468,0.9625,0.9771,0.9992,1.0067,1.0143,1.0293,1.0368,1.0363,1.0443,1.0558,1.0697,-3.7663,-3.7121,-3.6877,-3.6429,-3.5767,-3.4854,-3.4589,-3.4469,-3.3914,-3.3342,-3.2937,-3.2477,-3.2109,-3.1904,-3.1508,-3.0986,-3.0381,-2.9689,-2.887,-2.8143,-2.7742,-2.729,-2.6962,-2.6857,-2.6622,-2.6268,-2.5924,-2.5516,-2.4351,-2.2891,-2.1535,-2.0781,-2.021,-1.9766,-1.9192,-1.8506,-1.7843,-1.7199,-1.6536,-1.5786,-1.4985,-1.4237,-1.3476,-1.279,-1.21,-1.1585,-1.1165,-1.0916,-1.0559,-1.0149,-0.9633,-0.901,-0.8367,-0.745,-0.6173,-0.4851,-0.4151,-0.345,-0.2902,-0.2666,-0.251,-0.2516,-0.2529,-0.2373,-0.2282,-0.2196,-0.2041,-0.1806,-0.1257,-0.0786,-0.0157,0.055,0.11,0.173,0.212,0.2431,0.2978,0.3524,0.3995,0.4543,0.4779,0.4937,0.5093,0.5093,0.5249,0.5479,0.5786,0.6018,0.6096,0.6251,0.6328,0.6483,0.7019,0.7561,0.794,0.8322,0.8699,0.9003,0.9165,0.9322,0.9625,0.9695,0.9695,0.9846,0.9997,1.0143,1.0288,1.0363,1.0438,1.0519,1.0703,1.075,1.0802,1.0877,1.11,-3.7089,-3.6877,-3.6569,-3.5767,-3.4868,-3.4113,-3.3591,-3.3058,-3.3057,-3.2731,-3.2444,-3.2255,-3.2036,-3.173,-3.136,-3.081,-3.0126,-2.9353,-2.8445,-2.7671,-2.7256,-2.6746,-2.6411,-2.6405,-2.5902,-2.581,-2.5406,-2.4608,-2.3669,-2.2198,-2.0666,-1.9786,-1.9256,-1.8891,-1.8493,-1.7884,-1.7302,-1.6615,-1.6027,-1.5409,-1.465,-1.3808,-1.3052,-1.2363,-1.1757,-1.1154,-1.0911,-1.0564,-1.0202,-0.98,-0.9265,-0.8608,-0.7496,-0.6403,-0.5034,-0.4229,-0.3604,-0.3137,-0.2746,-0.251,-0.251,-0.2448,-0.2479,-0.2317,-0.2143,-0.1902,-0.1667,-0.1102,-0.055,0.0079,0.0786,0.1256,0.1806,0.2278,0.2669,0.3057,0.3524,0.3995,0.4465,0.4859,0.5012,0.509,0.5246,0.5246,0.5634,0.5867,0.6173,0.6483,0.6791,0.6868,0.7022,0.7096,0.7633,0.8169,0.8551,0.8932,0.9231,0.9463,0.962,0.9771,0.9997,0.9992,0.9992,1.0143,1.0293,1.0443,1.0513,1.0588,1.0669,1.0755,1.0883,1.1065,1.1159,1.1283,1.1528,-3.6646,-3.6336,-3.5574,-3.5001,-3.4467,-3.3908,-3.3409,-3.2988,-3.2704,-3.2431,-3.2241,-3.2036,-3.1817,-3.1596,-3.1061,-3.0432,-2.9651,-2.8937,-2.7917,-2.7092,-2.6611,-2.605,-2.5394,-2.538,-2.5051,-2.446,-2.3963,-2.3382,-2.2252,-2.1043,-2.013,-1.941,-1.8845,-1.8452,-1.7903,-1.7326,-1.6753,-1.6044,-1.5416,-1.4908,-1.4223,-1.3379,-1.2534,-1.1935,-1.1338,-1.0906,-1.0564,-1.0212,-0.9856,-0.945,-0.8726,-0.7732,-0.6441,-0.5347,-0.4465,-0.3839,-0.3292,-0.2902,-0.2588,-0.251,-0.2431,-0.2354,-0.2375,-0.2157,-0.1927,-0.161,-0.1123,-0.0396,0.0315,0.0945,0.1493,0.1963,0.2433,0.2746,0.3219,0.3606,0.4073,0.447,0.4862,0.5023,0.5176,0.5246,0.5398,0.5628,0.5938,0.6247,0.6556,0.6942,0.7561,0.7868,0.7868,0.8016,0.8394,0.8856,0.916,0.9463,0.976,0.9986,1.0143,1.0218,1.0363,1.0363,1.0363,1.0438,1.0588,1.0663,1.0812,1.0887,1.0968,1.098,1.1123,1.1336,1.163,1.186,1.198,-3.583,-3.547,-3.4802,-3.4332,-3.3977,-3.3479,-3.3002,-3.2646,-3.23,-3.2009,-3.1803,-3.173,-3.1582,-3.1286,-3.0672,-2.996,-2.916,-2.8474,-2.754,-2.66,-2.5927,-2.5371,-2.4957,-2.4535,-2.427,-2.3737,-2.297,-2.2145,-2.0945,-2.0228,-1.9552,-1.8742,-1.828,-1.7774,-1.7217,-1.6683,-1.6186,-1.5396,-1.4726,-1.4166,-1.3633,-1.2954,-1.2186,-1.1591,-1.1079,-1.0646,-1.0217,-0.9941,-0.9402,-0.8679,-0.7789,-0.6659,-0.562,-0.4704,-0.3997,-0.345,-0.2981,-0.2746,-0.251,-0.2431,-0.2353,-0.2354,-0.2147,-0.1936,-0.1055,-0.0651,-0.0327,0.0404,0.0883,0.1524,0.1894,0.2277,0.2668,0.3059,0.3614,0.4166,0.4491,0.4818,0.508,0.5272,0.5396,0.5479,0.5709,0.6096,0.6405,0.6945,0.7173,0.7553,0.8174,0.8708,0.8784,0.8937,0.9231,0.9458,0.969,0.9911,1.0137,1.0363,1.0513,1.0513,1.0438,1.0588,1.0663,1.0663,1.0738,1.0887,1.1037,1.1055,1.1043,1.1043,1.1323,1.1552,1.1945,1.2277,1.2556,-3.4696,-3.4334,-3.3978,-3.3642,-3.331,-3.2818,-3.2431,-3.2169,-3.1963,-3.1582,-3.1259,-3.1334,-3.1185,-3.081,-3.0279,-2.9614,-2.8839,-2.7997,-2.7023,-2.6029,-2.536,-2.4679,-2.4213,-2.3935,-2.3466,-2.2822,-2.201,-2.1267,-2.0258,-1.958,-1.8792,-1.7929,-1.7383,-1.6828,-1.6312,-1.5741,-1.5195,-1.4713,-1.4075,-1.3561,-1.3045,-1.2528,-1.1929,-1.1413,-1.0814,-1.0381,-1.0038,-0.9548,-0.8944,-0.801,-0.693,-0.5778,-0.4896,-0.4153,-0.3606,-0.3061,-0.2824,-0.2588,-0.251,-0.2352,-0.2353,-0.2287,-0.2009,-0.1301,-0.0327,0.0247,0.0661,0.1077,0.1647,0.1947,0.2236,0.2686,0.3079,0.3528,0.4088,0.4587,0.4844,0.5089,0.528,0.5485,0.5665,0.5733,0.6099,0.6486,0.7026,0.7484,0.7944,0.8399,0.878,0.9236,0.9539,0.969,0.9911,1.0137,1.0293,1.0368,1.0513,1.0663,1.0738,1.0663,1.0588,1.0738,1.0812,1.0881,1.0962,1.1073,1.1085,1.1172,1.1154,1.1208,1.1538,1.1903,1.2228,1.2631,1.3022,-3.3073,-3.2493,-3.2461,-3.2318,-3.2111,-3.2068,-3.2036,-3.1877,-3.1542,-3.1272,-3.0869,-3.0469,-3.0343,-3.0495,-3.0088,-2.9266,-2.8168,-2.7364,-2.6069,-2.4867,-2.4636,-2.3864,-2.3231,-2.3075,-2.236,-2.1605,-2.0878,-2.0,-1.946,-1.877,-1.7972,-1.7302,-1.7057,-1.6484,-1.5824,-1.5325,-1.4741,-1.4153,-1.3385,-1.279,-1.2357,-1.1929,-1.1671,-1.1073,-1.0472,-1.0033,-0.9566,-0.8923,-0.8425,-0.7529,-0.6237,-0.5069,-0.4242,-0.3686,-0.3217,-0.2902,-0.2668,-0.251,-0.2353,-0.2275,-0.2276,-0.2043,-0.1518,-0.0405,0.0409,0.1168,0.1599,0.2138,0.2457,0.2488,0.2776,0.3401,0.379,0.4117,0.4641,0.4864,0.5148,0.5272,0.5416,0.5756,0.5988,0.6227,0.656,0.7022,0.7714,0.8174,0.8708,0.9089,0.9463,0.9841,1.0218,1.0368,1.0513,1.0663,1.0663,1.0663,1.0738,1.0881,1.0956,1.0887,1.0887,1.0962,1.1043,1.1033,1.1127,1.1226,1.1232,1.1374,1.1484,1.1658,1.1944,1.2277,1.2675,1.3048,1.3407]},{"header":{"parameterUnit":"m.s-1","parameterCategory":1,"la1":31.0,"la2":29.5877,"lo1":-88.7671,"lo2":-86.6584,"dy":0.0162,"dx":0.0185,"nx":115,"ny":88,"refTime":"2024-02-19T06:00:00:Z","depth":0,"parameterNumber":3,"parameterNumberName":"V-component_of_WINDS"},"data":[0.0,0.0,0.0,0.0,0.0,0.0,0.0,0.0,0.0,0.0,0.0,0.0,0.0,0.0,0.0,0.0,0.0,0.0,0.0,0.0,0.0,0.0,0.0,0.0,0.0,0.0,0.0,0.0,0.0,0.0,0.0,0.0,0.0,0.0,0.0,0.0,0.0,0.0,0.0,0.0,0.0,0.0,0.0,0.0,0.0,0.0,0.0,0.0,0.0,0.0,0.0,0.0,0.0,0.0,0.0,0.0,0.0,0.0,0.0,0.0,0.0,0.0,0.0,0.0,0.0,0.0,0.0,0.0,0.0,0.0,0.0,0.0,0.0,0.0,0.0,0.0,0.0,0.0,0.0,0.0,0.0,0.0,0.0,0.0,0.0,0.0,0.0,0.0,0.0,0.0,0.0,0.0,0.0,0.0,0.0,0.0,0.0,0.0,0.0,0.0,0.0,0.0,0.0,0.0,0.0,0.0,0.0,0.0,0.0,0.0,0.0,0.0,0.0,0.0,0.0,0.0,0.0,0.0,0.0,0.0,0.0,0.0,0.0,0.0,0.0,0.0,0.0,0.0,0.0,0.0,0.0,0.0,0.0,0.0,0.0,0.0,0.0,0.0,0.0,0.0,0.0,0.0,0.0,0.0,0.0,0.0,0.0,0.0,0.0,0.0,0.0,0.0,0.0,0.0,0.0,0.0,0.0,0.0,0.0,0.0,0.0,0.0,0.0,0.0,0.0,0.0,0.0,0.0,0.0,0.0,0.0,0.0,0.0,0.0,0.0,0.0,0.0,0.0,0.0,0.0,0.0,0.0,0.0,0.0,0.0,0.0,0.0,0.0,0.0,0.0,0.0,0.0,0.0,0.0,0.0,0.0,0.0,0.0,0.0,0.0,0.0,0.0,0.0,0.0,0.0,0.0,0.0,0.0,0.0,0.0,0.0,0.0,0.0,0.0,0.0,0.0,0.0,0.0,0.0,0.0,0.0,0.0,0.0,0.0,0.0,0.0,0.0,0.0,0.0,0.0,0.0,0.0,0.0,0.0,0.0,0.0,0.0,0.0,0.0,0.0,0.0,0.0,0.0,0.0,0.0,0.0,0.0,0.0,0.0,0.0,0.0,0.0,0.0,0.0,0.0,0.0,0.0,0.0,0.0,0.0,0.0,0.0,0.0,0.0,0.0,0.0,0.0,0.0,0.0,0.0,0.0,0.0,0.0,0.0,0.0,0.0,0.0,0.0,0.0,0.0,0.0,0.0,0.0,0.0,0.0,0.0,0.0,0.0,0.0,0.0,0.0,0.0,0.0,0.0,0.0,0.0,0.0,0.0,0.0,0.0,0.0,0.0,0.0,0.0,0.0,0.0,0.0,0.0,0.0,0.0,0.0,0.0,0.0,0.0,0.0,0.0,0.0,0.0,0.0,0.0,0.0,0.0,0.0,0.0,0.0,0.0,0.0,0.0,0.0,0.0,0.0,0.0,0.0,0.0,0.0,0.0,0.0,0.0,0.0,0.0,0.0,0.0,0.0,0.0,0.0,0.0,0.0,0.0,0.0,0.0,0.0,0.0,0.0,0.0,0.0,0.0,0.0,0.0,0.0,0.0,0.0,0.0,0.0,0.0,0.0,0.0,0.0,0.0,0.0,0.0,0.0,0.0,0.0,0.0,0.0,0.0,0.0,0.0,0.0,0.0,0.0,0.0,0.0,0.0,0.0,0.0,0.0,0.0,0.0,0.0,0.0,0.0,0.0,0.0,0.0,0.0,0.0,0.0,0.0,0.0,0.0,0.0,0.0,0.0,0.0,0.0,0.0,0.0,0.0,0.0,0.0,0.0,0.0,0.0,0.0,0.0,0.0,0.0,0.0,0.0,0.0,0.0,0.0,0.0,0.0,0.0,0.0,0.0,0.0,0.0,0.0,0.0,0.0,0.0,0.0,0.0,0.0,0.0,0.0,0.0,0.0,0.0,0.0,0.0,0.0,0.0,0.0,0.0,0.0,0.0,0.0,0.0,0.0,0.0,0.0,0.0,0.0,0.0,0.0,0.0,0.0,0.0,0.0,0.0,0.0,0.0,0.0,0.0,0.0,0.0,0.0,0.0,0.0,0.0,0.0,0.0,0.0,0.0,0.0,0.0,0.0,0.0,0.0,0.0,0.0,0.0,0.0,0.0,0.0,0.0,0.0,0.0,0.0,0.0,0.0,0.0,0.0,0.0,0.0,0.0,0.0,0.0,0.0,0.0,0.0,0.0,0.0,0.0,0.0,0.0,0.0,0.0,0.0,0.0,0.0,0.0,0.0,0.0,0.0,0.0,0.0,0.0,0.0,0.0,0.0,0.0,0.0,0.0,0.0,0.0,0.0,0.0,0.0,0.0,0.0,0.0,0.0,0.0,0.0,0.0,0.0,0.0,0.0,0.0,0.0,0.0,0.0,0.0,0.0,0.0,0.0,0.0,0.0,0.0,0.0,0.0,0.0,0.0,0.0,0.0,0.0,0.0,0.0,0.0,0.0,0.0,0.0,0.0,0.0,0.0,0.0,0.0,0.0,0.0,0.0,0.0,0.0,0.0,0.0,0.0,0.0,0.0,0.0,0.0,0.0,0.0,0.0,0.0,0.0,0.0,0.0,0.0,0.0,0.0,0.0,0.0,0.0,0.0,0.0,0.0,0.0,0.0,0.0,0.0,0.0,0.0,0.0,0.0,0.0,0.0,0.0,0.0,0.0,0.0,0.0,0.0,0.0,0.0,0.0,0.0,0.0,0.0,0.0,0.0,0.0,0.0,0.0,0.0,0.0,0.0,0.0,0.0,0.0,0.0,0.0,0.0,0.0,0.0,0.0,0.0,0.0,0.0,0.0,0.0,0.0,0.0,0.0,0.0,0.0,0.0,0.0,0.0,0.0,0.0,0.0,0.0,0.0,0.0,0.0,0.0,0.0,0.0,0.0,0.0,0.0,0.0,0.0,0.0,0.0,0.0,0.0,0.0,0.0,0.0,0.0,0.0,0.0,0.0,0.0,0.0,0.0,0.0,0.0,0.0,0.0,0.0,0.0,0.0,0.0,0.0,0.0,0.0,0.0,0.0,0.0,0.0,0.0,0.0,0.0,0.0,0.0,0.0,0.0,0.0,0.0,0.0,0.0,0.0,0.0,0.0,0.0,0.0,0.0,0.0,0.0,0.0,0.0,0.0,0.0,0.0,0.0,0.0,0.0,0.0,0.0,0.0,0.0,0.0,0.0,0.0,0.0,0.0,0.0,0.0,0.0,0.0,0.0,0.0,0.0,0.0,0.0,0.0,0.0,0.0,0.0,0.0,0.0,0.0,0.0,0.0,0.0,0.0,0.0,0.0,0.0,0.0,0.0,0.0,0.0,0.0,0.0,0.0,0.0,0.0,0.0,0.0,0.0,0.0,0.0,0.0,0.0,0.0,0.0,0.0,0.0,0.0,0.0,0.0,0.0,0.0,0.0,0.0,0.0,0.0,0.0,0.0,0.0,0.0,0.0,0.0,0.0,0.0,0.0,0.0,0.0,0.0,0.0,0.0,0.0,0.0,0.0,0.0,0.0,0.0,0.0,0.0,0.0,0.0,0.0,0.0,0.0,0.0,0.0,0.0,0.0,0.0,0.0,0.0,0.0,0.0,0.0,0.0,0.0,0.0,0.0,0.0,0.0,0.0,0.0,0.0,0.0,0.0,0.0,0.0,0.0,0.0,0.0,0.0,0.0,0.0,0.0,0.0,0.0,0.0,0.0,0.0,0.0,0.0,0.0,0.0,0.0,0.0,0.0,0.0,0.0,0.0,0.0,0.0,0.0,0.0,0.0,0.0,0.0,0.0,0.0,0.0,0.0,0.0,0.0,0.0,0.0,0.0,0.0,0.0,0.0,0.0,0.0,0.0,0.0,0.0,0.0,0.0,0.0,0.0,0.0,0.0,0.0,0.0,0.0,0.0,0.0,0.0,0.0,0.0,0.0,0.0,0.0,0.0,0.0,0.0,0.0,0.0,0.0,0.0,0.0,0.0,0.0,0.0,0.0,0.0,0.0,0.0,0.0,0.0,0.0,0.0,0.0,0.0,0.0,0.0,0.0,0.0,0.0,0.0,0.0,0.0,0.0,0.0,0.0,0.0,0.0,0.0,0.0,0.0,0.0,0.0,0.0,0.0,0.0,0.0,0.0,0.0,0.0,0.0,0.0,0.0,0.0,0.0,0.0,0.0,0.0,0.0,0.0,0.0,0.0,0.0,0.0,0.0,0.0,0.0,0.0,0.0,0.0,0.0,0.0,0.0,-0.4715,0.0,0.0,0.0,0.0,0.0,0.0,0.0,0.0,0.0,0.0,0.0,0.0,0.0,0.0,0.0,0.0,0.0,0.0,0.0,0.0,0.0,0.0,0.0,0.0,0.0,0.0,0.0,0.0,0.0,0.0,0.0,0.0,0.0,0.0,0.0,0.0,0.0,0.0,0.0,0.0,0.0,0.0,0.0,0.0,0.0,0.0,0.0,0.0,0.0,0.0,0.0,0.0,0.0,0.0,0.0,0.0,0.0,0.0,0.0,0.0,0.0,0.0,0.0,0.0,0.0,0.0,0.0,0.0,0.0,0.0,0.0,0.0,0.0,0.0,0.0,0.0,0.0,0.0,0.0,0.0,0.0,0.0,0.0,0.0,0.0,0.0,0.0,0.0,0.0,0.0,0.0,0.0,0.0,0.0,0.0,0.0,0.0,0.0,0.0,0.0,0.0,0.0,0.0,0.0,0.0,0.0,0.0,0.0,0.0,0.0,-0.5374,-0.4909,-0.5575,-0.5564,-0.4758,0.0,0.0,0.0,0.0,0.0,0.0,0.0,0.0,0.0,0.0,0.0,0.0,0.0,0.0,0.0,0.0,0.0,0.0,0.0,0.0,0.0,0.0,0.0,0.0,0.0,0.0,0.0,0.0,0.0,0.0,0.0,0.0,0.0,0.0,0.0,0.0,0.0,0.0,0.0,0.0,0.0,0.0,0.0,0.0,0.0,0.0,0.0,0.0,0.0,0.0,0.0,0.0,0.0,0.0,0.0,0.0,0.0,0.0,0.0,0.0,0.0,0.0,0.0,0.0,0.0,0.0,0.0,0.0,0.0,0.0,0.0,0.0,0.0,0.0,0.0,0.0,0.0,0.0,0.0,0.0,0.0,0.0,0.0,0.0,0.0,0.0,0.0,0.0,0.0,0.0,0.0,0.0,0.0,0.0,0.0,0.0,0.0,0.0,0.0,0.0,0.0,0.0,0.0,0.0,0.0,0.0,0.0,0.0,0.0,0.0,0.0,0.0,-0.5643,-0.5612,-0.5018,0.0,0.0,0.0,0.0,0.0,0.0,0.0,0.0,0.0,0.0,0.0,0.0,0.0,0.0,0.0,0.0,0.0,0.0,0.0,0.0,0.0,0.0,0.0,0.0,0.0,0.0,0.0,0.0,0.0,0.0,0.0,0.0,0.0,0.0,0.0,0.0,0.0,0.0,0.0,0.0,0.0,0.0,0.0,0.0,0.0,0.0,0.0,0.0,0.0,0.0,0.0,0.0,0.0,0.0,0.0,0.0,0.0,0.0,0.0,0.0,0.0,0.0,0.0,0.0,0.0,0.0,0.0,0.0,0.0,0.0,0.0,0.0,0.0,0.0,0.0,0.0,0.0,0.0,0.0,0.0,0.0,0.0,0.0,0.0,0.0,0.0,0.0,0.0,0.0,0.0,0.0,0.0,0.0,0.0,0.0,0.0,0.0,0.0,0.0,0.0,0.0,0.0,0.0,0.0,0.0,0.0,0.0,0.0,0.0,0.0,-0.534,-0.5713,-0.5669,0.0,-0.5508,0.0,0.0,0.0,0.0,0.0,0.0,0.0,0.0,0.0,0.0,0.0,0.0,0.0,0.0,0.0,0.0,0.0,0.0,0.0,0.0,0.0,0.0,0.0,0.0,0.0,0.0,0.0,0.0,0.0,0.0,0.0,0.0,0.0,0.0,0.0,0.0,0.0,0.0,0.0,0.0,0.0,0.0,0.0,0.0,0.0,0.0,0.0,0.0,0.0,0.0,0.0,0.0,0.0,0.0,0.0,0.0,0.0,0.0,0.0,0.0,0.0,0.0,0.0,0.0,0.0,0.0,0.0,0.0,0.0,0.0,0.0,0.0,0.0,0.0,0.0,0.0,0.0,0.0,0.0,0.0,0.0,0.0,0.0,0.0,0.0,0.0,0.0,0.0,0.0,0.0,0.0,0.0,0.0,0.0,0.0,0.0,0.0,0.0,0.0,0.0,0.0,0.0,0.0,0.0,0.0,0.0,0.0,0.0,0.0,0.0,-0.5331,-0.5857,-0.5725,-0.5535,0.0,0.0,0.0,0.0,0.0,0.0,0.0,0.0,0.0,0.0,0.0,0.0,0.0,0.0,0.0,0.0,0.0,0.0,0.0,0.0,0.0,0.0,0.0,0.0,0.0,0.0,0.0,0.0,0.0,0.0,0.0,0.0,0.0,0.0,0.0,0.0,0.0,0.0,0.0,0.0,0.0,0.0,0.0,0.0,0.0,0.0,0.0,0.0,0.0,0.0,0.0,0.0,0.0,0.0,0.0,0.0,0.0,0.0,0.0,0.0,0.0,0.0,0.0,0.0,0.0,0.0,0.0,0.0,0.0,0.0,0.0,0.0,0.0,0.0,0.0,0.0,0.0,0.0,0.0,0.0,0.0,0.0,0.0,0.0,0.0,0.0,0.0,0.0,0.0,0.0,0.0,0.0,0.0,0.0,0.0,0.0,0.0,0.0,0.0,0.0,0.0,0.0,0.0,0.0,0.0,0.0,0.0,0.0,0.0,0.0,-0.5512,-0.5621,-0.6084,-0.5764,-0.5486,-0.5322,0.0,0.0,0.0,0.0,0.0,0.0,0.0,0.0,0.0,0.0,0.0,0.0,0.0,0.0,0.0,0.0,0.0,0.0,0.0,0.0,0.0,0.0,0.0,0.0,0.0,0.0,0.0,0.0,0.0,0.0,0.0,0.0,0.0,0.0,0.0,0.0,0.0,0.0,0.0,0.0,0.0,0.0,0.0,0.0,0.0,0.0,0.0,0.0,0.0,0.0,0.0,0.0,0.0,0.0,0.0,0.0,0.0,0.0,0.0,0.0,0.0,0.0,0.0,0.0,0.0,0.0,0.0,0.0,0.0,0.0,0.0,0.0,0.0,0.0,0.0,0.0,0.0,0.0,0.0,0.0,0.0,0.0,0.0,0.0,0.0,0.0,0.0,0.0,0.0,0.0,0.0,0.0,0.0,0.0,0.0,0.0,0.0,0.0,0.0,0.0,0.0,0.0,0.0,0.0,0.0,0.0,0.0,0.0,-0.6328,-0.6202,-0.6304,-0.6592,-0.5732,-0.5412,0.0,0.0,0.0,0.0,0.0,0.0,0.0,0.0,0.0,0.0,0.0,0.0,0.0,0.0,0.0,0.0,0.0,0.0,0.0,0.0,0.0,0.0,0.0,0.0,0.0,0.0,0.0,0.0,0.0,0.0,0.0,0.0,0.0,0.0,0.0,0.0,0.0,0.0,0.0,0.0,0.0,0.0,0.0,0.0,0.0,0.0,0.0,0.0,0.0,0.0,0.0,0.0,0.0,0.0,0.0,0.0,0.0,0.0,0.0,0.0,0.0,0.0,0.0,0.0,0.0,0.0,0.0,0.0,0.0,0.0,0.0,0.0,0.0,0.0,0.0,0.0,0.0,0.0,0.0,0.0,0.0,0.0,0.0,0.0,0.0,0.0,0.0,0.0,0.0,0.0,0.0,0.0,0.0,0.0,0.0,0.0,0.0,0.0,0.0,0.0,0.0,0.0,0.0,0.0,0.0,0.0,0.0,0.0,0.0,-0.6145,-0.6168,-0.6076,-0.5879,-0.5807,-0.5694,0.0,0.0,0.0,0.0,0.0,0.0,0.0,0.0,0.0,0.0,0.0,0.0,0.0,0.0,0.0,0.0,0.0,0.0,0.0,0.0,0.0,0.0,0.0,0.0,0.0,0.0,0.0,0.0,0.0,0.0,0.0,0.0,0.0,0.0,0.0,0.0,0.0,0.0,0.0,0.0,0.0,0.0,0.0,0.0,0.0,0.0,0.0,0.0,0.0,0.0,0.0,0.0,0.0,0.0,0.0,0.0,0.0,0.0,0.0,0.0,0.0,0.0,0.0,0.0,0.0,0.0,0.0,0.0,0.0,0.0,0.0,0.0,0.0,0.0,0.0,0.0,0.0,0.0,0.0,0.0,0.0,0.0,0.0,0.0,0.0,0.0,0.0,0.0,0.0,0.0,0.0,0.0,0.0,0.0,0.0,0.0,0.0,0.0,0.0,0.0,0.0,0.0,0.0,0.0,0.0,0.0,0.0,0.0,0.0,-0.6544,0.0,-0.6212,-0.5981,-0.6118,-0.5941,0.0,0.0,0.0,0.0,0.0,0.0,0.0,0.0,0.0,0.0,0.0,0.0,0.0,0.0,0.0,0.0,0.0,0.0,0.0,0.0,0.0,0.0,0.0,0.0,0.0,0.0,0.0,0.0,0.0,0.0,0.0,0.0,0.0,0.0,0.0,0.0,0.0,0.0,0.0,0.0,0.0,0.0,0.0,0.0,0.0,0.0,0.0,0.0,0.0,0.0,0.0,0.0,0.0,0.0,0.0,0.0,0.0,0.0,0.0,0.0,0.0,0.0,0.0,0.0,0.0,0.0,0.0,0.0,0.0,0.0,0.0,0.0,0.0,0.0,0.0,0.0,0.0,0.0,0.0,0.0,0.0,0.0,0.0,0.0,0.0,0.0,0.0,0.0,0.0,0.0,0.0,0.0,0.0,0.0,0.0,0.0,0.0,0.0,0.0,0.0,0.0,0.0,0.0,0.0,0.0,0.0,0.0,0.0,-0.6968,-0.7618,-0.6975,-0.6803,-0.7178,-0.6673,-0.6188,0.0,0.0,0.0,0.0,0.0,0.0,0.0,0.0,0.0,0.0,0.0,0.0,0.0,0.0,0.0,0.0,0.0,0.0,0.0,0.0,0.0,0.0,0.0,0.0,0.0,0.0,0.0,0.0,0.0,0.0,0.0,0.0,0.0,0.0,0.0,0.0,0.0,0.0,0.0,0.0,0.0,0.0,0.0,0.0,0.0,0.0,0.0,0.0,0.0,0.0,0.0,0.0,0.0,0.0,0.0,0.0,0.0,0.0,0.0,0.0,0.0,0.0,0.0,0.0,0.0,0.0,0.0,0.0,0.0,0.0,0.0,0.0,0.0,0.0,0.0,0.0,0.0,0.0,0.0,0.0,0.0,0.0,0.0,0.0,0.0,0.0,0.0,0.0,0.0,0.0,0.0,0.0,0.0,0.0,0.0,0.0,0.0,0.0,0.0,0.0,0.0,0.0,0.0,0.0,0.0,0.0,0.0,0.0,0.0,-0.7494,-0.7488,-0.7514,-0.7531,-0.6964,-0.6574,0.0,0.0,0.0,0.0,0.0,0.0,0.0,0.0,0.0,0.0,0.0,0.0,0.0,0.0,0.0,0.0,0.0,0.0,0.0,0.0,0.0,0.0,0.0,0.0,0.0,0.0,0.0,0.0,0.0,0.0,0.0,0.0,0.0,0.0,0.0,0.0,0.0,0.0,0.0,0.0,0.0,0.0,0.0,0.0,0.0,0.0,0.0,0.0,0.0,0.0,0.0,0.0,0.0,0.0,0.0,0.0,0.0,0.0,0.0,0.0,0.0,0.0,0.0,0.0,0.0,0.0,0.0,0.0,0.0,0.0,0.0,0.0,0.0,0.0,0.0,0.0,0.0,0.0,0.0,0.0,0.0,0.0,0.0,0.0,0.0,0.0,0.0,0.0,0.0,0.0,0.0,0.0,0.0,0.0,0.0,0.0,0.0,0.0,0.0,0.0,0.0,0.0,0.0,0.0,0.0,0.0,0.0,0.0,0.0,-0.9231,-0.9254,-0.9119,-0.8765,-0.8359,-0.7827,-0.7168,0.0,0.0,0.0,0.0,0.0,0.0,0.0,0.0,0.0,0.0,0.0,0.0,0.0,0.0,0.0,0.0,0.0,0.0,0.0,0.0,0.0,0.0,0.0,0.0,0.0,0.0,0.0,0.0,0.0,0.0,0.0,0.0,0.0,0.0,0.0,0.0,0.0,0.0,0.0,0.0,0.0,0.0,0.0,0.0,0.0,0.0,0.0,0.0,0.0,0.0,0.0,0.0,0.0,0.0,0.0,0.0,0.0,0.0,0.0,0.0,0.0,0.0,0.0,0.0,0.0,0.0,0.0,0.0,0.0,0.0,0.0,0.0,0.0,0.0,0.0,0.0,0.0,0.0,0.0,0.0,0.0,0.0,0.0,0.0,0.0,0.0,0.0,0.0,0.0,0.0,0.0,0.0,0.0,0.0,0.0,0.0,0.0,0.0,0.0,0.0,0.0,0.0,0.0,0.0,0.0,0.0,0.0,0.0,-1.2432,-1.2079,-1.147,-1.0648,-1.0469,-0.9656,0.0,0.0,0.0,0.0,0.0,0.0,0.0,0.0,0.0,0.0,0.0,0.0,0.0,0.0,0.0,0.0,0.0,0.0,0.0,0.0,0.0,0.0,0.0,0.0,0.0,0.0,0.0,0.0,0.0,0.0,0.0,0.0,0.0,0.0,0.0,0.0,0.0,0.0,0.0,0.0,0.0,0.0,0.0,0.0,0.0,0.0,0.0,0.0,0.0,0.0,0.0,0.0,0.0,0.0,0.0,0.0,0.0,0.0,0.0,0.0,0.0,0.0,0.0,0.0,0.0,0.0,0.0,0.0,0.0,0.0,0.0,0.0,0.0,0.0,0.0,0.0,0.0,0.0,0.0,0.0,0.0,0.0,0.0,0.0,0.0,0.0,0.0,0.0,0.0,0.0,0.0,0.0,0.0,0.0,0.0,0.0,0.0,0.0,0.0,0.0,0.0,0.0,0.0,0.0,0.0,0.0,0.0,0.0,0.0,-1.4324,-1.4981,-1.4302,-1.2263,-1.1293,-1.0158,0.0,0.0,0.0,0.0,0.0,0.0,0.0,0.0,0.0,0.0,0.0,0.0,0.0,0.0,0.0,0.0,0.0,0.0,0.0,0.0,0.0,0.0,0.0,0.0,0.0,0.0,0.0,0.0,0.0,0.0,0.0,0.0,0.0,0.0,0.0,0.0,0.0,0.0,0.0,0.0,0.0,0.0,0.0,0.0,0.0,0.0,0.0,0.0,0.0,0.0,0.0,0.0,0.0,0.0,0.0,0.0,0.0,0.0,0.0,0.0,0.0,0.0,0.0,0.0,0.0,0.0,0.0,0.0,0.0,0.0,0.0,0.0,0.0,0.0,0.0,0.0,0.0,0.0,0.0,0.0,0.0,0.0,0.0,0.0,0.0,0.0,0.0,0.0,0.0,0.0,0.0,0.0,0.0,0.0,0.0,0.0,0.0,0.0,0.0,0.0,0.0,0.0,0.0,0.0,0.0,0.0,0.0,0.0,-1.3987,-1.5973,-1.6507,-1.6206,-1.4963,-1.333,-1.1667,0.0,0.0,0.0,0.0,0.0,0.0,0.0,0.0,0.0,0.0,0.0,0.0,0.0,0.0,0.0,0.0,0.0,0.0,0.0,0.0,0.0,0.0,0.0,0.0,0.0,0.0,0.0,0.0,0.0,0.0,0.0,0.0,0.0,0.0,0.0,0.0,0.0,0.0,0.0,0.0,0.0,0.0,0.0,0.0,0.0,0.0,0.0,0.0,0.0,0.0,0.0,0.0,0.0,0.0,0.0,0.0,0.0,0.0,0.0,0.0,0.0,0.0,0.0,0.0,0.0,0.0,0.0,0.0,0.0,0.0,0.0,0.0,0.0,0.0,0.0,0.0,0.0,0.0,0.0,0.0,0.0,0.0,0.0,0.0,0.0,0.0,0.0,0.0,0.0,0.0,0.0,0.0,0.0,0.0,0.0,0.0,0.0,0.0,0.0,0.0,0.0,0.0,0.0,0.0,0.0,0.0,0.0,0.0,-1.4962,-1.7332,-1.7235,-1.7365,-1.78,-1.5798,-1.3585,0.0,0.0,0.0,0.0,0.0,0.0,0.0,0.0,0.0,0.0,0.0,0.0,0.0,0.0,0.0,0.0,0.0,0.0,0.0,0.0,0.0,0.0,0.0,0.0,0.0,0.0,0.0,0.0,0.0,0.0,0.0,0.0,0.0,0.0,0.0,0.0,0.0,0.0,0.0,0.0,0.0,0.0,0.0,0.0,0.0,0.0,0.0,0.0,0.0,0.0,0.0,0.0,0.0,0.0,0.0,0.0,0.0,0.0,0.0,0.0,0.0,0.0,0.0,0.0,0.0,0.0,0.0,0.0,0.0,0.0,0.0,0.0,0.0,0.0,0.0,0.0,0.0,0.0,0.0,0.0,0.0,0.0,0.0,0.0,0.0,0.0,0.0,0.0,0.0,0.0,0.0,0.0,0.0,0.0,0.0,0.0,0.0,0.0,0.0,0.0,0.0,0.0,0.0,0.0,0.0,0.0,0.0,0.0,-1.5686,-1.7926,-1.8021,-1.7997,-1.7895,-1.5898,-1.3947,0.0,0.0,0.0,0.0,0.0,0.0,0.0,0.0,0.0,0.0,0.0,0.0,0.0,0.0,0.0,0.0,0.0,0.0,0.0,0.0,0.0,0.0,0.0,0.0,0.0,0.0,0.0,0.0,0.0,0.0,0.0,0.0,0.0,0.0,0.0,0.0,0.0,0.0,0.0,0.0,0.0,0.0,0.0,0.0,0.0,0.0,0.0,0.0,-1.0965,0.0,0.0,0.0,0.0,0.0,0.0,0.0,0.0,0.0,0.0,0.0,0.0,0.0,0.0,0.0,0.0,0.0,0.0,0.0,0.0,0.0,0.0,0.0,0.0,0.0,0.0,0.0,0.0,0.0,0.0,0.0,0.0,0.0,0.0,0.0,0.0,0.0,0.0,0.0,0.0,0.0,0.0,0.0,0.0,0.0,0.0,0.0,0.0,0.0,0.0,0.0,0.0,0.0,0.0,0.0,0.0,0.0,0.0,0.0,-1.6326,-1.8035,-1.8412,-1.8489,-1.8266,-1.6537,-1.4715,0.0,0.0,0.0,0.0,0.0,0.0,0.0,0.0,0.0,0.0,0.0,0.0,0.0,0.0,0.0,0.0,0.0,0.0,0.0,0.0,0.0,0.0,0.0,0.0,0.0,0.0,0.0,0.0,0.0,0.0,0.0,0.0,0.0,0.0,0.0,0.0,0.0,0.0,0.0,0.0,0.0,0.0,0.0,0.0,0.0,0.0,0.0,0.0,0.0,0.0,0.0,0.0,0.0,0.0,0.0,0.0,0.0,0.0,0.0,0.0,0.0,0.0,0.0,0.0,0.0,0.0,0.0,0.0,0.0,0.0,0.0,0.0,0.0,0.0,0.0,0.0,0.0,0.0,0.0,0.0,0.0,0.0,0.0,0.0,0.0,0.0,0.0,0.0,0.0,0.0,0.0,0.0,0.0,0.0,0.0,0.0,0.0,0.0,0.0,0.0,0.0,0.0,0.0,0.0,0.0,0.0,0.0,-1.515,-1.6731,-1.7993,-1.8582,-1.8831,-1.8669,-1.7275,-1.5549,-1.358,0.0,0.0,0.0,0.0,0.0,0.0,0.0,0.0,0.0,0.0,0.0,0.0,0.0,0.0,0.0,0.0,0.0,0.0,0.0,0.0,0.0,0.0,0.0,0.0,0.0,0.0,0.0,0.0,0.0,0.0,0.0,0.0,0.0,0.0,0.0,0.0,0.0,0.0,-1.0529,-1.1119,0.0,0.0,0.0,0.0,0.0,0.0,0.0,0.0,-1.0963,0.0,0.0,0.0,0.0,0.0,0.0,0.0,0.0,0.0,0.0,0.0,0.0,0.0,0.0,0.0,0.0,0.0,0.0,0.0,0.0,0.0,0.0,0.0,0.0,0.0,0.0,0.0,0.0,0.0,0.0,0.0,0.0,0.0,0.0,0.0,0.0,0.0,0.0,0.0,0.0,0.0,0.0,0.0,0.0,0.0,0.0,0.0,0.0,0.0,0.0,0.0,0.0,0.0,0.0,0.0,0.0,-1.4095,-1.5125,-1.6474,-1.822,-1.8929,-1.8965,-1.8245,-1.7418,-1.6074,-1.4113,0.0,0.0,0.0,0.0,0.0,0.0,0.0,0.0,0.0,0.0,0.0,0.0,0.0,0.0,0.0,0.0,0.0,0.0,0.0,0.0,0.0,0.0,0.0,0.0,0.0,0.0,0.0,0.0,0.0,0.0,0.0,0.0,0.0,0.0,0.0,0.0,0.0,0.0,0.0,-1.2722,-1.2659,0.0,0.0,0.0,0.0,0.0,0.0,0.0,0.0,-1.157,0.0,0.0,0.0,0.0,0.0,0.0,0.0,0.0,0.0,0.0,0.0,0.0,0.0,0.0,0.0,0.0,0.0,0.0,0.0,0.0,0.0,0.0,0.0,0.0,0.0,0.0,0.0,0.0,0.0,0.0,0.0,0.0,0.0,0.0,0.0,0.0,0.0,0.0,0.0,0.0,0.0,0.0,0.0,0.0,0.0,0.0,0.0,0.0,0.0,0.0,0.0,0.0,0.0,0.0,0.0,-1.4062,-1.5832,-1.7188,-1.806,-1.909,-1.9248,-1.851,-1.7449,-1.5931,0.0,0.0,0.0,0.0,0.0,0.0,0.0,0.0,0.0,0.0,0.0,0.0,0.0,0.0,0.0,0.0,0.0,0.0,0.0,0.0,0.0,0.0,0.0,0.0,0.0,0.0,0.0,0.0,0.0,0.0,0.0,0.0,0.0,0.0,0.0,0.0,0.0,0.0,0.0,0.0,-1.3912,-1.3942,-1.3901,0.0,0.0,0.0,0.0,0.0,0.0,-1.2985,-1.2604,0.0,0.0,0.0,0.0,0.0,0.0,0.0,0.0,0.0,0.0,0.0,0.0,0.0,0.0,0.0,0.0,0.0,0.0,0.0,0.0,0.0,0.0,0.0,0.0,0.0,0.0,0.0,0.0,0.0,0.0,0.0,0.0,0.0,0.0,0.0,0.0,0.0,0.0,0.0,0.0,0.0,0.0,0.0,0.0,0.0,0.0,0.0,0.0,0.0,0.0,0.0,0.0,0.0,0.0,0.0,-1.4141,-1.6487,-1.7894,-1.8197,-1.9284,-1.9491,-1.874,-1.7387,-1.574,0.0,0.0,0.0,0.0,0.0,0.0,0.0,0.0,0.0,0.0,0.0,0.0,0.0,0.0,0.0,0.0,0.0,0.0,0.0,0.0,0.0,0.0,0.0,0.0,0.0,0.0,0.0,0.0,0.0,0.0,0.0,0.0,0.0,0.0,0.0,0.0,0.0,0.0,0.0,0.0,0.0,-1.5195,-1.4528,-1.5025,0.0,0.0,0.0,0.0,-1.5336,-1.4555,0.0,0.0,0.0,0.0,0.0,0.0,0.0,0.0,0.0,0.0,0.0,0.0,0.0,0.0,0.0,0.0,0.0,0.0,0.0,0.0,0.0,0.0,0.0,0.0,0.0,0.0,0.0,0.0,0.0,0.0,0.0,0.0,0.0,0.0,0.0,0.0,0.0,0.0,0.0,0.0,0.0,0.0,0.0,0.0,0.0,0.0,0.0,0.0,0.0,0.0,0.0,0.0,0.0,0.0,0.0,0.0,-1.5042,-1.6447,-1.7838,-1.91,-1.9733,-1.9485,-1.8219,-1.738,-1.5755,0.0,0.0,0.0,0.0,0.0,0.0,0.0,0.0,0.0,0.0,0.0,0.0,0.0,0.0,0.0,0.0,0.0,0.0,0.0,0.0,0.0,0.0,0.0,0.0,0.0,0.0,0.0,0.0,0.0,0.0,0.0,0.0,0.0,0.0,0.0,0.0,0.0,0.0,0.0,0.0,0.0,-1.6304,-1.6218,-1.6268,-1.6259,0.0,0.0,-1.6184,-1.6356,-1.6846,0.0,0.0,0.0,0.0,0.0,0.0,0.0,0.0,0.0,0.0,0.0,0.0,0.0,0.0,0.0,0.0,0.0,0.0,0.0,0.0,0.0,0.0,0.0,0.0,0.0,0.0,0.0,0.0,0.0,0.0,0.0,0.0,0.0,0.0,0.0,0.0,0.0,0.0,0.0,0.0,0.0,0.0,0.0,0.0,0.0,0.0,0.0,0.0,0.0,0.0,0.0,0.0,0.0,0.0,0.0,-1.4294,-1.5335,-1.6972,-1.8346,-1.9401,-1.9983,-1.9826,-1.8919,-1.7437,-1.5587,0.0,0.0,0.0,0.0,0.0,0.0,0.0,0.0,0.0,0.0,0.0,0.0,0.0,0.0,0.0,0.0,0.0,0.0,0.0,0.0,0.0,0.0,0.0,0.0,0.0,0.0,0.0,0.0,0.0,0.0,0.0,0.0,0.0,0.0,0.0,0.0,0.0,0.0,0.0,0.0,0.0,0.0,-1.7183,-1.76,0.0,0.0,0.0,-1.8194,-1.8628,0.0,0.0,0.0,0.0,0.0,0.0,0.0,0.0,0.0,0.0,0.0,0.0,0.0,0.0,0.0,0.0,0.0,0.0,0.0,0.0,0.0,0.0,0.0,0.0,0.0,0.0,0.0,0.0,0.0,0.0,0.0,0.0,0.0,0.0,0.0,0.0,0.0,0.0,0.0,0.0,0.0,0.0,0.0,0.0,0.0,0.0,0.0,0.0,0.0,0.0,0.0,0.0,0.0,0.0,0.0,0.0,0.0,-1.5702,-1.7675,-1.9014,-1.9715,-2.0177,-2.0038,-1.9232,-1.7395,0.0,0.0,0.0,0.0,0.0,0.0,0.0,0.0,0.0,0.0,0.0,0.0,0.0,0.0,0.0,0.0,0.0,0.0,0.0,0.0,0.0,0.0,0.0,0.0,0.0,0.0,0.0,-0.9144,0.0,0.0,0.0,0.0,0.0,0.0,0.0,0.0,0.0,0.0,0.0,0.0,0.0,0.0,-1.8086,-1.8328,-1.8907,-1.9256,0.0,0.0,-2.0037,-2.0898,-2.0671,-2.0269,0.0,0.0,0.0,0.0,0.0,0.0,0.0,0.0,0.0,0.0,0.0,0.0,0.0,0.0,0.0,0.0,0.0,0.0,0.0,0.0,0.0,0.0,0.0,0.0,0.0,0.0,0.0,0.0,0.0,0.0,0.0,0.0,0.0,0.0,0.0,0.0,0.0,0.0,0.0,0.0,0.0,0.0,0.0,0.0,0.0,0.0,0.0,0.0,0.0,0.0,0.0,0.0,0.0,0.0,-1.5747,-1.6463,-1.8465,-1.978,-2.0314,-2.0444,-1.9838,-1.8486,-1.7117,-1.5458,0.0,0.0,0.0,0.0,0.0,0.0,0.0,0.0,0.0,0.0,0.0,0.0,0.0,0.0,0.0,0.0,0.0,0.0,0.0,0.0,0.0,0.0,0.0,0.0,0.0,0.0,0.0,0.0,0.0,0.0,0.0,0.0,0.0,0.0,0.0,0.0,0.0,0.0,0.0,0.0,0.0,-1.9208,-2.0015,-2.0173,-2.0739,0.0,-2.1871,-2.1727,-2.2597,-2.3411,-2.3411,-2.1867,0.0,0.0,0.0,0.0,0.0,0.0,0.0,0.0,0.0,0.0,0.0,0.0,0.0,0.0,0.0,0.0,0.0,0.0,0.0,0.0,0.0,0.0,0.0,0.0,0.0,0.0,0.0,0.0,0.0,0.0,0.0,0.0,0.0,0.0,0.0,0.0,0.0,0.0,0.0,0.0,0.0,0.0,0.0,0.0,0.0,0.0,0.0,0.0,0.0,0.0,0.0,0.0,0.0,-1.6061,-1.7192,-1.8671,-1.9824,-2.0444,-2.0494,-1.9888,-1.8561,-1.7211,-1.5568,0.0,0.0,0.0,0.0,0.0,0.0,0.0,0.0,0.0,0.0,0.0,0.0,0.0,0.0,0.0,0.0,0.0,0.0,0.0,0.0,0.0,0.0,0.0,0.0,0.0,0.0,0.0,0.0,-0.9439,-0.9445,-0.9916,0.0,0.0,0.0,0.0,0.0,0.0,0.0,0.0,0.0,0.0,-2.0049,-2.0919,-2.1493,0.0,0.0,-2.3048,-2.3321,-2.3709,-2.4061,-2.3738,-2.2075,-2.1368,0.0,0.0,0.0,0.0,0.0,0.0,0.0,0.0,0.0,0.0,0.0,0.0,0.0,0.0,0.0,0.0,0.0,0.0,0.0,0.0,0.0,0.0,0.0,0.0,0.0,0.0,0.0,0.0,0.0,0.0,0.0,0.0,0.0,0.0,0.0,0.0,0.0,0.0,0.0,0.0,0.0,0.0,0.0,0.0,0.0,0.0,0.0,0.0,0.0,0.0,0.0,0.0,-1.638,-1.7556,-1.9233,-2.0195,-2.0475,-2.078,-2.0189,-1.8637,-1.7515,-1.5959,0.0,0.0,0.0,0.0,0.0,0.0,0.0,0.0,0.0,0.0,0.0,0.0,0.0,0.0,0.0,0.0,0.0,0.0,0.0,0.0,0.0,0.0,0.0,0.0,0.0,0.0,0.0,0.0,-1.0513,-1.0514,-1.0381,0.0,0.0,0.0,0.0,0.0,0.0,0.0,0.0,0.0,0.0,-2.1026,-2.2128,-2.2819,-2.3314,-2.3639,-2.4186,-2.4529,-2.4327,-2.451,-2.4127,-2.247,0.0,0.0,0.0,0.0,0.0,0.0,0.0,0.0,0.0,0.0,0.0,0.0,0.0,0.0,0.0,0.0,0.0,0.0,0.0,0.0,0.0,0.0,0.0,0.0,0.0,0.0,0.0,0.0,0.0,0.0,-1.0438,0.0,0.0,0.0,0.0,0.0,0.0,0.0,0.0,0.0,0.0,0.0,0.0,0.0,0.0,0.0,0.0,0.0,0.0,0.0,0.0,0.0,0.0,-1.678,-1.7457,-2.0203,-2.1198,-2.0485,-2.1368,-2.0824,-1.8715,-1.8003,-1.6702,-1.4646,0.0,0.0,0.0,0.0,0.0,0.0,0.0,0.0,0.0,0.0,0.0,0.0,0.0,0.0,0.0,0.0,0.0,0.0,0.0,0.0,0.0,0.0,0.0,0.0,0.0,0.0,-1.2027,-1.2247,-1.2,0.0,0.0,0.0,0.0,0.0,0.0,0.0,0.0,0.0,0.0,-2.0993,-2.2188,-2.378,-2.4099,-2.4447,-2.5282,-2.5434,-2.5201,-2.4447,-2.5022,-2.5009,0.0,0.0,0.0,0.0,0.0,0.0,0.0,0.0,0.0,0.0,0.0,0.0,0.0,0.0,0.0,0.0,0.0,0.0,0.0,0.0,0.0,0.0,0.0,0.0,0.0,0.0,0.0,-1.1028,-1.0938,0.0,0.0,0.0,0.0,0.0,0.0,0.0,0.0,0.0,0.0,0.0,-1.7101,-1.7691,0.0,0.0,0.0,0.0,0.0,0.0,0.0,0.0,0.0,0.0,0.0,0.0,-1.7236,-1.8858,-2.0605,-2.1412,-2.121,-2.1569,-2.0978,-1.9327,-1.871,-1.7479,-1.5448,0.0,0.0,0.0,0.0,0.0,0.0,0.0,0.0,0.0,0.0,0.0,0.0,0.0,0.0,0.0,0.0,0.0,0.0,0.0,0.0,0.0,0.0,0.0,0.0,0.0,-1.2751,0.0,0.0,0.0,0.0,0.0,0.0,0.0,0.0,0.0,0.0,0.0,-2.0096,-2.1012,-2.2362,-2.3474,-2.4072,-2.4687,-2.5173,0.0,0.0,0.0,0.0,0.0,0.0,0.0,0.0,0.0,0.0,0.0,0.0,0.0,0.0,-2.3867,-2.2147,-2.2063,-2.2348,-2.2619,0.0,0.0,0.0,0.0,0.0,0.0,0.0,0.0,0.0,0.0,0.0,0.0,0.0,0.0,-1.2527,0.0,-1.2525,0.0,0.0,0.0,0.0,0.0,0.0,0.0,0.0,-1.7141,-1.8126,-1.8714,-1.9322,-1.9359,0.0,-1.9257,-1.8921,0.0,0.0,0.0,0.0,0.0,0.0,0.0,0.0,-1.8064,-1.9939,-2.1249,-2.1791,-2.1659,-2.1949,-2.1324,-1.972,-1.8881,-1.7813,-1.6463,-1.4995,-1.3987,0.0,0.0,0.0,0.0,0.0,0.0,0.0,0.0,0.0,0.0,0.0,0.0,0.0,0.0,0.0,0.0,0.0,0.0,0.0,0.0,0.0,0.0,0.0,-1.3549,0.0,0.0,0.0,0.0,0.0,0.0,0.0,0.0,0.0,-1.9279,-2.0134,-2.1143,-2.2339,-2.3458,-2.4288,-2.4594,0.0,0.0,0.0,0.0,0.0,0.0,0.0,-2.6136,-2.6136,-2.6398,-2.6598,-2.6601,-2.6601,-2.6605,-2.6613,0.0,0.0,-2.4824,-2.4706,-2.4895,-2.4908,-2.4908,-2.4908,-2.4907,-2.491,-2.4892,0.0,0.0,0.0,0.0,0.0,0.0,0.0,0.0,-1.454,-1.4643,0.0,-1.4747,0.0,0.0,0.0,0.0,0.0,-1.5132,0.0,0.0,-1.8897,-1.9843,-1.9959,-2.0237,-2.0542,-2.0965,-2.1333,-2.1674,-2.1736,-1.8779,0.0,0.0,0.0,0.0,0.0,0.0,-1.9235,-2.0726,-2.209,-2.2467,-2.1855,-2.2512,-2.19,-1.9909,-1.8577,-1.7848,-1.7628,-1.6475,-1.574,-1.5546,-1.3839,0.0,0.0,0.0,0.0,0.0,0.0,0.0,0.0,0.0,0.0,0.0,0.0,0.0,0.0,0.0,0.0,0.0,0.0,0.0,0.0,-1.3054,0.0,0.0,0.0,0.0,0.0,0.0,0.0,0.0,0.0,0.0,-2.0376,-2.1143,-2.23,-2.3953,0.0,0.0,0.0,0.0,-2.5649,-2.5663,-2.573,-2.5796,-2.5796,-2.6516,-2.7033,-2.7072,0.0,0.0,-2.8362,-2.8381,-2.8381,-2.8381,-2.8394,-2.8125,-2.7266,-2.7637,-2.8105,-2.8135,-2.8053,-2.8227,-2.8244,-2.792,-2.8022,-1.6234,0.0,0.0,0.0,0.0,-1.4599,-1.518,-1.5886,-1.5924,-1.6047,-1.6291,-1.6284,0.0,0.0,0.0,0.0,0.0,0.0,-1.835,-1.9431,-2.0501,-2.1513,-2.2517,-2.2937,-2.2818,-2.2366,-2.2687,-2.2577,-2.1979,-2.1164,-2.0323,-1.9476,0.0,0.0,0.0,0.0,-1.9845,-2.1384,-2.2707,-2.334,-2.3248,-2.3038,-2.2137,-2.0557,-1.9703,-1.9213,-1.9227,-1.8327,-1.7642,-1.7226,-1.6232,0.0,0.0,0.0,0.0,0.0,0.0,0.0,0.0,0.0,0.0,0.0,0.0,0.0,0.0,0.0,0.0,0.0,0.0,0.0,-1.4046,-1.3265,-1.3457,0.0,0.0,0.0,0.0,0.0,0.0,0.0,0.0,0.0,-2.281,-2.3237,-2.3659,0.0,0.0,-2.5298,-2.5529,-2.6104,-2.6534,-2.6539,-2.7074,0.0,-2.7484,-2.7732,-2.8132,-2.87,-2.9506,-3.0077,-3.0099,-3.0079,-3.0099,-3.0138,-3.0142,-3.005,-2.9802,-2.8925,-2.8379,-2.83,-2.8297,-2.8294,-2.8288,-2.8288,-2.8307,-1.8711,-1.7669,-1.6383,-1.588,-1.597,-1.6622,-1.7082,-1.7379,-1.7852,-1.7984,-1.7799,-1.7946,-1.7743,-1.7381,-1.7552,0.0,0.0,0.0,-2.0153,-2.1164,-2.1956,-2.2761,-2.3575,-2.4089,-2.4055,-2.3717,-2.4056,-2.3999,-2.3599,-2.3478,-2.2924,-2.1929,0.0,0.0,-2.0089,-2.0438,-2.1237,-2.2535,-2.3346,-2.3755,-2.3907,-2.2975,-2.209,-2.1252,-2.0557,-2.0226,-2.0305,-1.9591,-1.9065,-1.8852,-1.7688,-1.6524,0.0,0.0,0.0,0.0,0.0,0.0,0.0,0.0,0.0,0.0,0.0,-1.4999,-1.632,0.0,0.0,0.0,-1.4202,-1.4289,-1.4317,-1.376,0.0,0.0,0.0,0.0,0.0,0.0,0.0,-2.1022,-2.1885,-2.2872,-2.3989,-2.4791,-2.512,-2.4865,-2.557,-2.6112,-2.6115,0.0,-2.742,-2.74,-2.7862,-2.8318,-2.8657,-2.875,-2.9054,-2.9877,-3.0428,-3.0782,-3.0801,-3.0801,-3.0821,-3.086,-3.088,-3.0921,-3.0909,-3.0033,-2.9334,-2.9316,-2.9336,-2.9334,-2.9331,-2.9344,-2.9316,-2.0981,-2.0828,-1.908,-1.8054,-1.775,-1.9227,-1.9293,-1.8633,-2.0102,-2.0205,-1.9215,-1.9621,-1.9293,-1.849,-1.8768,0.0,-2.0631,-2.1259,-2.1862,-2.2468,-2.33,-2.3678,-2.3754,-2.4258,-2.4633,-2.4892,-2.5438,-2.58,-2.5956,-2.5571,-2.5087,-2.4441,-2.3181,-2.2549,-2.2524,-2.2514,-2.297,-2.3737,-2.3838,-2.3885,-2.3891,-2.2659,-2.1948,-2.1869,-2.1173,-2.0812,-2.0798,-2.0321,-2.0095,-2.024,-1.8431,-1.7116,-1.6489,0.0,0.0,0.0,0.0,0.0,0.0,0.0,0.0,0.0,0.0,0.0,0.0,0.0,0.0,0.0,-1.5026,0.0,-1.3968,-1.4653,0.0,0.0,0.0,-2.0369,-2.129,-2.2106,-2.2635,-2.2685,0.0,0.0,-2.4378,-2.5797,-2.6563,-2.5887,-2.6501,-2.699,-2.6987,-2.7736,-2.8316,-2.8305,-2.8377,-2.8716,-2.9476,-2.9608,-2.9854,-3.0584,-3.0801,-3.0801,-3.0801,-3.0801,-3.0801,-3.0801,-3.0919,-3.1016,-3.0997,-3.1036,-3.1081,-3.0976,-3.0879,-3.0859,-3.0781,-3.0757,-3.0706,-2.1668,-2.1931,-2.1483,-2.0795,-2.0106,-2.0632,-2.0996,-2.1195,-2.1331,-2.1497,-2.1616,-2.1319,-2.1403,-2.1728,-2.1968,-2.2231,-2.2566,-2.3185,-2.3538,-2.373,-2.4627,-2.5025,-2.5053,-2.571,-2.5871,-2.5739,-2.6266,-2.6393,-2.6138,-2.615,-2.6057,-2.5857,-2.5037,-2.3613,-2.1682,-2.2145,-2.2523,-2.2852,-2.3389,-2.377,-2.3853,-2.3028,-2.235,-2.1818,-2.1173,-2.0606,-2.0241,-2.0686,-2.0823,-2.0466,-1.9596,-1.8792,-1.8079,-1.6192,0.0,0.0,0.0,0.0,0.0,0.0,0.0,0.0,0.0,-1.7369,-1.8817,0.0,-1.8582,0.0,-1.5521,-1.5273,-1.7141,-1.6972,0.0,0.0,-2.0576,-2.1178,-2.2125,-2.2966,-2.3496,-2.3575,-2.4396,-2.5293,-2.602,-2.6513,-2.6997,-2.7434,-2.768,-2.7847,-2.7915,-2.8621,-2.9196,-2.9236,-2.9713,-3.0239,-3.0399,-3.0494,-3.0554,-3.076,-3.0801,-3.0801,-3.0801,-3.0801,-3.0801,-3.0841,-3.1387,-3.1758,-3.1816,-3.2343,-3.2483,-3.1942,-3.1342,-3.0917,-3.0918,-3.0918,-3.0875,-2.2638,-2.2925,-2.2717,-2.2302,-2.1881,-2.2022,-2.2143,-2.2149,-2.2495,-2.275,-2.2849,-2.2681,-2.2808,-2.3217,-2.346,-2.377,-2.4042,-2.4354,-2.4504,-2.4544,-2.5204,-2.5536,-2.555,-2.6204,-2.6442,-2.6316,-2.6937,-2.7164,-2.7006,-2.7195,-2.7134,-2.6826,-2.6103,-2.4718,-2.2717,-2.274,-2.2709,-2.2543,-2.3311,-2.3732,-2.3815,-2.3185,-2.2528,-2.1903,-2.1209,-2.075,-2.0604,-2.1067,-2.1285,-2.1114,-2.06,-1.9973,-1.932,-1.7815,-1.6768,0.0,0.0,0.0,0.0,0.0,0.0,0.0,0.0,0.0,0.0,0.0,-1.9741,-1.8895,-1.7734,-1.7761,-1.945,-1.9206,-1.9825,-2.1979,-2.2218,-2.2729,-2.4056,-2.4645,-2.5125,-2.5592,-2.6109,-2.6651,-2.7224,-2.7679,-2.8124,-2.8625,-2.902,-2.913,-2.8902,-2.9497,-3.0053,-3.0093,-3.0487,-3.0784,-3.0798,-3.0794,-3.0944,-3.1287,-3.1368,-3.1485,-3.1875,-3.1953,-3.1973,-3.1992,-3.2343,-3.2675,-3.2695,-3.2695,-3.2639,-3.219,-3.1431,-3.0929,-3.0913,-3.0918,-3.0876,-2.3599,-2.3798,-2.3362,-2.3154,-2.3088,-2.3249,-2.2906,-2.2237,-2.3363,-2.3742,-2.3579,-2.3839,-2.403,-2.4086,-2.4282,-2.4691,-2.5222,-2.5208,-2.5168,-2.5127,-2.5464,-2.5549,-2.5494,-2.6204,-2.6674,-2.6905,-2.7607,-2.8026,-2.8206,-2.8437,-2.8196,-2.7519,-2.6811,-2.578,-2.4471,-2.386,-2.3266,-2.2618,-2.3443,-2.3842,-2.377,-2.3206,-2.2584,-2.1988,-2.1291,-2.1023,-2.1179,-2.1368,-2.1582,-2.1778,-2.1317,-2.0829,-2.0373,-1.9551,-1.8775,0.0,-1.811,0.0,0.0,0.0,0.0,0.0,0.0,0.0,0.0,-2.0478,-2.1026,-2.1161,-2.0514,-2.0446,-2.1234,-2.1309,-2.2026,-2.3695,-2.3917,-2.4615,-2.623,-2.6524,-2.6885,-2.7723,-2.7874,-2.7971,-2.8194,-2.8912,-2.9407,-2.9576,-3.0127,-3.0303,-2.9861,-3.0217,-3.0656,-3.0779,-3.0799,-3.0789,-3.079,-3.0785,-3.1047,-3.1716,-3.1797,-3.2187,-3.2753,-3.2907,-3.3024,-3.3124,-3.3222,-3.3339,-3.3398,-3.2871,-3.2422,-3.2168,-3.1524,-3.1016,-3.0923,-3.0916,-3.0895,-2.4165,-2.4344,-2.4246,-2.3973,-2.3602,-2.3591,-2.3268,-2.2674,-2.2849,-2.3457,-2.4364,-2.5149,-2.5633,-2.5801,-2.5982,-2.6229,-2.647,-2.6458,-2.6198,-2.5724,-2.6082,-2.5949,-2.5578,-2.6326,-2.7103,-2.7933,-2.8486,-2.886,-2.9127,-2.9177,-2.8873,-2.8211,-2.7534,-2.6503,-2.5164,0.0,0.0,0.0,-2.3779,-2.4177,-2.3655,-2.3169,-2.2548,-2.1853,-2.139,0.0,-2.0695,-2.1378,-2.1645,-2.136,-2.1341,0.0,0.0,0.0,0.0,0.0,0.0,0.0,0.0,0.0,0.0,0.0,-2.1298,-2.1236,-2.1343,-2.1671,-2.1924,-2.2046,-2.1929,-2.2154,-2.2938,-2.3032,-2.3719,-2.5378,-2.5683,-2.6167,-2.7203,-2.7396,-2.7577,-2.7834,-2.7962,-2.8296,-2.9032,-2.9295,-2.9666,-3.0302,-3.0607,-3.0639,-3.0483,-3.0586,-3.0734,-3.0794,-3.0799,-3.0784,-3.0802,-3.0794,-3.0863,-3.1028,-3.1033,-3.1192,-3.1426,-3.1446,-3.1641,-3.2265,-3.291,-3.3398,-3.3398,-3.3807,-3.3593,-3.2363,-3.1953,-3.166,-3.1055,-3.0914,-3.0877,-2.4481,0.0,-2.4494,-2.4224,0.0,-2.3569,-2.3279,-2.3028,-2.3491,-2.4286,-2.5307,-2.6112,-2.6387,-2.6281,-2.6049,-2.6062,-2.6242,-2.5894,-2.5746,-2.5815,-2.5832,-2.6031,-2.6523,-2.6966,-2.7696,-2.8665,-2.9215,-2.9596,-2.9802,-2.9853,-2.9566,-2.8889,-2.8227,-2.7365,-2.6364,-2.5656,-2.4471,-2.2887,-2.367,-2.388,-2.3616,-2.3463,-2.3127,-2.2585,-2.2439,0.0,0.0,0.0,0.0,0.0,0.0,0.0,0.0,0.0,0.0,-2.1581,-2.1645,-2.1923,-2.2494,-2.2807,-2.3049,-2.3272,-2.3144,-2.2947,-2.2619,-2.2682,-2.2948,-2.3416,-2.3487,-2.3806,-2.4629,-2.4742,-2.528,-2.6506,-2.676,-2.7172,-2.8055,-2.83,-2.8564,-2.9098,-2.9236,-2.9511,-2.9967,-3.0047,-3.0198,-3.0613,-3.0704,-3.0698,-3.0697,-3.0728,-3.0778,-3.0799,-3.0799,-3.0784,-3.0798,-3.079,-3.0977,-3.1298,-3.1441,-3.1621,-3.2012,-3.209,-3.2246,-3.2675,-3.3124,-3.3398,-3.3378,-3.3437,-3.3124,-3.2304,-3.1777,-3.1428,-3.0985,-3.0878,-3.0836,-2.4802,-2.4913,-2.4821,-2.4486,-2.3961,-2.3743,-2.3713,-2.3734,0.0,0.0,0.0,-2.6765,-2.6876,-2.6525,-2.6108,-2.6015,-2.6109,-2.5588,-2.5608,-2.6067,-2.5785,-2.6321,-2.7502,-2.771,-2.8353,-2.9315,-2.9892,-3.0266,-3.0409,-3.0529,-3.0197,-2.9443,-2.8858,-2.8181,-2.7396,-2.6688,-2.5518,-2.3933,-2.3869,-2.3747,-2.3593,-2.3809,-2.374,-2.3272,-2.3533,-2.3506,-2.3248,-2.3281,-2.3202,-2.2942,-2.2853,-2.289,-2.3081,-2.3045,-2.3081,-2.3232,-2.3293,-2.3718,-2.459,-2.4927,-2.5127,-2.5172,-2.5005,-2.4601,-2.3905,-2.383,-2.4217,-2.5067,-2.5139,-2.544,-2.6151,-2.6226,-2.6578,-2.745,-2.7592,-2.8025,-2.8965,-2.92,-2.956,-3.0344,-3.0462,-3.0621,-3.0642,-3.0664,-3.069,-3.0697,-3.0711,-3.071,-3.0728,-3.0759,-3.0789,-3.0799,-3.0799,-3.0784,-3.0798,-3.079,-3.1094,-3.1607,-3.1772,-3.2148,-3.2734,-3.2949,-3.2988,-3.2988,-3.3163,-3.3124,-3.3105,-3.2636,-3.207,-3.1895,-3.135,-3.0888,-3.0877,-3.0839,-3.079,-2.5619,-2.5535,-2.5648,-2.5382,-2.5029,-2.511,-2.5542,-2.6068,-2.5554,-2.5619,-2.627,-2.7064,-2.7486,-2.7604,-2.7668,-2.7822,-2.7924,-2.7975,-2.7782,-2.7447,-2.7475,-2.7487,-2.7558,-2.8054,-2.8953,-3.0104,-3.0609,-3.1021,-3.1205,-3.1243,-3.0628,-2.955,-2.9319,-2.8642,-2.7442,-2.6718,-2.6241,-2.5949,-2.5493,-2.4668,-2.3561,-2.3878,-2.3792,-2.325,-2.365,-2.3967,-2.4108,-2.3718,-2.3823,-2.4499,-2.3984,-2.3943,-2.4626,-2.4643,-2.4746,-2.495,-2.5014,-2.5244,-2.5661,-2.5847,-2.576,-2.5438,-2.6097,-2.6246,-2.5551,-2.5529,-2.5916,-2.6718,-2.6754,-2.6885,-2.7035,-2.7035,-2.7405,-2.8261,-2.8474,-2.8905,-2.9865,-3.0062,-3.0221,-3.0472,-3.0557,-3.0618,-3.0695,-3.071,-3.069,-3.0697,-3.0717,-3.0728,-3.0769,-3.0799,-3.0799,-3.0799,-3.0799,-3.0804,-3.0789,-3.0786,-3.0895,-3.0938,-3.1047,-3.1133,-3.1328,-3.1387,-3.1602,-3.2148,-3.2265,-3.2285,-3.2265,-3.2207,-3.1797,-3.1311,-3.0927,-3.0818,-3.082,-3.0813,-3.0794,-2.5559,-2.5464,-2.5728,-2.5616,-2.5196,-2.5516,-2.6046,-2.6752,-2.6865,-2.6943,-2.7088,-2.7741,-2.7945,-2.7762,-2.7538,-2.7508,-2.7675,-2.7444,-2.7463,-2.7566,-2.7427,-2.7776,-2.8629,-2.881,-2.9681,-3.0944,-3.1343,-3.1692,-3.1936,-3.1921,-3.1428,-3.0489,-2.9781,-2.8919,-2.7996,-2.7642,-2.7303,-2.6919,-2.5931,-2.5168,-2.4704,-2.4634,-2.4563,-2.456,-2.5003,-2.5146,-2.5038,-2.4934,-2.488,-2.4947,-2.4615,-2.4654,-2.504,-2.5057,-2.5333,-2.5971,-2.6116,-2.6455,-2.7173,-2.7078,-2.6804,-2.6279,-2.6693,-2.6879,-2.652,-2.6519,-2.6722,-2.7131,-2.7204,-2.7392,-2.7805,-2.7862,-2.8234,-2.9166,-2.9307,-2.9585,-3.0095,-3.0305,-3.0417,-3.0501,-3.0557,-3.0626,-3.071,-3.069,-3.0697,-3.0704,-3.0736,-3.0759,-3.0799,-3.0799,-3.0799,-3.0799,-3.0799,-3.0784,-3.0793,-3.0786,-3.0801,-3.0785,-3.0794,-3.0799,-3.0801,-3.0801,-3.0977,-3.1289,-3.1387,-3.1407,-3.1426,-3.1426,-3.1233,-3.1026,-3.0818,-3.08,-3.0795,-3.0794,-3.0778,-2.5464,-2.5285,-2.5717,-2.5746,-2.55,-2.5791,-2.6298,-2.7155,-2.7977,-2.8189,-2.8049,-2.8443,-2.8323,-2.7894,-2.7631,-2.7643,-2.7706,-2.7434,-2.7538,-2.8093,-2.7678,-2.8257,-2.9673,-2.9654,-3.0251,-3.1435,-3.1868,-3.215,-3.2398,-3.2398,-3.2044,-3.1305,-3.0058,-2.915,-2.8627,-2.8473,-2.8134,-2.758,-2.6456,-2.5772,-2.569,-2.5431,-2.5438,-2.5754,-2.6101,-2.6219,-2.5993,-2.5979,-2.5846,-2.554,-2.535,-2.5345,-2.5588,-2.5634,-2.5993,-2.6782,-2.702,-2.7487,-2.8298,-2.8209,-2.7765,-2.6988,-2.7382,-2.7493,-2.7173,-2.7471,-2.7695,-2.7749,-2.7824,-2.8068,-2.8556,-2.8688,-2.9004,-2.9731,-2.9891,-3.0,-3.0199,-3.0349,-3.0447,-3.0511,-3.0585,-3.0653,-3.0683,-3.069,-3.0697,-3.0704,-3.0767,-3.0789,-3.0799,-3.0799,-3.0799,-3.0799,-3.0799,-3.0784,-3.0798,-3.0786,-3.0798,-3.0788,-3.0794,-3.0799,-3.0799,-3.0801,-3.0801,-3.086,-3.086,-3.0919,-3.086,-3.0882,-3.0907,-3.0837,-3.082,-3.0793,-3.0799,-3.0782,-3.0773,-2.5464,-2.5285,-2.5717,-2.6135,-2.6367,-2.6359,-2.6858,-2.771,-2.8549,-2.8832,-2.8626,-2.9054,-2.8869,-2.8481,-2.9111,-2.9409,-2.9491,-2.9875,-2.9984,-3.0011,-2.9642,-2.9817,-3.0375,-3.0297,-3.0659,-3.1509,-3.1868,-3.215,-3.2398,-3.2398,-3.2059,-3.1305,-3.0074,-2.9412,-2.9258,-2.8719,-2.8381,-2.8304,-2.7705,-2.6878,-2.589,-2.6021,-2.6099,-2.586,-2.6208,-2.6505,-2.6706,-2.627,-2.6358,-2.6954,-2.6368,-2.6346,-2.7061,-2.7209,-2.7377,-2.7666,-2.7872,-2.8219,-2.8712,-2.8897,-2.8359,-2.7192,-2.8351,-2.8577,-2.736,-2.8538,-2.9457,-2.9382,-2.9401,-2.9401,-2.955,-2.953,-2.9621,-2.9817,-3.0007,-3.0147,-3.0286,-3.0421,-3.051,-3.0567,-3.0629,-3.0707,-3.071,-3.0697,-3.0711,-3.0716,-3.0773,-3.0789,-3.0799,-3.0799,-3.0799,-3.0799,-3.0799,-3.0799,-3.0789,-3.0793,-3.079,-3.0801,-3.0788,-3.0796,-3.0799,-3.0801,-3.0801,-3.0821,-3.0841,-3.0882,-3.0884,-3.0888,-3.0877,-3.0859,-3.0836,-3.0801,-3.0786,-3.0759,-3.0724,-2.5559,-2.5464,-2.5728,-2.6135,-2.6588,-2.6794,-2.7378,-2.8264,-2.9096,-2.9315,-2.9266,-2.9978,-2.9784,-2.9005,-2.9451,-2.9684,-2.9824,-3.0102,-3.0323,-3.0391,-3.0337,-3.0549,-3.0993,-3.0925,-3.1302,-3.2048,-3.2007,-3.215,-3.2342,-3.2398,-3.2044,-3.1413,-3.0812,-3.0197,-2.9458,-2.9135,-2.8861,-2.8556,-2.8436,-2.8009,-2.737,-2.6702,-2.6247,-2.6076,-2.6383,-2.6742,-2.6956,-2.686,-2.694,-2.7247,-2.7002,-2.703,-2.7434,-2.7539,-2.7719,-2.7922,-2.8255,-2.8594,-2.897,-2.9138,-2.8565,-2.7084,-2.8577,-2.8876,-2.7414,-2.8706,-2.9701,-2.9701,-2.9701,-2.9682,-2.9699,-2.9681,-2.9753,-2.9888,-3.0019,-3.0138,-3.0279,-3.0425,-3.053,-3.0595,-3.0657,-3.0707,-3.071,-3.0711,-3.071,-3.0753,-3.0789,-3.0794,-3.0799,-3.0799,-3.0799,-3.0799,-3.0799,-3.0784,-3.0793,-3.0786,-3.0794,-3.0785,-3.0794,-3.0799,-3.0799,-3.0801,-3.0801,-3.086,-3.0866,-3.0871,-3.0876,-3.0859,-3.0839,-3.0835,-3.0838,-3.0782,-3.0734,-3.071,-3.0691,-2.5559,-2.5644,-2.5822,-2.6146,-2.6633,-2.7021,-2.7602,-2.8397,-2.9266,-2.9631,-2.9612,-3.0576,-3.0529,-2.9909,-2.996,-3.009,-3.0233,-3.0445,-3.0599,-3.0796,-3.0869,-3.1171,-3.1612,-3.1568,-3.1959,-3.2617,-3.2415,-3.2333,-3.2428,-3.2398,-3.2136,-3.1705,-3.1474,-3.0905,-3.0027,-2.9693,-2.9265,-2.8947,-2.8999,-2.8849,-2.841,-2.7696,-2.7044,-2.659,-2.6657,-2.6875,-2.7103,-2.7215,-2.733,-2.733,-2.7376,-2.7438,-2.7526,-2.7659,-2.7847,-2.8136,-2.851,-2.8815,-2.9108,-2.9228,-2.8739,-2.7662,-2.8782,-2.9024,-2.8087,-2.8857,-2.9626,-2.9683,-2.9701,-2.97,-2.9717,-2.9735,-2.9805,-2.9937,-3.0079,-3.0213,-3.0343,-3.0449,-3.0559,-3.0613,-3.0673,-3.0695,-3.0697,-3.071,-3.0753,-3.0784,-3.0794,-3.0799,-3.0799,-3.0799,-3.0799,-3.0799,-3.0799,-3.0784,-3.0793,-3.0786,-3.0798,-3.0788,-3.0794,-3.0799,-3.0799,-3.0821,-3.0825,-3.0868,-3.0834,-3.0819,-3.084,-3.0818,-3.079,-3.0796,-3.0786,-3.0764,-3.071,-3.0691,-3.0704,-2.5369,-2.5644,-2.5812,-2.6146,-2.6633,-2.7021,-2.7404,-2.7897,-2.9118,-2.9644,-2.9676,-3.0576,-3.0947,-3.0843,-3.1014,-3.1154,-3.1241,-3.1349,-3.1569,-3.1734,-3.152,-3.1764,-3.2272,-3.2421,-3.2805,-3.338,-3.3154,-3.2791,-3.249,-3.2413,-3.2382,-3.2305,-3.1736,-3.1366,-3.1043,-3.0176,-2.9596,-2.9539,-2.9391,-2.9077,-2.8759,-2.9132,-2.871,-2.7573,-2.7131,-2.7009,-2.7103,-2.7233,-2.733,-2.7393,-2.7425,-2.7469,-2.7569,-2.7748,-2.7989,-2.8414,-2.8687,-2.8881,-2.9089,-2.9228,-2.8983,-2.8465,-2.9026,-2.925,-2.8425,-2.9138,-2.9664,-2.9683,-2.97,-2.9736,-2.9789,-2.9859,-2.9943,-3.0064,-3.0194,-3.0349,-3.0458,-3.054,-3.0632,-3.0684,-3.0695,-3.0697,-3.0691,-3.0748,-3.0784,-3.0789,-3.0794,-3.0799,-3.0799,-3.0799,-3.0799,-3.0799,-3.0799,-3.0799,-3.0804,-3.0798,-3.079,-3.0801,-3.081,-3.0836,-3.0858,-3.088,-3.0888,-3.0874,-3.0878,-3.0839,-3.0814,-3.0801,-3.0801,-3.0778,-3.0735,-3.0697,-3.0691,-3.0704,-3.071,-2.5559,-2.5822,-2.5906,-2.6063,-2.6396,-2.6809,-2.7429,-2.8088,-2.9098,-2.9705,-3.0125,-3.0745,-3.0986,-3.0986,-3.1061,-3.1198,-3.1272,-3.136,-3.1582,-3.1863,-3.1996,-3.2372,-3.2876,-3.3054,-3.3401,-3.3961,-3.3759,-3.3447,-3.2988,-3.2613,-3.2398,-3.2382,-3.2167,-3.1828,-3.142,-3.1093,-3.0545,-2.9873,-2.9974,-2.9897,-2.9642,-2.9648,-2.9286,-2.8566,-2.8049,-2.7602,-2.7233,-2.7282,-2.733,-2.7393,-2.7421,-2.7496,-2.7617,-2.7853,-2.8164,-2.8536,-2.8761,-2.8975,-2.9197,-2.9351,-2.9137,-2.8521,-2.9158,-2.9325,-2.8744,-2.9176,-2.9701,-2.97,-2.9699,-2.9735,-2.9857,-2.9943,-3.0022,-3.0176,-3.0299,-3.041,-3.049,-3.0549,-3.0629,-3.0673,-3.071,-3.0691,-3.071,-3.0753,-3.0789,-3.0794,-3.0799,-3.0799,-3.0799,-3.0799,-3.0799,-3.0799,-3.0799,-3.0799,-3.0799,-3.0802,-3.0798,-3.0804,-3.0833,-3.0877,-3.0899,-3.0892,-3.0878,-3.0879,-3.0878,-3.085,-3.0794,-3.0774,-3.0784,-3.0739,-3.071,-3.0704,-3.0704,-3.069,-3.0703,-2.5812,-2.5906,-2.5895,-2.6078,-2.6451,-2.6963,-2.7614,-2.8417,-2.9285,-2.9905,-3.0318,-3.0836,-3.0986,-3.0986,-3.0986,-3.1136,-3.1272,-3.1198,-3.1421,-3.183,-3.2141,-3.2704,-3.3339,-3.3638,-3.4162,-3.4681,-3.4607,-3.4161,-3.3387,-3.2936,-3.2613,-3.2398,-3.2398,-3.2182,-3.1805,-3.1734,-3.1228,-3.0541,-3.0591,-3.0522,-3.0392,-3.0272,-3.0002,-2.96,-2.923,-2.8457,-2.7385,-2.733,-2.7345,-2.7421,-2.7496,-2.7617,-2.7783,-2.8025,-2.8327,-2.8637,-2.8858,-2.9067,-2.9265,-2.9412,-2.9306,-2.8877,-2.9326,-2.942,-2.8932,-2.9363,-2.9644,-2.9699,-2.9735,-2.9823,-2.9924,-3.0038,-3.0142,-3.0245,-3.0343,-3.0447,-3.053,-3.0595,-3.0665,-3.0695,-3.0704,-3.0704,-3.0703,-3.0759,-3.0794,-3.0799,-3.0799,-3.0799,-3.0799,-3.0799,-3.0799,-3.0799,-3.0784,-3.0789,-3.0798,-3.0798,-3.0785,-3.081,-3.0845,-3.0886,-3.0892,-3.0879,-3.0878,-3.0856,-3.0827,-3.0807,-3.0782,-3.0774,-3.0748,-3.0698,-3.0711,-3.0704,-3.069,-3.0703,-3.0688,-2.5895,-2.5906,-2.5906,-2.6337,-2.6838,-2.7369,-2.792,-2.8692,-2.9719,-3.019,-3.0393,-3.0864,-3.1182,-3.1091,-3.1196,-3.1228,-3.1356,-3.1268,-3.1352,-3.1683,-3.2009,-3.2704,-3.3548,-3.4216,-3.4904,-3.5552,-3.5492,-3.4752,-3.3552,-3.3336,-3.3013,-3.2505,-3.2382,-3.2422,-3.2563,-3.2027,-3.1616,-3.1244,-3.1048,-3.0893,-3.0775,-3.0993,-3.0891,-3.0463,-3.0453,-2.9558,-2.7555,-2.7466,-2.7476,-2.7496,-2.7539,-2.7766,-2.8053,-2.8273,-2.851,-2.8761,-2.8994,-2.9138,-2.9312,-2.9433,-2.9512,-2.9476,-2.9626,-2.9664,-2.957,-2.9645,-2.9701,-2.9754,-2.9842,-2.9926,-3.0003,-3.0171,-3.0279,-3.0324,-3.0414,-3.051,-3.0586,-3.0657,-3.0707,-3.071,-3.0704,-3.0703,-3.0728,-3.0764,-3.0799,-3.0799,-3.0799,-3.0799,-3.0799,-3.0804,-3.0804,-3.0784,-3.0793,-3.0802,-3.0798,-3.0791,-3.0794,-3.0796,-3.0852,-3.0897,-3.0879,-3.0856,-3.0825,-3.0816,-3.0801,-3.0769,-3.0755,-3.0742,-3.073,-3.0704,-3.0697,-3.0697,-3.071,-3.0703,-3.0661,-2.5895,-2.595,-2.6436,-2.6731,-2.7034,-2.7437,-2.8211,-2.9176,-2.9858,-3.0443,-3.1191,-3.185,-3.2163,-3.215,-3.2163,-3.2292,-3.242,-3.1988,-3.1832,-3.187,-3.2141,-3.2775,-3.3618,-3.4259,-3.5139,-3.5821,-3.5661,-3.5045,-3.4229,-3.366,-3.3075,-3.2521,-3.2523,-3.2578,-3.2602,-3.2232,-3.1887,-3.1469,-3.1251,-3.1007,-3.0807,-3.114,-3.1014,-3.0585,-3.0643,-3.0093,-2.902,-2.8435,-2.7982,-2.7565,-2.76,-2.7836,-2.8191,-2.8327,-2.8536,-2.8834,-2.8998,-2.92,-2.9351,-2.9471,-2.955,-2.9645,-2.9701,-2.9701,-2.9683,-2.9701,-2.9736,-2.9823,-2.9926,-3.0022,-3.0133,-3.0279,-3.0367,-3.0371,-3.0479,-3.0607,-3.0649,-3.0668,-3.069,-3.0704,-3.071,-3.0709,-3.0759,-3.0794,-3.0799,-3.0799,-3.0799,-3.0799,-3.0804,-3.0789,-3.0793,-3.0798,-3.0786,-3.0801,-3.0799,-3.0793,-3.0798,-3.08,-3.082,-3.0857,-3.085,-3.0838,-3.0798,-3.0782,-3.0755,-3.0753,-3.0736,-3.0717,-3.0704,-3.0697,-3.0697,-3.069,-3.071,-3.0676,-3.0645,-2.6168,-2.6234,-2.694,-2.7347,-2.7567,-2.8,-2.8689,-2.9609,-3.0264,-3.0947,-3.163,-3.2434,-3.2765,-3.2843,-3.2935,-3.3079,-3.3196,-3.2851,-3.2537,-3.2374,-3.2427,-3.2917,-3.3742,-3.4677,-3.5479,-3.615,-3.5984,-3.5507,-3.4889,-3.4137,-3.3501,-3.2987,-3.2702,-3.2687,-3.2734,-3.2442,-3.2088,-3.1726,-3.1508,-3.1264,-3.1093,-3.1257,-3.1281,-3.1053,-3.1057,-3.0784,-3.0127,-2.9609,-2.8951,-2.8167,-2.7924,-2.8007,-2.83,-2.8466,-2.8687,-2.8975,-2.9115,-2.9267,-2.9451,-2.9549,-2.9569,-2.9664,-2.9701,-2.9701,-2.9701,-2.9699,-2.9753,-2.9926,-3.0007,-3.0094,-3.0228,-3.0359,-3.0447,-3.0481,-3.055,-3.0632,-3.068,-3.071,-3.0704,-3.0717,-3.0736,-3.0753,-3.0784,-3.0794,-3.0799,-3.0799,-3.0799,-3.0784,-3.0784,-3.0789,-3.0798,-3.079,-3.0785,-3.0801,-3.0796,-3.0801,-3.0796,-3.0786,-3.0791,-3.081,-3.0801,-3.0817,-3.0789,-3.0745,-3.0722,-3.073,-3.0711,-3.0704,-3.0697,-3.069,-3.071,-3.071,-3.069,-3.0661,-3.0637,-2.666,-2.6725,-2.7447,-2.8044,-2.8478,-2.8958,-2.9424,-3.0021,-3.0967,-3.1484,-3.1789,-3.2774,-3.3199,-3.3238,-3.3542,-3.3699,-3.3759,-3.3719,-3.3526,-3.3247,-3.3128,-3.3297,-3.4085,-3.5285,-3.6022,-3.6399,-3.643,-3.6061,-3.5353,-3.4691,-3.4237,-3.3593,-3.2974,-3.2773,-3.2886,-3.2618,-3.2222,-3.2073,-3.1753,-3.1424,-3.1274,-3.1449,-3.1637,-3.1731,-3.1696,-3.1458,-3.0959,-3.0768,-3.0177,-2.9029,-2.8476,-2.836,-2.8514,-2.8717,-2.8887,-2.9175,-2.9249,-2.9392,-2.9531,-2.9588,-2.9608,-2.9701,-2.9701,-2.9701,-2.9699,-2.9716,-2.9805,-2.9972,-3.0064,-3.0161,-3.0304,-3.0419,-3.0521,-3.0595,-3.0621,-3.0653,-3.069,-3.0704,-3.0698,-3.0724,-3.0767,-3.0784,-3.0789,-3.0794,-3.0799,-3.0784,-3.0784,-3.0789,-3.0798,-3.0802,-3.0802,-3.0801,-3.0786,-3.0798,-3.08,-3.0792,-3.0796,-3.0801,-3.0778,-3.0774,-3.0769,-3.0778,-3.0769,-3.0724,-3.0698,-3.0704,-3.0697,-3.071,-3.0703,-3.0703,-3.0703,-3.071,-3.0676,-3.0653,-3.0629,-2.7228,-2.748,-2.821,-2.8656,-2.9037,-2.9315,-2.99,-3.0678,-3.1283,-3.1943,-3.2672,-3.3788,-3.4296,-3.4362,-3.4498,-3.4781,-3.4794,-3.4471,-3.4505,-3.4553,-3.4011,-3.4198,-3.4831,-3.5559,-3.6163,-3.6492,-3.6476,-3.6153,-3.5476,-3.4889,-3.4253,-3.3655,-3.3137,-3.2982,-3.3061,-3.2403,-3.2047,-3.2066,-3.1447,-3.1227,-3.1375,-3.1538,-3.1671,-3.18,-3.18,-3.1806,-3.1672,-3.1341,-3.0793,-2.9955,-2.926,-2.9076,-2.925,-2.9021,-2.8952,-2.9218,-2.931,-2.9394,-2.9569,-2.9607,-2.9626,-2.9683,-2.9701,-2.9699,-2.9698,-2.9786,-2.9905,-3.0053,-3.019,-3.0305,-3.0417,-3.0511,-3.0604,-3.0661,-3.0668,-3.0683,-3.0704,-3.0691,-3.0704,-3.0767,-3.0798,-3.0789,-3.0794,-3.0799,-3.0784,-3.0793,-3.0793,-3.0802,-3.079,-3.0791,-3.0799,-3.0795,-3.0801,-3.0798,-3.0788,-3.0785,-3.0802,-3.0784,-3.0769,-3.0745,-3.0739,-3.0742,-3.0737,-3.0704,-3.0704,-3.0697,-3.0703,-3.0707,-3.0707,-3.0688,-3.0661,-3.0653,-3.0673,-3.0657,-3.064,-2.7899,-2.8033,-2.8892,-2.9365,-2.9545,-2.9791,-3.0423,-3.1134,-3.1784,-3.2546,-3.342,-3.441,-3.5003,-3.5072,-3.5223,-3.5386,-3.5507,-3.513,-3.5086,-3.5055,-3.4685,-3.4842,-3.5288,-3.5752,-3.6163,-3.6492,-3.6492,-3.6292,-3.5799,-3.5012,-3.4434,-3.4125,-3.3427,-3.3175,-3.3403,-3.2764,-3.2514,-3.2813,-3.2302,-3.2127,-3.2366,-3.2214,-3.219,-3.2179,-3.2044,-3.1929,-3.2039,-3.1564,-3.0956,-3.0348,-2.9674,-2.9275,-2.9326,-2.9126,-2.9044,-2.9326,-2.9411,-2.9492,-2.9607,-2.9645,-2.9645,-2.9683,-2.97,-2.9751,-2.9782,-2.9867,-2.9988,-3.0171,-3.0279,-3.0402,-3.0519,-3.0606,-3.0645,-3.069,-3.0704,-3.0704,-3.0698,-3.0704,-3.0716,-3.0778,-3.0789,-3.0794,-3.0799,-3.0784,-3.0793,-3.0798,-3.0802,-3.0794,-3.0791,-3.079,-3.08,-3.08,-3.079,-3.0794,-3.0801,-3.0793,-3.0755,-3.0753,-3.0761,-3.0736,-3.073,-3.0724,-3.0711,-3.0697,-3.069,-3.0703,-3.0688,-3.0692,-3.0692,-3.0673,-3.0629,-3.0649,-3.0707,-3.1009,-3.0933,-2.8464,-2.8599,-2.9511,-2.9897,-2.9943,-3.0397,-3.0812,-3.1383,-3.2239,-3.3018,-3.3725,-3.466,-3.5154,-3.5399,-3.5562,-3.571,-3.571,-3.552,-3.5309,-3.5204,-3.5109,-3.5371,-3.5459,-3.5831,-3.6178,-3.6429,-3.6492,-3.6446,-3.603,-3.5223,-3.4841,-3.4457,-3.3631,-3.3435,-3.3531,-3.3304,-3.3466,-3.3694,-3.3448,-3.3359,-3.3459,-3.3205,-3.2972,-3.27,-3.2223,-3.2054,-3.2074,-3.1755,-3.1243,-3.0617,-2.9844,-2.9512,-2.9216,-2.9287,-2.9255,-2.937,-2.9491,-2.9589,-2.9664,-2.9683,-2.9701,-2.9682,-2.9718,-2.9784,-2.9893,-2.9981,-3.0094,-3.0279,-3.0371,-3.046,-3.0626,-3.0726,-3.0812,-3.0801,-3.075,-3.0847,-3.0724,-3.0697,-3.0728,-3.0784,-3.0794,-3.0799,-3.0784,-3.0793,-3.0802,-3.0794,-3.0801,-3.0799,-3.0792,-3.08,-3.0798,-3.0784,-3.0801,-3.0784,-3.0789,-3.0798,-3.0742,-3.0724,-3.0717,-3.0704,-3.0711,-3.0704,-3.0717,-3.071,-3.071,-3.0695,-3.0673,-3.0684,-3.0696,-3.0765,-3.0806,-3.0806,-3.0873,-3.1418,-3.1593,-2.9157,-2.9647,-2.9852,-2.9966,-3.0136,-3.0487,-3.0847,-3.1383,-3.2276,-3.3129,-3.381,-3.4729,-3.5236,-3.5399,-3.5629,-3.571,-3.5655,-3.5448,-3.5079,-3.4994,-3.587,-3.5893,-3.5784,-3.5894,-3.6163,-3.6429,-3.6492,-3.6276,-3.5858,-3.5499,-3.5027,-3.4288,-3.403,-3.3879,-3.3832,-3.3567,-3.3502,-3.389,-3.3812,-3.3867,-3.4037,-3.3933,-3.358,-3.309,-3.2473,-3.2231,-3.2318,-3.2281,-3.2033,-3.153,-3.097,-3.0577,-3.0505,-3.0286,-2.9935,-2.9615,-2.9587,-2.9664,-2.9701,-2.9813,-2.9737,-2.9869,-3.0015,-2.9888,-2.9954,-3.02,-3.027,-3.0355,-3.0447,-3.0617,-3.0687,-3.1328,-3.1215,-3.0944,-3.1184,-3.1372,-3.0923,-3.0759,-3.0784,-3.0794,-3.0799,-3.0784,-3.0793,-3.0798,-3.079,-3.0801,-3.0801,-3.0795,-3.08,-3.0798,-3.0784,-3.0798,-3.0774,-3.0759,-3.0767,-3.0755,-3.0743,-3.0711,-3.0697,-3.069,-3.069,-3.071,-3.0703,-3.0703,-3.0703,-3.068,-3.0657,-3.0804,-3.0862,-3.0933,-3.1109,-3.1409,-3.169,-3.2068,-3.2213,-2.9508,-2.9886,-2.9966,-3.0136,-3.0216,-3.0578,-3.1038,-3.1572,-3.2438,-3.3288,-3.4063,-3.4825,-3.5249,-3.5548,-3.5629,-3.571,-3.5736,-3.5716,-3.537,-3.511,-3.5824,-3.6153,-3.5849,-3.5958,-3.6211,-3.6461,-3.6138,-3.5905,-3.567,-3.5186,-3.4722,-3.4541,-3.4139,-3.4112,-3.4371,-3.4053,-3.4322,-3.4706,-3.4762,-3.4839,-3.4971,-3.4789,-3.4164,-3.3326,-3.2669,-3.2354,-3.2457,-3.2201,-3.2299,-3.229,-3.1991,-3.1563,-3.1323,-3.0882,-3.0389,-3.0182,-3.0149,-3.0208,-3.0283,-3.0641,-3.0922,-3.0863,-3.1009,-3.0864,-3.0914,-3.1078,-3.0996,-3.076,-3.0819,-3.1099,-3.0773,-3.0982,-3.1061,-3.0989,-3.115,-3.1234,-3.0906,-3.0789,-3.0789,-3.0799,-3.0784,-3.0789,-3.0793,-3.079,-3.0788,-3.0801,-3.0798,-3.0801,-3.0796,-3.0801,-3.0798,-3.0789,-3.0745,-3.0722,-3.0724,-3.0711,-3.0704,-3.0697,-3.0697,-3.069,-3.069,-3.0703,-3.0695,-3.0688,-3.0688,-3.0645,-3.066,-3.0806,-3.1166,-3.1438,-3.1748,-3.2174,-3.2522,-3.2754,-3.2822,-2.9691,-2.9977,-3.0136,-3.0216,-3.0306,-3.0793,-3.1241,-3.1737,-3.2612,-3.3458,-3.4314,-3.4908,-3.5264,-3.5521,-3.5683,-3.5655,-3.5598,-3.5916,-3.5488,-3.4867,-3.5994,-3.6251,-3.6125,-3.6255,-3.6506,-3.66,-3.6153,-3.5797,-3.5372,-3.4867,-3.4961,-3.4895,-3.4329,-3.4404,-3.491,-3.4888,-3.486,-3.5329,-3.564,-3.5882,-3.6059,-3.5717,-3.4901,-3.3768,-3.2809,-3.2474,-3.2468,-3.2311,-3.2378,-3.3141,-3.2949,-3.2544,-3.2033,-3.1429,-3.0812,-3.0899,-3.0902,-3.094,-3.0922,-3.1525,-3.2072,-3.2296,-3.2312,-3.2112,-3.1859,-3.2091,-3.2,-3.1637,-3.1478,-3.1576,-3.0996,-3.0847,-3.0924,-3.0967,-3.0939,-3.0789,-3.0794,-3.0794,-3.0799,-3.0784,-3.0793,-3.0802,-3.0798,-3.0791,-3.0784,-3.0796,-3.08,-3.079,-3.0796,-3.0798,-3.0789,-3.0764,-3.0742,-3.073,-3.0711,-3.0704,-3.0697,-3.0697,-3.069,-3.0749,-3.0722,-3.0668,-3.0653,-3.0653,-3.0637,-3.066,-3.0914,-3.1292,-3.1651,-3.199,-3.2551,-3.3131,-3.3363,-3.3421,-3.3538,-2.9966,-3.0136,-3.0216,-3.0216,-3.0318,-3.0793,-3.1151,-3.156,-3.25,-3.3471,-3.416,-3.4812,-3.4996,-3.5142,-3.5533,-3.5339,-3.4986,-3.5259,-3.525,-3.4805,-3.5883,-3.649,-3.6526,-3.6536,-3.6847,-3.7203,-3.6739,-3.604,-3.563,-3.5978,-3.5603,-3.4976,-3.5031,-3.532,-3.5242,-3.5018,-3.5107,-3.5588,-3.5871,-3.6191,-3.6333,-3.6052,-3.5496,-3.4226,-3.3108,-3.2645,-3.2722,-3.2791,-3.3021,-3.3484,-3.3633,-3.3684,-3.3515,-3.3038,-3.2131,-3.1405,-3.1503,-3.1579,-3.1392,-3.1826,-3.2223,-3.2317,-3.2577,-3.264,-3.2592,-3.2785,-3.2916,-3.2636,-3.2152,-3.1895,-3.1806,-3.1132,-3.1164,-3.1401,-3.1198,-3.0808,-3.0799,-3.0789,-3.0798,-3.0786,-3.079,-3.0801,-3.0799,-3.0793,-3.08,-3.08,-3.0788,-3.0788,-3.0782,-3.0784,-3.0764,-3.0742,-3.0698,-3.0711,-3.0697,-3.0697,-3.069,-3.069,-3.0729,-3.0819,-3.0785,-3.0665,-3.0649,-3.1056,-3.1009,-3.0875,-3.1234,-3.1729,-3.2319,-3.2764,-3.346,-3.4156,-3.4253,-3.4369,-3.4775,-3.0057,-3.0216,-3.0216,-3.0216,-3.0306,-3.0781,-3.1241,-3.1613,-3.2155,-3.3119,-3.3991,-3.4426,-3.4634,-3.4792,-3.5086,-3.4753,-3.4437,-3.4768,-3.4806,-3.4755,-3.5698,-3.6388,-3.655,-3.6615,-3.6879,-3.7111,-3.6908,-3.6469,-3.5665,-3.5817,-3.5985,-3.5864,-3.5721,-3.5764,-3.5915,-3.5662,-3.5538,-3.5785,-3.6019,-3.6276,-3.6364,-3.5943,-3.5112,-3.4512,-3.3441,-3.2829,-3.2898,-3.3147,-3.3397,-3.3726,-3.3947,-3.4173,-3.4134,-3.3743,-3.302,-3.2308,-3.2142,-3.2257,-3.2221,-3.2769,-3.3148,-3.3639,-3.3711,-3.3675,-3.3666,-3.3876,-3.4024,-3.3616,-3.2593,-3.2013,-3.1955,-3.1281,-3.1065,-3.1217,-3.1047,-3.0877,-3.0808,-3.0798,-3.0833,-3.0824,-3.0796,-3.0786,-3.0797,-3.0801,-3.0795,-3.0799,-3.0798,-3.0793,-3.0784,-3.0767,-3.0755,-3.0724,-3.0711,-3.0704,-3.0697,-3.069,-3.0865,-3.0884,-3.0916,-3.1006,-3.1224,-3.1297,-3.1648,-3.2085,-3.1815,-3.1283,-3.1642,-3.2193,-3.2871,-3.3596,-3.4331,-3.4911,-3.5104,-3.5356,-3.5557,-3.0057,-3.0216,-3.0216,-3.0216,-3.0306,-3.0793,-3.1241,-3.1553,-3.1798,-3.2807,-3.41,-3.4068,-3.414,-3.4362,-3.4299,-3.3935,-3.3597,-3.4311,-3.4467,-3.4708,-3.5575,-3.6096,-3.6371,-3.6538,-3.6925,-3.7296,-3.7152,-3.6908,-3.6205,-3.6106,-3.6184,-3.6285,-3.6143,-3.6222,-3.653,-3.6223,-3.6068,-3.5987,-3.6105,-3.636,-3.618,-3.5318,-3.4633,-3.4658,-3.3489,-3.287,-3.3024,-3.3327,-3.3615,-3.3868,-3.4099,-3.4293,-3.4379,-3.3979,-3.3684,-3.3515,-3.2746,-3.2728,-3.3014,-3.3488,-3.3828,-3.451,-3.4923,-3.477,-3.4678,-3.4802,-3.5129,-3.442,-3.3538,-3.2707,-3.2694,-3.1693,-3.1354,-3.1422,-3.1349,-3.1023,-3.0953,-3.0946,-3.1003,-3.0975,-3.085,-3.0818,-3.0859,-3.0788,-3.0785,-3.0774,-3.0784,-3.075,-3.0761,-3.0724,-3.0711,-3.0711,-3.0704,-3.0697,-3.069,-3.069,-3.0962,-3.1273,-3.1336,-3.1464,-3.1817,-3.2141,-3.2531,-3.2774,-3.228,-3.1884,-3.2261,-3.2822,-3.3654,-3.4447,-3.5201,-3.553,-3.5461,-3.5469,-3.5574,-3.0216,-3.0216,-3.0216,-3.0216,-3.0318,-3.0793,-3.1151,-3.1412,-3.17,-3.2626,-3.3843,-3.3839,-3.3781,-3.3651,-3.2935,-3.3014,-3.3482,-3.3841,-3.4226,-3.4704,-3.5613,-3.6379,-3.6865,-3.6987,-3.7296,-3.7559,-3.7534,-3.6983,-3.6562,-3.6853,-3.7007,-3.6949,-3.6933,-3.6924,-3.6851,-3.6536,-3.6194,-3.6068,-3.6165,-3.6395,-3.64,-3.5416,-3.49,-3.4464,-3.3683,-3.2969,-3.3152,-3.3444,-3.3726,-3.3972,-3.4179,-3.434,-3.4476,-3.4567,-3.4534,-3.4083,-3.3256,-3.2278,-3.275,-3.3318,-3.4036,-3.4775,-3.5091,-3.5146,-3.5196,-3.5326,-3.5369,-3.4578,-3.4209,-3.4082,-3.3712,-3.2789,-3.2566,-3.2416,-3.227,-3.1651,-3.1265,-3.1726,-3.1728,-3.1382,-3.1367,-3.1092,-3.0968,-3.0879,-3.0794,-3.0784,-3.0753,-3.0736,-3.0717,-3.0704,-3.0697,-3.0697,-3.0768,-3.0787,-3.1072,-3.1013,-3.1343,-3.1712,-3.1891,-3.205,-3.2587,-3.3015,-3.3074,-3.3141,-3.2764,-3.2947,-3.3566,-3.4146,-3.4679,-3.5065,-3.548,-3.5604,-3.5593,-3.562,-3.5608,-3.0216,-3.0216,-3.0216,-3.0216,-3.0306,-3.0793,-3.1241,-3.1464,-3.1626,-3.2528,-3.3637,-3.343,-3.3211,-3.3136,-3.2521,-3.2727,-3.3491,-3.3654,-3.4186,-3.4928,-3.5637,-3.6185,-3.6689,-3.7002,-3.74,-3.7492,-3.7563,-3.7433,-3.7137,-3.7286,-3.7494,-3.747,-3.739,-3.7241,-3.7169,-3.6731,-3.6441,-3.6311,-3.6402,-3.6626,-3.6566,-3.5952,-3.522,-3.4871,-3.4033,-3.3615,-3.3478,-3.3559,-3.3842,-3.4124,-3.4293,-3.4409,-3.4408,-3.425,-3.3972,-3.3881,-3.2997,-3.2845,-3.3639,-3.3752,-3.4225,-3.4808,-3.5174,-3.5273,-3.5438,-3.5609,-3.5678,-3.5305,-3.4834,-3.4666,-3.4503,-3.354,-3.3273,-3.3142,-3.3088,-3.2747,-3.2307,-3.2553,-3.2687,-3.2244,-3.1851,-3.1665,-3.1435,-3.125,-3.1051,-3.0742,-3.0736,-3.0724,-3.0711,-3.0697,-3.0697,-3.0697,-3.08,-3.0889,-3.1317,-3.1569,-3.2058,-3.2407,-3.2643,-3.2936,-3.3558,-3.3887,-3.3935,-3.4292,-3.4485,-3.4726,-3.5035,-3.4881,-3.4803,-3.519,-3.5643,-3.562,-3.5565,-3.5521,-3.5496,-3.0216,-3.0216,-3.0216,-3.0216,-3.0216,-3.0793,-3.1241,-3.1689,-3.1614,-3.2453,-3.3289,-3.3012,-3.2848,-3.3003,-3.2731,-3.2809,-3.3425,-3.3507,-3.4239,-3.5078,-3.5684,-3.61,-3.6569,-3.6952,-3.7254,-3.7254,-3.7452,-3.7433,-3.7508,-3.7642,-3.7801,-3.796,-3.7961,-3.7781,-3.7553,-3.7273,-3.699,-3.6446,-3.665,-3.6811,-3.679,-3.6292,-3.5753,-3.5244,-3.4757,-3.4384,-3.4152,-3.411,-3.433,-3.4593,-3.4498,-3.4517,-3.4529,-3.4312,-3.4128,-3.4036,-3.3488,-3.3713,-3.4206,-3.4355,-3.4425,-3.4866,-3.5302,-3.5444,-3.5626,-3.5765,-3.5795,-3.5706,-3.5373,-3.5048,-3.4762,-3.4208,-3.3882,-3.379,-3.3756,-3.3589,-3.3524,-3.362,-3.3443,-3.291,-3.2604,-3.2518,-3.2225,-3.1812,-3.1396,-3.086,-3.0711,-3.0704,-3.0736,-3.0749,-3.0974,-3.1045,-3.1193,-3.1429,-3.1992,-3.2399,-3.2818,-3.3158,-3.3392,-3.3809,-3.441,-3.4719,-3.4814,-3.5287,-3.5654,-3.5574,-3.5311,-3.5052,-3.4861,-3.5272,-3.5596,-3.5572,-3.5515,-3.5457,-3.5369,-3.0216,-3.0216,-3.0216,-3.0216,-3.0216,-3.0793,-3.1241,-3.1713,-3.181,-3.2361,-3.298,-3.2633,-3.268,-3.2908,-3.2995,-3.2896,-3.2927,-3.3858,-3.4493,-3.503,-3.5552,-3.6229,-3.6662,-3.7029,-3.7329,-3.7464,-3.748,-3.748,-3.7599,-3.7759,-3.7918,-3.8124,-3.8258,-3.8523,-3.8371,-3.7946,-3.7332,-3.6821,-3.6788,-3.6811,-3.6716,-3.6394,-3.6053,-3.5953,-3.5629,-3.5475,-3.5684,-3.5312,-3.5084,-3.5355,-3.4978,-3.462,-3.4647,-3.46,-3.4566,-3.451,-3.4527,-3.4658,-3.4824,-3.4609,-3.4595,-3.5057,-3.5463,-3.5621,-3.5747,-3.5779,-3.5818,-3.5866,-3.5632,-3.5657,-3.5435,-3.5129,-3.4628,-3.4569,-3.4521,-3.4363,-3.4362,-3.4498,-3.4256,-3.363,-3.3358,-3.3301,-3.3053,-3.2661,-3.1845,-3.1268,-3.0741,-3.0715,-3.0831,-3.0921,-3.134,-3.1546,-3.1712,-3.2131,-3.2897,-3.3295,-3.3538,-3.3936,-3.4265,-3.4729,-3.5241,-3.5452,-3.533,-3.5427,-3.5596,-3.5604,-3.5572,-3.529,-3.5193,-3.5437,-3.5547,-3.5476,-3.5393,-3.53,-3.5207,-3.0216,-3.0216,-3.0216,-3.0216,-3.0216,-3.0793,-3.1241,-3.1737,-3.2228,-3.2566,-3.2919,-3.2731,-3.2597,-3.2736,-3.2873,-3.3173,-3.3619,-3.3959,-3.4669,-3.537,-3.6027,-3.6383,-3.6846,-3.7165,-3.7464,-3.748,-3.748,-3.7539,-3.7642,-3.7817,-3.8189,-3.843,-3.8499,-3.8513,-3.847,-3.8311,-3.7551,-3.7015,-3.6869,-3.693,-3.6939,-3.6897,-3.6624,-3.6257,-3.6394,-3.615,-3.6042,-3.6039,-3.5884,-3.5701,-3.5473,-3.513,-3.4821,-3.4886,-3.4908,-3.4945,-3.5037,-3.5143,-3.5209,-3.4952,-3.5047,-3.5316,-3.5639,-3.5754,-3.5799,-3.5826,-3.5866,-3.5885,-3.5897,-3.5883,-3.5791,-3.5582,-3.5393,-3.5412,-3.531,-3.5116,-3.5118,-3.5211,-3.5175,-3.4591,-3.4316,-3.416,-3.386,-3.3511,-3.2577,-3.1693,-3.1154,-3.0808,-3.108,-3.1313,-3.177,-3.22,-3.2404,-3.2938,-3.3732,-3.4023,-3.4216,-3.4621,-3.5055,-3.5295,-3.5554,-3.5519,-3.5444,-3.5502,-3.5496,-3.5457,-3.543,-3.5416,-3.543,-3.5468,-3.5422,-3.533,-3.5239,-3.5143,-3.5056,-3.0216,-3.0216,-3.0216,-3.0216,-3.0318,-3.0781,-3.1199,-3.1646,-3.2339,-3.2772,-3.2893,-3.2662,-3.2684,-3.2732,-3.3021,-3.3403,-3.4043,-3.4495,-3.5015,-3.5621,-3.6061,-3.6554,-3.6984,-3.7301,-3.748,-3.748,-3.7524,-3.7524,-3.77,-3.786,-3.8246,-3.8531,-3.8705,-3.894,-3.9037,-3.8515,-3.776,-3.7096,-3.697,-3.7048,-3.7108,-3.7226,-3.7251,-3.6916,-3.7156,-3.7235,-3.7069,-3.7027,-3.6835,-3.6496,-3.6118,-3.5606,-3.5258,-3.502,-3.4965,-3.5019,-3.5107,-3.5261,-3.5343,-3.5393,-3.5457,-3.5637,-3.5718,-3.5788,-3.5845,-3.5879,-3.5891,-3.5897,-3.5883,-3.5889,-3.5894,-3.5783,-3.5768,-3.5729,-3.5767,-3.5647,-3.5679,-3.5742,-3.5769,-3.56,-3.5339,-3.4995,-3.4639,-3.4253,-3.3413,-3.2613,-3.2244,-3.1975,-3.2072,-3.2258,-3.2423,-3.2841,-3.319,-3.3848,-3.4536,-3.4709,-3.485,-3.4971,-3.5314,-3.5348,-3.5496,-3.547,-3.543,-3.5422,-3.5374,-3.5326,-3.5296,-3.5285,-3.532,-3.5369,-3.5289,-3.519,-3.507,-3.4964,-3.4908,-3.0181,-3.0216,-3.017,-3.0158,-3.0147,-3.0781,-3.1085,-3.1418,-3.2202,-3.2652,-3.2836,-3.2502,-3.2668,-3.3221,-3.347,-3.3814,-3.4285,-3.4862,-3.5307,-3.5529,-3.6176,-3.6616,-3.6984,-3.7285,-3.748,-3.748,-3.7539,-3.7583,-3.7743,-3.8017,-3.8415,-3.8952,-3.9389,-3.9682,-4.0278,-3.9527,-3.8373,-3.7198,-3.7105,-3.7108,-3.7223,-3.7429,-3.7506,-3.7683,-3.7917,-3.8058,-3.8147,-3.7998,-3.7821,-3.7604,-3.6637,-3.6104,-3.5807,-3.5249,-3.5058,-3.507,-3.5209,-3.5373,-3.5493,-3.554,-3.5637,-3.5747,-3.5807,-3.5845,-3.5879,-3.5897,-3.5883,-3.5883,-3.5889,-3.5894,-3.5899,-3.5904,-3.5934,-3.597,-3.5999,-3.6013,-3.6015,-3.601,-3.5981,-3.5929,-3.5903,-3.5768,-3.5418,-3.496,-3.4196,-3.3606,-3.3285,-3.314,-3.3121,-3.2967,-3.2996,-3.3577,-3.3973,-3.432,-3.4908,-3.5284,-3.5481,-3.554,-3.5489,-3.5449,-3.5388,-3.5326,-3.53,-3.5289,-3.5258,-3.519,-3.5157,-3.5143,-3.5143,-3.5143,-3.5126,-3.5056,-3.4908,-3.4792,-3.4751,-2.9527,-2.9217,-2.9217,-2.9286,-2.9558,-3.0725,-3.1444,-3.2029,-3.2667,-3.3119,-3.3333,-3.285,-3.2715,-3.3137,-3.3592,-3.3889,-3.428,-3.4908,-3.5273,-3.5812,-3.6352,-3.6769,-3.7089,-3.7345,-3.748,-3.7539,-3.7599,-3.7743,-3.8001,-3.8286,-3.8788,-3.9398,-4.0036,-4.0014,-3.9554,-3.899,-3.8432,-3.733,-3.7108,-3.7185,-3.7411,-3.7595,-3.7828,-3.807,-3.8382,-3.8628,-3.8894,-3.8755,-3.8651,-3.8314,-3.725,-3.6618,-3.6134,-3.5496,-3.5092,-3.5141,-3.5273,-3.5449,-3.5581,-3.5679,-3.5735,-3.5815,-3.5845,-3.5879,-3.5883,-3.5889,-3.5889,-3.5889,-3.5894,-3.5899,-3.5894,-3.5939,-3.5971,-3.6001,-3.6013,-3.6014,-3.6005,-3.6007,-3.5992,-3.5903,-3.5872,-3.5815,-3.5572,-3.5447,-3.4827,-3.4361,-3.4013,-3.3945,-3.3897,-3.35,-3.3363,-3.4243,-3.4762,-3.4932,-3.5218,-3.5412,-3.5457,-3.5388,-3.535,-3.5304,-3.5258,-3.5171,-3.5157,-3.5143,-3.5108,-3.5056,-3.502,-3.4983,-3.4908,-3.4869,-3.4888,-3.4888,-3.4771,-3.4689,-3.4626,-2.9022,-2.8712,-2.8786,-2.8942,-2.9398,-3.0359,-3.1198,-3.2079,-3.2529,-3.3019,-3.3179,-3.2935,-3.2999,-3.3282,-3.355,-3.4013,-3.4387,-3.4957,-3.5474,-3.6037,-3.6461,-3.6831,-3.7134,-3.7405,-3.748,-3.7539,-3.77,-3.7886,-3.8173,-3.8606,-3.9259,-4.002,-4.0741,-4.0354,-3.9668,-3.9198,-3.8666,-3.7756,-3.7503,-3.7337,-3.7595,-3.781,-3.807,-3.8368,-3.8634,-3.8855,-3.9082,-3.9197,-3.9202,-3.863,-3.7875,-3.7114,-3.6442,-3.5704,-3.524,-3.5207,-3.5402,-3.557,-3.5718,-3.5779,-3.5838,-3.5852,-3.5879,-3.5891,-3.5889,-3.5889,-3.5889,-3.5894,-3.5899,-3.5904,-3.5934,-3.5974,-3.5989,-3.6013,-3.5995,-3.6001,-3.6004,-3.5997,-3.5947,-3.5872,-3.5803,-3.5736,-3.5698,-3.5688,-3.5454,-3.5076,-3.4745,-3.4687,-3.464,-3.429,-3.3989,-3.4673,-3.5179,-3.5239,-3.5277,-3.5339,-3.5345,-3.5239,-3.5209,-3.5196,-3.5072,-3.4981,-3.4982,-3.4983,-3.4946,-3.4908,-3.4869,-3.481,-3.4749,-3.4708,-3.4689,-3.4668,-3.4645,-3.4602,-3.4558,-2.8666,-2.8654,-2.8924,-2.9218,-2.9593,-2.9761,-3.0503,-3.1565,-3.1867,-3.2231,-3.2585,-3.2985,-3.3268,-3.373,-3.3902,-3.4278,-3.4828,-3.5141,-3.5584,-3.61,-3.66,-3.6892,-3.721,-3.7405,-3.7524,-3.7642,-3.7801,-3.8059,-3.8383,-3.9082,-3.9833,-4.0517,-4.1012,-4.0784,-4.0307,-3.9613,-3.8966,-3.8223,-3.7674,-3.763,-3.7828,-3.8104,-3.835,-3.8634,-3.8855,-3.9082,-3.9272,-3.9389,-3.9526,-3.9039,-3.8188,-3.761,-3.688,-3.5912,-3.5479,-3.534,-3.5577,-3.5699,-3.5807,-3.5852,-3.5872,-3.5879,-3.5885,-3.5897,-3.5883,-3.5894,-3.5914,-3.5919,-3.5929,-3.5958,-3.5974,-3.6001,-3.6014,-3.5995,-3.5982,-3.5981,-3.5977,-3.5947,-3.5872,-3.5811,-3.5754,-3.5708,-3.5716,-3.5715,-3.5695,-3.5499,-3.5198,-3.5226,-3.5176,-3.5203,-3.4979,-3.5051,-3.5419,-3.5405,-3.5407,-3.5315,-3.5187,-3.507,-3.5054,-3.5038,-3.4908,-3.4831,-3.485,-3.4849,-3.4829,-3.4768,-3.4689,-3.4668,-3.4626,-3.4583,-3.4561,-3.4539,-3.4517,-3.4495,-3.4487,-2.805,-2.7881,-2.814,-2.8479,-2.8955,-2.9836,-3.1163,-3.2669,-3.2914,-3.3088,-3.3425,-3.3268,-3.3367,-3.3677,-3.3939,-3.4408,-3.4867,-3.5434,-3.5925,-3.6399,-3.6785,-3.7165,-3.7405,-3.7524,-3.7685,-3.7844,-3.8059,-3.8327,-3.8882,-3.9575,-4.0252,-4.0935,-4.1018,-4.1086,-4.0727,-4.0081,-3.9234,-3.8543,-3.7932,-3.7882,-3.807,-3.8368,-3.8634,-3.8855,-3.9064,-3.9298,-3.9446,-3.9564,-3.9679,-3.9471,-3.8196,-3.7466,-3.7414,-3.6115,-3.5254,-3.5509,-3.5669,-3.5791,-3.5845,-3.5879,-3.5897,-3.5897,-3.5942,-3.5889,-3.5894,-3.5899,-3.5919,-3.5948,-3.597,-3.5985,-3.6001,-3.6014,-3.6014,-3.6001,-3.5978,-3.5938,-3.5928,-3.5872,-3.5811,-3.5773,-3.5708,-3.5707,-3.5704,-3.5704,-3.5673,-3.5643,-3.5601,-3.5577,-3.5553,-3.554,-3.5496,-3.5502,-3.5422,-3.535,-3.5239,-3.5157,-3.5035,-3.4926,-3.4908,-3.4888,-3.481,-3.4769,-3.4749,-3.4728,-3.4706,-3.4645,-3.4561,-3.4539,-3.4517,-3.4473,-3.445,-3.4431,-3.4427,-3.4535,-3.4717,-2.7742,-2.7719,-2.8042,-2.859,-2.9353,-3.0432,-3.1695,-3.2853,-3.2894,-3.3197,-3.3517,-3.3339,-3.3396,-3.3619,-3.3937,-3.4414,-3.4949,-3.5539,-3.6133,-3.6677,-3.6982,-3.7389,-3.7626,-3.7653,-3.7844,-3.8042,-3.8254,-3.8551,-3.9159,-3.9648,-4.0289,-4.0134,-4.0534,-4.0752,-4.0464,-3.9686,-3.9153,-3.8629,-3.8259,-3.811,-3.8285,-3.859,-3.8862,-3.9073,-3.9272,-3.9427,-3.9588,-3.9698,-3.9754,-3.9599,-3.8279,-3.7527,-3.7356,-3.6214,-3.5463,-3.5648,-3.5736,-3.583,-3.5879,-3.5878,-3.5889,-3.5986,-3.6162,-3.6211,-3.6021,-3.5909,-3.5938,-3.597,-3.5994,-3.6007,-3.6015,-3.6011,-3.6018,-3.6013,-3.5953,-3.5894,-3.5833,-3.5784,-3.5754,-3.5708,-3.5697,-3.5695,-3.5673,-3.5673,-3.5651,-3.5596,-3.5528,-3.5489,-3.5476,-3.5449,-3.5435,-3.5407,-3.5285,-3.5193,-3.5089,-3.5001,-3.4889,-3.4812,-3.481,-3.4788,-3.4706,-3.4666,-3.4666,-3.4623,-3.458,-3.4517,-3.4454,-3.4431,-3.4409,-3.4404,-3.447,-3.4619,-3.4787,-3.503,-3.5205,-2.7696,-2.8042,-2.8443,-2.9353,-3.0444,-3.1259,-3.1877,-3.2345,-3.2485,-3.2731,-3.3016,-3.3255,-3.3466,-3.373,-3.4074,-3.452,-3.5118,-3.5767,-3.6245,-3.6888,-3.7002,-3.7324,-3.7371,-3.771,-3.7512,-3.7907,-3.8202,-3.8257,-3.9005,-3.9435,-3.9489,-3.9042,-3.948,-3.9829,-3.9886,-3.9242,-3.8861,-3.8905,-3.8454,-3.8138,-3.8415,-3.8725,-3.9007,-3.921,-3.9376,-3.9551,-3.9679,-3.9773,-3.9807,-3.9304,-3.8591,-3.7661,-3.6843,-3.6315,-3.582,-3.5727,-3.5795,-3.5859,-3.5891,-3.5889,-3.5889,-3.6148,-3.6596,-3.6567,-3.6343,-3.6298,-3.6368,-3.6057,-3.6011,-3.6015,-3.6007,-3.5974,-3.597,-3.5963,-3.5917,-3.5846,-3.5784,-3.5754,-3.5718,-3.5706,-3.5665,-3.5654,-3.5631,-3.5631,-3.5572,-3.5534,-3.5463,-3.5407,-3.535,-3.5335,-3.5304,-3.527,-3.5157,-3.5037,-3.4945,-3.485,-3.4752,-3.471,-3.4687,-3.4645,-3.458,-3.4561,-3.4561,-3.4517,-3.4473,-3.4427,-3.4386,-3.4363,-3.4358,-3.4372,-3.4516,-3.4828,-3.5125,-3.5516,-3.6012,-2.8247,-2.8645,-2.9586,-3.0292,-3.0898,-3.1482,-3.1982,-3.2417,-3.2704,-3.3002,-3.3241,-3.3466,-3.3675,-3.3882,-3.4346,-3.4854,-3.5494,-3.6054,-3.6383,-3.6613,-3.6796,-3.686,-3.6605,-3.6757,-3.6793,-3.6955,-3.7255,-3.7784,-3.8348,-3.8757,-3.9085,-3.9143,-3.9288,-3.9345,-3.9512,-3.8915,-3.8761,-3.8975,-3.864,-3.8336,-3.8554,-3.8855,-3.9156,-3.9343,-3.9539,-3.9661,-3.9773,-3.9845,-3.9532,-3.8988,-3.8176,-3.7173,-3.607,-3.5774,-3.5718,-3.5771,-3.5826,-3.5879,-3.5883,-3.5889,-3.5894,-3.5919,-3.6231,-3.6577,-3.6766,-3.6879,-3.6741,-3.6306,-3.6073,-3.6081,-3.6004,-3.5962,-3.5914,-3.5891,-3.5891,-3.5815,-3.5745,-3.5757,-3.5725,-3.5742,-3.5701,-3.5631,-3.5589,-3.5534,-3.5483,-3.543,-3.5374,-3.53,-3.5193,-3.5126,-3.5126,-3.5072,-3.4963,-3.487,-3.4791,-3.471,-3.4607,-3.4542,-3.4517,-3.4495,-3.4431,-3.4431,-3.4431,-3.4409,-3.4363,-3.434,-3.4293,-3.4269,-3.4264,-3.4301,-3.4747,-3.5151,-3.5795,-3.6233,-3.6872,-2.8373,-2.8852,-3.0253,-3.1048,-3.1408,-3.1909,-3.2431,-3.2789,-3.3157,-3.3437,-3.366,-3.373,-3.3868,-3.4142,-3.4668,-3.5234,-3.5849,-3.6445,-3.6547,-3.6611,-3.6517,-3.6573,-3.6313,-3.6034,-3.6495,-3.6727,-3.712,-3.7595,-3.7786,-3.8043,-3.8372,-3.8427,-3.8541,-3.8777,-3.8899,-3.8599,-3.8599,-3.8837,-3.8615,-3.8658,-3.8766,-3.8998,-3.9245,-3.9446,-3.9613,-3.9731,-3.9864,-3.9873,-3.9542,-3.8747,-3.7859,-3.6825,-3.599,-3.5727,-3.5773,-3.583,-3.5872,-3.5891,-3.5889,-3.5894,-3.5899,-3.5919,-3.6402,-3.6941,-3.7192,-3.7318,-3.742,-3.7048,-3.6786,-3.6746,-3.6142,-3.5943,-3.5897,-3.5866,-3.5893,-3.5872,-3.5931,-3.5987,-3.6149,-3.6358,-3.6103,-3.5596,-3.554,-3.5476,-3.5422,-3.532,-3.5254,-3.5155,-3.5056,-3.4927,-3.4908,-3.4869,-3.4752,-3.4691,-3.4647,-3.4564,-3.4498,-3.4431,-3.4386,-3.4386,-3.4409,-3.4363,-3.434,-3.434,-3.4316,-3.4269,-3.4221,-3.4277,-3.424,-3.424,-3.4847,-3.5553,-3.6226,-3.696,-3.7525,-2.8348,-2.8938,-3.0594,-3.1509,-3.1888,-3.2533,-3.3002,-3.3312,-3.3536,-3.3868,-3.4113,-3.4045,-3.4182,-3.452,-3.4986,-3.5449,-3.5932,-3.6322,-3.6519,-3.6324,-3.6557,-3.6077,-3.5898,-3.5991,-3.6135,-3.6522,-3.6995,-3.7022,-3.7117,-3.7413,-3.7487,-3.7171,-3.7279,-3.7576,-3.7739,-3.8002,-3.8328,-3.8579,-3.867,-3.8833,-3.8989,-3.9137,-3.9324,-3.9477,-3.9665,-3.9781,-3.9889,-3.9768,-3.9528,-3.8512,-3.739,-3.6479,-3.5977,-3.5756,-3.5815,-3.5885,-3.5885,-3.5883,-3.5889,-3.588,-3.5899,-3.6099,-3.6801,-3.7243,-3.744,-3.7753,-3.7865,-3.7973,-3.7718,-3.7156,-3.6553,-3.615,-3.6099,-3.5823,-3.5881,-3.6057,-3.6181,-3.6207,-3.6416,-3.6702,-3.6279,-3.5695,-3.5495,-3.5427,-3.5324,-3.5209,-3.5108,-3.4982,-3.4889,-3.4771,-3.4689,-3.4647,-3.4564,-3.4498,-3.4473,-3.445,-3.4386,-3.434,-3.4316,-3.434,-3.4363,-3.4316,-3.4293,-3.425,-3.4245,-3.4333,-3.437,-3.4383,-3.4327,-3.4494,-3.5249,-3.6096,-3.6811,-3.7479,-3.8089,-2.8877,-2.9645,-3.0939,-3.1621,-3.1971,-3.2919,-3.3466,-3.3591,-3.3825,-3.4128,-3.4283,-3.4743,-3.4905,-3.4773,-3.5228,-3.5661,-3.5892,-3.6313,-3.5717,-3.5186,-3.5846,-3.538,-3.5098,-3.5364,-3.5267,-3.578,-3.6344,-3.6456,-3.6792,-3.7039,-3.7259,-3.7317,-3.7429,-3.7685,-3.7967,-3.8171,-3.8401,-3.8621,-3.8873,-3.9073,-3.9192,-3.9324,-3.9401,-3.9594,-3.9777,-3.987,-3.9844,-3.9433,-3.8803,-3.7852,-3.6779,-3.6071,-3.5843,-3.5826,-3.5872,-3.5879,-3.5897,-3.5889,-3.5899,-3.5904,-3.5924,-3.5977,-3.659,-3.7088,-3.7517,-3.8224,-3.8541,-3.916,-3.8789,-3.7965,-3.7358,-3.7012,-3.6837,-3.6133,-3.5853,-3.6336,-3.6632,-3.6358,-3.6238,-3.6344,-3.6267,-3.5771,-3.5393,-3.5304,-3.516,-3.5056,-3.4927,-3.483,-3.471,-3.4604,-3.4495,-3.445,-3.4386,-3.434,-3.434,-3.434,-3.4316,-3.425,-3.4227,-3.4269,-3.4269,-3.4245,-3.424,-3.4468,-3.45,-3.455,-3.4569,-3.4748,-3.5082,-3.5354,-3.5959,-3.6692,-3.7341,-3.7895,-3.839]}]]